[[{"header":{"parameterUnit":"m.s-1","parameterCategory":1,"la1":30.6,"la2":28.766,"lo1":-90.7593,"lo2":-88.6598,"dy":0.0162,"dx":0.0183,"nx":116,"ny":114,"refTime":"2024-03-17T06:00:00:Z","depth":0,"parameterNumber":2,"parameterNumberName":"U-component_of_WINDS"},"data":[0.0,0.0,0.0,0.0,0.0,0.0,0.0,0.0,0.0,0.0,0.0,0.0,0.0,0.0,0.0,0.0,0.0,0.0,0.0,0.0,0.0,0.0,0.0,0.0,0.0,0.0,0.0,0.0,0.0,0.0,0.0,0.0,0.0,0.0,0.0,0.0,0.0,0.0,0.0,0.0,0.0,0.0,0.0,0.0,0.0,0.0,0.0,0.0,0.0,0.0,0.0,0.0,0.0,0.0,0.0,0.0,0.0,0.0,0.0,0.0,0.0,0.0,0.0,0.0,0.0,0.0,0.0,0.0,0.0,0.0,0.0,0.0,0.0,0.0,0.0,0.0,0.0,0.0,0.0,0.0,0.0,0.0,0.0,0.0,0.0,0.0,0.0,0.0,0.0,0.0,0.0,0.0,0.0,0.0,0.0,0.0,0.0,0.0,0.0,0.0,0.0,0.0,0.0,0.0,0.0,0.0,0.0,0.0,0.0,0.0,0.0,0.0,0.0,0.0,0.0,0.0,0.0,0.0,0.0,0.0,0.0,0.0,0.0,0.0,0.0,0.0,0.0,0.0,0.0,0.0,0.0,0.0,0.0,0.0,0.0,0.0,0.0,0.0,0.0,0.0,0.0,0.0,0.0,0.0,0.0,0.0,0.0,0.0,0.0,0.0,0.0,0.0,0.0,0.0,0.0,0.0,0.0,0.0,0.0,0.0,0.0,0.0,0.0,0.0,0.0,0.0,0.0,0.0,0.0,0.0,0.0,0.0,0.0,0.0,0.0,0.0,0.0,0.0,0.0,0.0,0.0,0.0,0.0,0.0,0.0,0.0,0.0,0.0,0.0,0.0,0.0,0.0,0.0,0.0,0.0,0.0,0.0,0.0,0.0,0.0,0.0,0.0,0.0,0.0,0.0,0.0,0.0,0.0,0.0,0.0,0.0,0.0,0.0,0.0,0.0,0.0,0.0,0.0,0.0,0.0,0.0,0.0,0.0,0.0,0.0,0.0,0.0,0.0,0.0,0.0,0.0,0.0,0.0,0.0,0.0,0.0,0.0,0.0,0.0,0.0,0.0,0.0,0.0,0.0,0.0,0.0,0.0,0.0,0.0,0.0,0.0,0.0,0.0,0.0,0.0,0.0,0.0,0.0,0.0,0.0,0.0,0.0,0.0,0.0,0.0,0.0,0.0,0.0,0.0,0.0,0.0,0.0,0.0,0.0,0.0,0.0,0.0,0.0,0.0,0.0,0.0,0.0,0.0,0.0,0.0,0.0,0.0,0.0,0.0,0.0,0.0,0.0,0.0,0.0,0.0,0.0,0.0,0.0,0.0,0.0,0.0,0.0,0.0,0.0,0.0,0.0,0.0,0.0,0.0,0.0,0.0,0.0,0.0,0.0,0.0,0.0,0.0,0.0,0.0,0.0,0.0,0.0,0.0,0.0,0.0,0.0,0.0,0.0,0.0,0.0,0.0,0.0,0.0,0.0,0.0,0.0,0.0,0.0,0.0,0.0,0.0,0.0,0.0,0.0,0.0,0.0,0.0,0.0,0.0,0.0,0.0,0.0,0.0,0.0,0.0,0.0,0.0,0.0,0.0,0.0,0.0,0.0,0.0,0.0,0.0,0.0,0.0,0.0,0.0,0.0,0.0,0.0,0.0,0.0,0.0,0.0,0.0,0.0,0.0,0.0,0.0,0.0,0.0,0.0,0.0,0.0,0.0,0.0,0.0,0.0,0.0,0.0,0.0,0.0,0.0,0.0,0.0,0.0,0.0,0.0,0.0,0.0,0.0,0.0,0.0,0.0,0.0,0.0,0.0,0.0,0.0,0.0,0.0,0.0,0.0,0.0,0.0,0.0,0.0,0.0,0.0,0.0,0.0,0.0,0.0,0.0,0.0,0.0,0.0,0.0,0.0,0.0,0.0,0.0,0.0,0.0,0.0,0.0,0.0,0.0,0.0,0.0,0.0,0.0,0.0,0.0,0.0,0.0,0.0,0.0,0.0,0.0,0.0,0.0,0.0,0.0,0.0,0.0,0.0,0.0,0.0,0.0,0.0,0.0,0.0,0.0,0.0,0.0,0.0,0.0,0.0,0.0,0.0,0.0,0.0,0.0,0.0,0.0,0.0,0.0,0.0,0.0,0.0,0.0,0.0,0.0,0.0,0.0,0.0,0.0,0.0,0.0,0.0,0.0,0.0,0.0,0.0,0.0,0.0,0.0,0.0,0.0,0.0,0.0,0.0,0.0,0.0,0.0,0.0,0.0,0.0,0.0,0.0,0.0,0.0,0.0,0.0,0.0,0.0,0.0,0.0,0.0,0.0,0.0,0.0,0.0,0.0,0.0,0.0,0.0,0.0,0.0,0.0,0.0,0.0,0.0,0.0,0.0,0.0,0.0,0.0,0.0,0.0,0.0,0.0,0.0,0.0,0.0,0.0,0.0,0.0,0.0,0.0,0.0,0.0,0.0,0.0,0.0,0.0,0.0,0.0,0.0,0.0,0.0,0.0,0.0,0.0,0.0,0.0,0.0,0.0,0.0,0.0,0.0,0.0,0.0,0.0,0.0,0.0,0.0,0.0,0.0,0.0,0.0,0.0,0.0,0.0,0.0,0.0,0.0,0.0,0.0,0.0,0.0,0.0,0.0,0.0,0.0,0.0,0.0,0.0,0.0,0.0,0.0,0.0,0.0,0.0,0.0,0.0,0.0,0.0,0.0,0.0,0.0,0.0,0.0,0.0,0.0,0.0,0.0,0.0,0.0,0.0,0.0,0.0,0.0,0.0,0.0,0.0,0.0,0.0,0.0,0.0,0.0,0.0,0.0,0.0,0.0,0.0,0.0,0.0,0.0,0.0,0.0,0.0,0.0,0.0,0.0,0.0,0.0,0.0,0.0,0.0,0.0,0.0,0.0,0.0,0.0,0.0,0.0,0.0,0.0,0.0,0.0,0.0,0.0,0.0,0.0,0.0,0.0,0.0,0.0,0.0,0.0,0.0,0.0,0.0,0.0,0.0,0.0,0.0,0.0,0.0,0.0,0.0,0.0,0.0,0.0,0.0,0.0,0.0,0.0,0.0,0.0,0.0,0.0,0.0,0.0,0.0,0.0,0.0,0.0,0.0,0.0,0.0,0.0,0.0,0.0,0.0,0.0,0.0,0.0,0.0,0.0,0.0,0.0,0.0,0.0,0.0,0.0,0.0,0.0,0.0,0.0,0.0,0.0,0.0,0.0,0.0,0.0,0.0,0.0,0.0,0.0,0.0,0.0,0.0,0.0,0.0,0.0,0.0,0.0,0.0,0.0,0.0,0.0,0.0,0.0,0.0,0.0,0.0,0.0,0.0,0.0,0.0,0.0,0.0,0.0,0.0,0.0,0.0,0.0,0.0,0.0,0.0,0.0,0.0,0.0,0.0,0.0,0.0,0.0,0.0,0.0,0.0,0.0,0.0,0.0,0.0,0.0,0.0,0.0,0.0,0.0,0.0,0.0,0.0,0.0,0.0,0.0,0.0,0.0,0.0,0.0,0.0,0.0,0.0,0.0,0.0,0.0,0.0,0.0,0.0,0.0,0.0,0.0,0.0,0.0,0.0,0.0,0.0,0.0,0.0,0.0,0.0,0.0,0.0,0.0,0.0,0.0,0.0,0.0,0.0,0.0,0.0,0.0,0.0,0.0,0.0,0.0,0.0,0.0,0.0,0.0,0.0,0.0,0.0,0.0,0.0,0.0,0.0,0.0,0.0,0.0,0.0,0.0,0.0,0.0,0.0,0.0,0.0,0.0,0.0,0.0,0.0,0.0,0.0,0.0,0.0,0.0,0.0,0.0,0.0,0.0,0.0,0.0,0.0,0.0,0.0,0.0,0.0,0.0,0.0,0.0,0.0,0.0,0.0,0.0,0.0,0.0,0.0,0.0,0.0,0.0,0.0,0.0,0.0,0.0,0.0,0.0,0.0,0.0,0.0,0.0,0.0,0.0,0.0,0.0,0.0,0.0,0.0,0.0,0.0,0.0,0.0,0.0,0.0,0.0,0.0,0.0,0.0,0.0,0.0,0.0,0.0,0.0,0.0,0.0,0.0,0.0,0.0,0.0,0.0,0.0,0.0,0.0,0.0,0.0,0.0,0.0,0.0,0.0,0.0,0.0,0.0,0.0,0.0,0.0,0.0,0.0,0.0,0.0,0.0,0.0,0.0,0.0,0.0,0.0,0.0,0.0,0.0,0.0,0.0,0.0,0.0,0.0,0.0,0.0,0.0,0.0,0.0,0.0,0.0,0.0,0.0,0.0,0.0,0.0,0.0,0.0,0.0,0.0,0.0,0.0,0.0,0.0,0.0,0.0,0.0,0.0,0.0,0.0,0.0,0.0,0.0,0.0,0.0,0.0,0.0,0.0,0.0,0.0,0.0,0.0,0.0,0.0,0.0,0.0,0.0,0.0,0.0,0.0,0.0,0.0,0.0,0.0,0.0,0.0,0.0,0.0,0.0,0.0,0.0,0.0,0.0,0.0,0.0,0.0,0.0,0.0,0.0,0.0,0.0,0.0,0.0,0.0,0.0,0.0,0.0,0.0,0.0,0.0,0.0,0.0,0.0,0.0,0.0,0.0,0.0,0.0,0.0,0.0,0.0,0.0,0.0,0.0,0.0,0.0,0.0,0.0,0.0,0.0,0.0,0.0,0.0,0.0,0.0,0.0,0.0,0.0,0.0,0.0,0.0,0.0,0.0,0.0,0.0,0.0,0.0,0.0,0.0,0.0,0.0,0.0,0.0,0.0,0.0,0.0,0.0,0.0,0.0,0.0,0.0,0.0,0.0,0.0,0.0,0.0,0.0,0.0,0.0,0.0,0.0,0.0,0.0,0.0,0.0,0.0,0.0,0.0,0.0,0.0,0.0,0.0,0.0,0.0,0.0,0.0,0.0,0.0,0.0,0.0,0.0,0.0,0.0,0.0,0.0,0.0,0.0,0.0,0.0,0.0,0.0,0.0,0.0,0.0,0.0,0.0,0.0,0.0,0.0,0.0,0.0,0.0,0.0,0.0,0.0,0.0,0.0,0.0,0.0,0.0,0.0,0.0,0.0,0.0,0.0,0.0,0.0,0.0,0.0,0.0,0.0,0.0,0.0,0.0,0.0,0.0,0.0,0.0,0.0,0.0,0.0,0.0,0.0,0.0,0.0,0.0,0.0,0.0,0.0,0.0,0.0,0.0,0.0,0.0,0.0,0.0,0.0,0.0,0.0,0.0,0.0,0.0,0.0,0.0,0.0,0.0,0.0,0.0,0.0,0.0,0.0,0.0,0.0,0.0,0.0,0.0,0.0,0.0,0.0,0.0,0.0,0.0,0.0,0.0,0.0,0.0,0.0,0.0,0.0,0.0,0.0,0.0,0.0,0.0,0.0,0.0,0.0,0.0,0.0,0.0,0.0,0.0,0.0,0.0,0.0,0.0,0.0,0.0,0.0,0.0,0.0,0.0,0.0,0.0,0.0,0.0,0.0,0.0,0.0,0.0,0.0,0.0,0.0,0.0,0.0,0.0,0.0,0.0,0.0,0.0,0.0,0.0,0.0,0.0,0.0,0.0,0.0,0.0,0.0,0.0,0.0,0.0,0.0,0.0,0.0,0.0,0.0,0.0,0.0,0.0,0.0,0.0,0.0,0.0,0.0,0.0,0.0,0.0,0.0,0.0,0.0,0.0,0.0,0.0,0.0,0.0,0.0,0.0,0.0,0.0,0.0,0.0,0.0,0.0,0.0,0.0,0.0,0.0,0.0,0.0,0.0,0.0,0.0,0.0,0.0,0.0,0.0,0.0,0.0,0.0,0.0,0.0,0.0,0.0,0.0,0.0,0.0,0.0,0.0,0.0,0.0,0.0,0.0,0.0,0.0,0.0,0.0,0.0,0.0,0.0,0.0,0.0,0.0,0.0,0.0,0.0,0.0,0.0,0.0,0.0,0.0,0.0,0.0,0.0,0.0,0.0,0.0,0.0,0.0,0.0,0.0,0.0,0.0,0.0,0.0,0.0,0.0,0.0,0.0,0.0,0.0,0.0,0.0,0.0,0.0,0.0,0.0,0.0,0.0,0.0,0.0,0.0,0.0,0.0,0.0,0.0,0.0,0.0,-0.5571,0.0,0.0,0.0,0.0,0.0,0.0,0.0,0.0,0.0,0.0,0.0,0.0,0.0,0.0,0.0,0.0,0.0,0.0,0.0,0.0,0.0,0.0,0.0,0.0,0.0,0.0,0.0,-0.7502,-0.731,-0.6892,-0.6888,-0.67,-0.6318,-0.6347,-0.6381,-0.6381,-0.6023,-0.582,-0.582,-0.5385,-0.5186,-0.5184,-0.5127,-0.5069,-0.5018,0.0,0.0,0.0,0.0,0.0,0.0,0.0,0.0,0.0,0.0,0.0,0.0,0.0,0.0,0.0,0.0,0.0,0.0,0.0,0.0,0.0,0.0,0.0,0.0,0.0,0.0,0.0,0.0,0.0,0.0,0.0,0.0,0.0,0.0,0.0,0.0,0.0,0.0,0.0,0.0,0.0,0.0,0.0,0.0,0.0,0.0,0.0,0.0,0.0,0.0,0.0,0.0,0.0,0.0,0.0,0.0,0.0,0.0,0.0,0.0,0.0,0.0,0.0,0.0,0.0,0.0,0.0,0.0,0.0,0.0,0.0,-0.5471,0.0,0.0,0.0,0.0,0.0,0.0,0.0,0.0,0.0,0.0,0.0,0.0,0.0,0.0,0.0,0.0,0.0,0.0,0.0,0.0,0.0,0.0,0.0,-0.7254,-0.713,-0.713,-0.713,-0.6819,-0.6123,-0.6048,-0.5777,-0.5117,-0.5167,-0.5219,-0.5219,-0.5358,-0.541,-0.541,-0.541,-0.541,-0.5407,-0.5306,-0.5167,-0.5075,0.0,0.0,0.0,0.0,0.0,0.0,0.0,0.0,0.0,0.0,0.0,0.0,0.0,0.0,0.0,0.0,0.0,0.0,0.0,0.0,0.0,0.0,0.0,0.0,0.0,0.0,0.0,0.0,0.0,0.0,0.0,0.0,0.0,0.0,0.0,0.0,0.0,0.0,0.0,0.0,0.0,0.0,0.0,0.0,0.0,0.0,0.0,0.0,0.0,0.0,0.0,0.0,0.0,0.0,0.0,0.0,0.0,0.0,0.0,0.0,0.0,0.0,0.0,0.0,-0.5431,-0.5431,-0.5431,-0.5431,-0.5431,-0.5431,-0.5431,-0.5349,-0.5219,-0.5219,0.0,0.0,0.0,0.0,0.0,0.0,0.0,0.0,0.0,0.0,0.0,0.0,0.0,0.0,0.0,0.0,0.0,0.0,0.0,0.0,0.0,-0.6106,-0.5691,-0.5691,-0.5691,-0.5608,-0.5526,-0.5485,-0.5443,-0.5364,-0.5377,-0.5385,-0.5385,-0.5402,-0.541,-0.541,-0.541,-0.541,-0.541,-0.5394,-0.5377,-0.5355,-0.5108,0.0,0.0,0.0,0.0,0.0,0.0,0.0,0.0,0.0,0.0,0.0,0.0,0.0,0.0,0.0,0.0,0.0,0.0,0.0,0.0,0.0,0.0,0.0,0.0,0.0,0.0,0.0,0.0,0.0,0.0,0.0,0.0,0.0,0.0,0.0,0.0,0.0,0.0,0.0,0.0,0.0,0.0,0.0,-0.5165,-0.5165,0.0,0.0,0.0,0.0,0.0,0.0,0.0,0.0,0.0,0.0,0.0,0.0,0.0,-0.5534,-0.564,-0.5642,-0.5642,-0.5642,-0.5642,-0.5642,-0.5642,-0.5642,-0.5642,-0.5642,-0.5642,0.0,-0.5385,-0.5385,0.0,0.0,0.0,0.0,0.0,0.0,0.0,0.0,0.0,0.0,0.0,0.0,0.0,0.0,0.0,0.0,0.0,0.0,0.0,0.0,0.0,-0.5655,-0.5407,-0.5035,-0.4996,-0.5037,-0.5165,-0.5165,-0.5246,-0.541,-0.5434,-0.5472,-0.5472,-0.5408,-0.5397,-0.5397,-0.5529,-0.5575,-0.5572,-0.5504,-0.5472,-0.5464,-0.5292,-0.5216,-0.5211,-0.514,0.0,0.0,0.0,0.0,0.0,0.0,0.0,0.0,0.0,0.0,0.0,0.0,0.0,0.0,0.0,0.0,0.0,0.0,0.0,0.0,0.0,0.0,0.0,0.0,0.0,0.0,0.0,0.0,0.0,0.0,0.0,0.0,0.0,0.0,0.0,0.0,0.0,0.0,0.0,-0.5214,-0.5331,-0.5331,-0.5377,-0.5396,0.0,0.0,0.0,0.0,0.0,0.0,0.0,0.0,0.0,-0.5746,-0.5814,-0.5877,-0.5931,-0.5931,-0.5931,-0.5931,-0.5931,-0.5931,-0.5931,-0.5931,-0.5931,-0.5931,-0.5931,-0.5831,-0.5659,-0.5526,-0.5431,-0.541,0.0,0.0,0.0,0.0,-0.5257,-0.5216,0.0,0.0,0.0,0.0,0.0,0.0,0.0,0.0,0.0,0.0,0.0,0.0,-0.5719,-0.5892,-0.5794,-0.5122,-0.5079,-0.5037,-0.4997,-0.5084,-0.5209,-0.5376,-0.5505,-0.5553,-0.5553,-0.5463,-0.5371,-0.528,-0.5536,-0.5689,-0.5687,-0.5672,-0.5626,-0.5594,-0.5545,-0.5498,-0.5405,-0.5314,-0.5233,0.0,0.0,0.0,0.0,0.0,0.0,0.0,0.0,0.0,0.0,0.0,0.0,0.0,0.0,0.0,0.0,0.0,0.0,0.0,0.0,0.0,0.0,0.0,0.0,0.0,0.0,0.0,0.0,0.0,0.0,0.0,0.0,0.0,0.0,0.0,0.0,0.0,0.0,-0.5339,-0.5415,-0.5415,-0.5445,-0.551,0.0,0.0,0.0,0.0,0.0,0.0,-0.5822,-0.5934,-0.5983,-0.595,-0.607,-0.6119,-0.6086,-0.6086,-0.6086,-0.6086,-0.6086,-0.6086,-0.6086,-0.6086,-0.6086,-0.6086,-0.6086,-0.6034,-0.5934,-0.5683,-0.557,-0.5464,-0.5464,-0.5445,-0.5415,-0.5415,-0.5396,-0.541,0.0,0.0,0.0,0.0,0.0,0.0,0.0,0.0,0.0,0.0,0.0,-0.6814,-0.6997,-0.7034,-0.6766,-0.6107,-0.6021,-0.5753,-0.5038,-0.522,-0.5398,-0.5401,-0.5586,-0.568,-0.568,-0.5505,-0.528,-0.501,-0.5433,-0.5626,-0.5629,-0.5917,-0.5996,-0.5885,-0.588,-0.5689,-0.541,-0.5405,-0.5402,-0.5402,0.0,0.0,0.0,0.0,0.0,0.0,0.0,0.0,0.0,0.0,0.0,0.0,0.0,0.0,0.0,0.0,0.0,0.0,0.0,0.0,0.0,0.0,0.0,0.0,0.0,0.0,0.0,0.0,0.0,0.0,0.0,0.0,0.0,0.0,0.0,0.0,0.0,0.0,0.0,-0.5497,-0.5602,0.0,0.0,0.0,0.0,-0.6059,-0.6067,-0.6067,-0.6067,-0.6184,-0.6246,-0.6081,-0.6243,-0.6251,-0.6086,-0.6086,-0.6086,-0.6086,-0.6086,-0.6086,-0.6086,-0.6086,-0.6086,-0.6086,-0.6086,-0.6083,-0.6067,-0.5937,-0.5817,-0.5672,-0.5672,-0.5599,-0.5497,-0.5497,-0.5469,-0.541,0.0,0.0,0.0,0.0,0.0,0.0,0.0,0.0,-0.6691,-0.6779,-0.718,-0.7316,-0.6959,-0.718,-0.7048,-0.6343,-0.6302,-0.6033,-0.5497,-0.5985,-0.5941,-0.5188,-0.5683,-0.5686,-0.5062,-0.5172,-0.5115,-0.489,-0.5222,-0.5415,-0.5415,-0.5546,-0.5544,-0.5506,-0.5696,-0.5722,-0.5594,-0.5499,-0.5443,-0.548,-0.5401,-0.5383,0.0,0.0,0.0,0.0,0.0,0.0,0.0,0.0,0.0,0.0,0.0,0.0,0.0,0.0,0.0,0.0,0.0,0.0,0.0,0.0,0.0,0.0,0.0,0.0,0.0,0.0,0.0,0.0,0.0,0.0,0.0,0.0,0.0,0.0,0.0,0.0,0.0,-0.5776,-0.5885,0.0,-0.6015,-0.6092,-0.6124,-0.6089,-0.6159,-0.6168,-0.6089,-0.6251,-0.6298,-0.6254,-0.6317,-0.6355,-0.6312,-0.6312,-0.6312,-0.6312,-0.6312,-0.6312,-0.6312,-0.6312,-0.6312,-0.6263,-0.6118,-0.6125,-0.62,-0.6008,-0.5923,-0.5953,-0.5874,-0.5814,-0.5768,-0.565,-0.5597,-0.5602,0.0,0.0,0.0,0.0,0.0,0.0,0.0,0.0,-0.7132,-0.736,-0.7804,-0.7896,-0.7448,-0.7669,-0.758,-0.6827,-0.6782,-0.6517,-0.5985,-0.647,-0.6425,-0.5628,-0.5941,-0.5832,-0.5113,-0.5076,-0.4944,-0.4718,-0.5045,-0.5238,-0.5238,-0.5367,-0.5367,-0.5382,-0.5578,-0.5606,-0.5556,-0.5562,-0.5575,-0.5615,-0.554,-0.5466,-0.5431,0.0,0.0,0.0,0.0,0.0,0.0,0.0,0.0,0.0,0.0,0.0,0.0,0.0,0.0,0.0,0.0,0.0,0.0,0.0,0.0,0.0,0.0,0.0,0.0,0.0,0.0,0.0,0.0,0.0,0.0,0.0,0.0,0.0,0.0,0.0,-0.5918,-0.5958,-0.6037,-0.6102,-0.6143,-0.627,-0.6249,-0.6208,-0.6279,-0.6306,-0.6268,-0.6382,-0.6469,-0.6561,-0.6619,-0.6679,-0.6679,-0.6679,-0.6627,-0.6523,-0.6627,-0.6605,-0.6413,-0.657,-0.6575,-0.6446,-0.6199,-0.6137,-0.6181,-0.6028,-0.5935,-0.5946,-0.598,-0.5964,-0.5956,-0.588,-0.5852,-0.5852,0.0,0.0,0.0,0.0,0.0,0.0,0.0,-0.7533,-0.7801,-0.852,-0.8612,-0.8612,-0.8612,-0.8612,-0.8296,-0.7577,-0.7533,-0.7224,-0.6476,-0.6691,-0.6871,-0.683,-0.6433,-0.6141,-0.5953,-0.5275,-0.4856,-0.4623,-0.4958,-0.5103,-0.5105,-0.5449,-0.5542,-0.5498,-0.5498,-0.5439,-0.5291,-0.5576,-0.5746,-0.5858,-0.5742,-0.5623,-0.5518,0.0,0.0,0.0,0.0,0.0,0.0,0.0,0.0,0.0,0.0,0.0,0.0,0.0,0.0,0.0,0.0,0.0,0.0,0.0,0.0,0.0,0.0,0.0,0.0,0.0,0.0,0.0,0.0,0.0,0.0,0.0,0.0,0.0,-0.5864,-0.5912,-0.5958,-0.6078,-0.6094,-0.6146,-0.6268,-0.6285,-0.6333,-0.6395,-0.6406,-0.646,-0.6578,-0.6747,-0.6864,-0.698,-0.7086,-0.7143,-0.7143,-0.7143,-0.698,-0.6702,-0.698,-0.6919,-0.6482,-0.6812,-0.685,-0.6573,-0.6321,-0.6103,-0.6002,-0.5999,-0.5844,-0.562,-0.5941,-0.6092,-0.6092,-0.6086,-0.6086,-0.6086,0.0,0.0,0.0,0.0,0.0,0.0,0.0,-0.8296,-0.8384,-0.8568,-0.8612,-0.8612,-0.8612,-0.8612,-0.852,-0.8296,-0.8296,-0.7981,-0.7224,-0.776,-0.7949,-0.7524,-0.703,-0.673,-0.6683,-0.6003,-0.5584,-0.5538,-0.5222,-0.505,-0.5052,-0.5197,-0.519,-0.5154,-0.5359,-0.5354,-0.5255,-0.5477,-0.5572,-0.5623,-0.5622,-0.5569,-0.5485,0.0,0.0,0.0,0.0,0.0,0.0,0.0,0.0,0.0,0.0,0.0,0.0,0.0,0.0,0.0,0.0,0.0,0.0,0.0,0.0,0.0,0.0,0.0,0.0,0.0,0.0,0.0,0.0,0.0,0.0,0.0,0.0,-0.6827,-0.6128,-0.5968,-0.5984,-0.6214,-0.629,-0.6289,-0.6212,-0.63,-0.6393,-0.6449,-0.6588,-0.665,-0.6681,-0.6634,-0.6514,-0.6275,-0.628,-0.6253,-0.6253,-0.6253,-0.6202,-0.6095,-0.6202,-0.6185,-0.6049,-0.6158,-0.6179,-0.6068,-0.581,-0.5793,-0.5915,-0.5686,-0.5653,-0.5783,-0.5914,-0.5828,-0.5678,-0.5548,-0.5516,-0.5516,0.0,0.0,0.0,0.0,0.0,0.0,0.0,-0.8612,-0.8612,-0.8612,-0.8612,-0.8612,-0.8612,-0.8612,-0.8612,-0.8612,-0.8612,-0.8432,-0.7984,-0.8093,-0.8072,-0.7869,0.0,-0.6488,-0.6488,-0.5878,-0.5513,-0.5513,-0.5216,-0.5028,-0.503,-0.5084,-0.5079,-0.5028,-0.5187,-0.5238,-0.5145,-0.5343,-0.5345,-0.5241,-0.5322,-0.5344,-0.5349,-0.5285,-0.5323,-0.5416,-0.5416,-0.5416,-0.5416,-0.5416,0.0,0.0,0.0,0.0,0.0,0.0,0.0,0.0,0.0,0.0,0.0,0.0,0.0,0.0,0.0,0.0,0.0,0.0,0.0,0.0,0.0,0.0,0.0,0.0,-0.7809,-0.7484,-0.7073,-0.6863,-0.693,-0.7437,-0.7322,-0.722,-0.7202,-0.7022,-0.6881,-0.6789,-0.6645,-0.654,-0.6478,-0.6364,-0.626,-0.6183,-0.6127,-0.6117,-0.6217,-0.6217,-0.6107,-0.5999,-0.6107,-0.6083,-0.5934,-0.6041,-0.6049,-0.5969,-0.5701,-0.5625,-0.5741,-0.5527,-0.5448,0.0,0.0,0.0,0.0,0.0,-0.5409,-0.5409,0.0,0.0,0.0,0.0,0.0,0.0,0.0,-0.8612,-0.8612,-0.8612,-0.8612,-0.8612,-0.8612,-0.8612,-0.8612,-0.8612,-0.8612,-0.862,-0.8641,-0.8091,-0.7887,-0.8081,-0.6807,-0.6105,-0.6105,-0.5456,-0.5141,-0.5141,-0.513,-0.5124,-0.5124,-0.5135,-0.5132,-0.5124,-0.5124,-0.5073,-0.5039,-0.5248,-0.5141,-0.4843,-0.5012,-0.5104,-0.5108,-0.5097,-0.5029,-0.5027,-0.5027,-0.502,-0.501,-0.501,0.0,0.0,0.0,0.0,0.0,0.0,0.0,0.0,0.0,0.0,0.0,0.0,0.0,0.0,0.0,0.0,0.0,0.0,0.0,0.0,0.0,0.0,0.0,0.0,-0.7931,-0.7946,-0.8472,-0.8244,-0.8231,-0.8802,-0.8378,-0.8078,-0.823,-0.7765,-0.7355,-0.7068,-0.665,-0.6275,-0.6108,0.0,0.0,0.0,0.0,-0.6336,-0.6488,-0.6488,-0.6315,-0.6026,-0.6315,-0.6269,-0.5954,-0.6178,-0.6193,-0.6023,-0.5748,-0.5591,-0.5463,-0.5452,-0.5333,-0.5145,-0.544,-0.5519,-0.5519,-0.5557,-0.5553,-0.555,0.0,0.0,0.0,0.0,0.0,0.0,0.0,-0.8612,-0.8612,-0.8612,-0.8612,-0.8612,-0.8612,-0.8612,-0.8612,-0.8612,-0.8612,-0.8625,-0.8763,-0.8932,-0.9076,-0.9112,-0.8425,-0.8073,-0.8073,-0.6739,-0.6025,-0.6025,-0.544,-0.5164,-0.5164,-0.5294,-0.529,-0.5164,-0.5164,-0.5167,-0.5081,-0.5134,-0.5083,-0.4943,-0.5029,-0.5062,-0.5076,-0.4996,-0.4997,-0.5091,-0.5091,-0.5037,-0.501,-0.501,-0.501,-0.501,-0.501,0.0,0.0,0.0,0.0,0.0,0.0,0.0,0.0,0.0,0.0,0.0,0.0,0.0,0.0,0.0,0.0,0.0,0.0,0.0,0.0,-0.9692,-0.9546,-0.9605,-1.0137,-0.9284,-0.8367,-0.7645,-0.6865,-0.6333,-0.6175,-0.6074,-0.6094,-0.621,-0.6111,-0.61,-0.6085,-0.6073,-0.593,-0.5678,-0.561,-0.5583,-0.5658,-0.5658,-0.5602,-0.5545,0.0,0.0,-0.5518,-0.5574,-0.5555,-0.5522,-0.5466,-0.5456,-0.5435,-0.5303,-0.5175,-0.5104,-0.5174,-0.5212,-0.5202,-0.5126,-0.5099,-0.5088,0.0,0.0,0.0,0.0,0.0,0.0,0.0,-0.8612,-0.8612,-0.8612,-0.8641,-0.8694,-0.8694,-0.8694,-0.8694,-0.8694,-0.8694,-0.8771,-0.895,-0.8871,-0.881,-0.8897,-0.7932,-0.7386,-0.7386,-0.6318,-0.5764,-0.5764,-0.5431,-0.5312,-0.5314,-0.5361,-0.5357,-0.5312,-0.5312,-0.5263,-0.5175,-0.5175,-0.5124,-0.5037,-0.499,-0.502,-0.5022,-0.4884,-0.4819,-0.4822,-0.4774,-0.4723,-0.4675,-0.4672,-0.4654,-0.4654,-0.4654,-0.4746,-0.4835,0.0,0.0,0.0,0.0,0.0,0.0,0.0,0.0,0.0,0.0,0.0,0.0,0.0,0.0,-1.0162,-0.9772,0.0,-1.0019,-1.0019,-1.0054,-1.0162,-1.0516,-0.9602,-0.9016,-0.9171,-0.8219,-0.7681,-0.8083,-0.788,-0.7717,-0.7679,-0.7413,-0.6989,-0.6424,-0.6377,-0.6066,-0.5445,-0.5404,-0.5382,-0.5382,-0.5382,-0.5382,-0.5382,-0.5382,-0.5382,-0.5382,-0.5382,-0.5382,-0.5382,-0.5382,-0.5382,-0.5377,-0.5333,-0.5286,-0.5245,-0.5245,-0.519,-0.5102,-0.5057,-0.5041,-0.5035,0.0,0.0,0.0,0.0,0.0,0.0,0.0,-0.8714,-0.8714,-0.8714,-0.8787,-0.8873,-0.8873,-0.8873,-0.8861,-0.8824,-0.882,-0.8897,-0.9084,-0.8684,-0.8508,-0.8623,-0.7232,-0.644,-0.644,-0.5659,-0.5217,-0.5217,-0.5345,-0.5382,-0.5382,-0.5382,-0.5382,-0.5382,-0.5382,-0.5341,-0.5217,-0.5217,-0.5218,-0.5126,-0.5035,-0.5091,-0.521,-0.5042,-0.4823,-0.4587,-0.4496,-0.4404,-0.4376,-0.433,-0.43,-0.43,-0.43,-0.4567,-0.4839,-0.4839,-0.5057,0.0,0.0,0.0,0.0,0.0,0.0,0.0,0.0,0.0,-0.9877,-0.9214,-0.9589,-0.985,-0.9203,-0.9564,-0.9937,-0.9937,-1.0147,-1.0266,-1.0358,-0.9704,-0.9665,-1.0964,-0.9773,-0.9226,-1.0069,-0.9754,-0.9368,-0.914,-0.8702,-0.7983,-0.6988,-0.6932,-0.6657,-0.5935,-0.588,-0.588,-0.588,-0.588,-0.588,-0.588,-0.588,-0.588,-0.588,-0.588,-0.588,-0.588,-0.588,-0.588,-0.588,-0.588,-0.5826,-0.5659,-0.5824,-0.5726,-0.5371,-0.5194,-0.5135,-0.5132,0.0,0.0,0.0,0.0,0.0,0.0,0.0,0.0,-0.9039,-0.9039,-0.9056,-0.9064,-0.9064,-0.9064,-0.8999,-0.8836,-0.882,-0.8897,-0.9084,-0.9211,-0.9336,-0.9468,-0.8094,-0.7346,-0.7346,-0.6032,-0.5365,-0.5365,-0.5375,-0.5382,-0.5382,-0.5382,-0.5382,-0.5382,-0.5382,-0.5375,-0.5365,-0.5365,-0.5312,-0.5166,-0.513,-0.5461,-0.6033,-0.5919,-0.5363,-0.4681,-0.4589,-0.4504,-0.4376,-0.433,-0.43,-0.43,-0.43,-0.479,-0.5327,-0.5327,0.0,-0.6367,-0.685,-0.7023,0.0,-0.6056,-0.6432,-0.6854,0.0,0.0,-0.8453,-0.8357,-0.9193,-0.9877,-0.9823,-0.9994,-1.0184,-1.0184,-1.0286,-1.0358,-1.0379,-0.9798,-0.972,-1.066,-0.9223,-0.818,-0.8306,-0.8251,-0.8195,-0.814,-0.8085,-0.7974,-0.7864,-0.7864,-0.7808,-0.77,-0.77,-0.77,-0.77,-0.77,-0.77,-0.77,-0.77,-0.77,-0.77,-0.77,-0.77,-0.77,-0.77,-0.77,-0.77,-0.77,-0.726,-0.6657,-0.7426,-0.7246,-0.6388,-0.5532,-0.5174,-0.5162,0.0,0.0,0.0,0.0,0.0,0.0,0.0,0.0,0.0,-0.9096,-0.9185,-0.9294,-0.9294,-0.9294,-0.9133,-0.8844,-0.8917,-0.9015,-0.9092,-0.9306,-0.9437,-0.9571,-0.8645,-0.792,-0.7524,-0.6529,-0.5766,-0.5382,-0.5382,-0.5382,-0.5382,-0.5382,-0.5382,-0.5382,-0.5382,-0.5382,-0.5437,-0.5938,-0.5768,-0.5237,-0.5676,-0.5729,-0.5473,-0.5374,-0.5363,-0.5506,-0.5764,-0.5855,0.0,0.0,-0.5542,-0.5542,-0.5542,-0.5816,-0.6147,-0.6147,-0.6424,0.0,-0.6409,0.0,0.0,0.0,-0.6756,-0.7541,-0.7288,-0.8136,-0.8901,-0.8546,-0.9226,-0.9815,-0.9456,-0.9878,-1.0322,0.0,-1.0469,-1.0586,-1.0586,-1.0315,-1.0304,-1.0637,-1.0025,-0.9581,-0.9581,-0.9581,-0.9581,-0.9581,-0.9581,-0.9361,-0.8861,-0.8806,-0.8585,-0.8029,-0.7974,-0.7974,-0.7974,-0.7974,-0.7974,-0.7974,-0.7974,-0.7974,-0.7974,-0.7974,-0.7974,-0.7974,-0.7974,-0.7974,-0.7974,-0.7974,-0.7811,-0.7482,-0.7864,-0.7756,-0.7421,-0.6982,-0.6528,-0.6141,0.0,0.0,0.0,0.0,0.0,0.0,0.0,0.0,0.0,0.0,-0.9352,-0.9477,-0.9477,-0.9433,-0.9277,-0.8922,-0.8974,0.0,0.0,-0.9185,-0.9364,-0.9543,-0.8916,-0.8361,-0.7838,-0.7074,-0.6371,-0.5634,-0.566,-0.5565,-0.5345,-0.5369,-0.5382,-0.5437,-0.5659,-0.5588,-0.5398,-0.6556,-0.6436,-0.5573,-0.6371,-0.638,-0.5936,-0.5576,-0.6066,-0.6903,-0.6578,-0.6591,0.0,0.0,-0.6456,-0.6487,-0.6487,-0.6762,-0.706,-0.706,-0.7343,-0.755,-0.6934,0.0,0.0,-0.6872,-0.743,-0.8251,-0.8158,-0.8796,-0.9245,-0.8845,-0.9433,-0.992,-0.947,-1.0049,-1.0566,-1.0513,-1.0651,-1.0749,-1.07,-1.0692,-1.0692,-1.0692,-1.0692,-1.0692,-1.0692,-1.0692,-1.0692,-1.0692,-1.0741,-1.0489,-0.9876,-0.9857,-0.9601,-0.8927,-0.8871,-0.8851,-0.8814,-0.8811,-0.8791,-0.8751,-0.8751,-0.8751,-0.8751,-0.8751,-0.8751,-0.8751,-0.8751,-0.8751,-0.8751,-0.8751,-0.8582,-0.8416,-0.8637,-0.8582,-0.8416,-0.8637,-0.8036,-0.7154,0.0,0.0,0.0,0.0,0.0,0.0,0.0,0.0,0.0,0.0,0.0,0.0,0.0,-0.9462,-0.9331,-0.9104,-0.893,0.0,0.0,-0.9003,-0.9181,-0.9404,-0.8903,-0.8572,-0.8575,-0.7832,-0.7059,-0.6275,-0.6329,-0.5952,-0.5196,-0.5339,-0.5382,-0.5437,-0.627,-0.6102,-0.5301,-0.7035,-0.7178,-0.6313,-0.7076,-0.7795,-0.8398,-0.7491,-0.8038,-0.9,-0.6498,0.0,0.0,0.0,-0.652,-0.6676,-0.6676,-0.7273,0.0,-0.7944,-0.863,0.0,0.0,0.0,-0.9365,-0.8524,-0.8375,-0.8265,-0.7648,-0.8139,-0.8798,-0.8963,-0.9708,-1.0366,-1.037,-1.0712,-1.0895,-1.0712,-1.0838,-1.0899,-1.0716,-1.0692,-1.0692,-1.0692,-1.0692,-1.0692,0.0,-1.0692,-1.0692,-1.0692,-1.0858,-1.096,-1.096,-1.1061,-1.1146,-1.1089,-1.1089,-1.1069,-1.0904,-1.0904,-1.0815,-1.0637,-1.0637,-1.0637,-1.0637,-1.0637,-1.0637,-1.0637,-1.0637,-1.0637,-1.0637,-1.0637,-1.0135,-0.9416,-1.0304,-1.008,-0.9471,-1.0304,-0.9471,-0.7974,0.0,0.0,0.0,0.0,0.0,0.0,0.0,0.0,0.0,0.0,0.0,0.0,0.0,0.0,0.0,0.0,0.0,0.0,0.0,-0.8877,-0.9043,-0.9388,-0.9227,-0.8954,-0.8616,-0.8361,-0.7858,-0.7106,-0.7096,-0.7012,-0.6746,-0.6786,-0.6805,-0.6808,-0.7073,-0.7051,-0.6799,-0.7968,-0.7886,-0.7079,-0.7907,-0.8039,-0.7641,-0.7202,-0.7702,-0.8449,0.0,0.0,0.0,0.0,-0.796,-0.8091,-0.8091,0.0,-0.8949,-0.9018,-0.9291,-0.9437,0.0,0.0,-0.863,-0.7786,-0.8106,-0.8545,-0.834,-0.8999,-0.9756,-0.9879,-1.0178,-1.0415,-1.0586,-1.0806,-1.0907,-1.072,-1.0846,-1.0907,-1.0716,-1.0692,-1.0692,-1.0692,-1.0802,0.0,0.0,0.0,0.0,-1.0875,-1.1037,-1.1139,-1.1139,-1.1191,-1.1224,-1.1224,-1.1224,-1.1196,-1.1139,-1.1025,-1.0992,-1.0875,-1.0753,-1.0692,-1.0692,-1.0692,-1.0692,-1.0692,-1.0692,-1.0692,-1.0692,-1.0692,-1.0527,-1.0304,-1.0582,-1.0527,-1.0304,-1.0582,-1.0304,-0.9801,0.0,0.0,0.0,0.0,0.0,0.0,0.0,0.0,0.0,0.0,0.0,0.0,0.0,0.0,0.0,0.0,0.0,0.0,0.0,0.0,-0.8922,-0.9153,-0.9277,-0.9159,-0.8896,-0.8903,-0.8524,-0.7801,-0.7852,-0.7795,-0.7527,-0.7527,-0.7551,-0.7596,-0.7864,-0.7762,-0.7559,-0.8702,-0.8614,-0.7816,-0.8675,-0.8585,-0.7943,-0.755,-0.7835,0.0,0.0,0.0,0.0,-0.8694,-0.8775,0.0,-0.8991,-0.9214,-0.9474,-0.9596,-0.9579,-0.948,-0.8981,-0.8832,-0.8744,-0.8296,-0.8636,-0.9148,-0.9272,-0.9803,-1.031,-1.0489,-1.0526,-1.0562,-1.0672,-1.0895,-1.098,-1.0733,-1.0899,-1.0972,-1.0724,-1.0749,-1.0789,-1.0789,-1.0948,0.0,0.0,0.0,0.0,-1.1066,-1.1224,-1.1321,-1.1321,-1.1382,-1.1419,-1.1419,-1.1419,-1.1386,-1.1321,-1.1147,-1.0997,-1.0871,-1.0749,-1.0692,-1.0692,-1.0692,-1.0692,-1.0692,-1.0692,-1.0692,-1.0692,-1.0692,-1.0692,-1.0692,-1.0692,-1.0692,-1.0692,-1.0692,-1.0692,-1.0692,0.0,0.0,0.0,0.0,0.0,0.0,0.0,0.0,0.0,0.0,0.0,0.0,0.0,0.0,0.0,0.0,0.0,0.0,0.0,0.0,0.0,-0.882,-0.8991,-0.9165,-0.9384,-0.9388,-0.9086,-0.8456,-0.856,-0.8296,-0.7697,-0.7599,-0.7725,-0.7898,-0.8555,-0.836,-0.761,-0.9186,-0.9295,-0.8506,-0.9251,-0.9498,-0.9292,-0.8509,0.0,0.0,0.0,0.0,0.0,0.0,0.0,0.0,0.0,-0.9486,-0.9579,-0.9579,-0.9579,-0.9579,-0.9579,-0.9583,-0.9681,-0.9843,-0.99,-1.0006,-1.0355,-1.0387,-1.0493,-1.066,-1.0692,-1.0692,0.0,0.0,-1.1098,-1.0761,-1.0988,-1.109,-1.0753,-1.0858,-1.1024,0.0,0.0,0.0,0.0,0.0,0.0,-1.1265,0.0,-1.1516,-1.1516,-1.1683,-1.1776,-1.1776,-1.1776,-1.1691,-1.1516,-1.1321,-1.1049,-1.0708,-1.0696,-1.0692,-1.0692,-1.0692,-1.0692,-1.0692,-1.0692,-1.0692,-1.0692,-1.0692,-1.0692,-1.0692,-1.0692,-1.0692,-1.0692,-1.0692,-1.0692,-1.0692,0.0,0.0,0.0,0.0,0.0,0.0,0.0,0.0,0.0,0.0,0.0,0.0,0.0,0.0,0.0,0.0,0.0,0.0,0.0,0.0,0.0,0.0,0.0,0.0,0.0,0.0,0.0,-0.8898,-0.8941,-0.8889,-0.8738,-0.886,-0.8939,-0.8977,-0.9182,-0.9139,-0.8893,-0.9208,-0.9176,-0.8946,0.0,-0.9206,-0.9149,0.0,0.0,0.0,0.0,0.0,0.0,0.0,0.0,0.0,0.0,-0.9592,-0.9579,-0.9579,-0.9579,-0.9579,-0.9579,-0.9721,-0.9827,-0.9876,-1.0091,-1.0265,-1.0358,-1.0534,-1.0639,-1.0684,-1.0692,-1.0692,0.0,0.0,0.0,-1.0915,-1.0976,0.0,-1.0967,-1.0996,0.0,0.0,0.0,-1.1427,-1.1427,-1.1598,0.0,0.0,-1.1679,-1.1707,-1.1707,-1.1752,-1.1776,-1.1776,-1.1776,-1.1752,-1.1707,-1.1382,-1.1114,-1.0895,-1.0757,-1.0692,-1.0692,-1.0692,-1.0692,-1.0692,-1.0692,-1.0692,-1.0692,-1.0692,-1.0692,-1.0692,-1.0692,-1.0692,-1.0692,-1.0692,-1.0692,-1.0692,0.0,0.0,0.0,0.0,0.0,0.0,0.0,0.0,0.0,0.0,0.0,0.0,0.0,0.0,0.0,0.0,0.0,0.0,0.0,0.0,0.0,0.0,0.0,0.0,0.0,0.0,0.0,0.0,0.0,0.0,-0.921,-0.9282,-0.9331,-0.94,-0.9322,-0.929,-0.9282,-0.9137,0.0,0.0,0.0,0.0,0.0,0.0,0.0,0.0,0.0,0.0,0.0,0.0,0.0,-0.9641,-0.962,-0.9681,-0.9726,-0.9648,0.0,-0.9595,-0.9721,-0.9811,-0.9925,-1.0087,-1.0282,-1.0399,-1.053,-1.0623,-1.0692,-1.0692,-1.0692,0.0,0.0,0.0,0.0,0.0,0.0,0.0,-1.107,-1.1082,-1.111,0.0,-1.1451,0.0,-1.1622,-1.1715,-1.1776,0.0,-1.1776,-1.1776,-1.1776,-1.1776,-1.1776,-1.1776,-1.1776,-1.174,-1.1654,-1.1447,-1.1256,-1.1078,-1.0899,-1.0814,-1.081,-1.0729,-1.0692,-1.0692,0.0,-1.0692,-1.0692,-1.0692,-1.0692,-1.0692,-1.0692,-1.0692,-1.0692,-1.0692,-1.0692,-1.0692,0.0,0.0,0.0,0.0,0.0,0.0,0.0,0.0,0.0,0.0,0.0,0.0,0.0,0.0,0.0,0.0,0.0,0.0,0.0,0.0,0.0,0.0,0.0,0.0,0.0,0.0,0.0,0.0,0.0,0.0,0.0,0.0,0.0,0.0,0.0,0.0,0.0,0.0,0.0,0.0,0.0,0.0,0.0,0.0,0.0,0.0,0.0,0.0,0.0,0.0,-0.9726,-0.9823,-0.9673,-0.973,-0.9819,-0.9669,-0.9595,-0.9693,-0.9843,-0.992,-1.0034,-1.0355,-1.0399,-1.0509,-1.066,-1.0692,-1.0692,-1.0692,0.0,0.0,-1.0692,0.0,-1.0948,-1.0997,0.0,-1.1009,-1.1228,-1.1236,-1.1289,-1.148,-1.1663,-1.1776,-1.1776,-1.1776,-1.1776,-1.1776,-1.1776,-1.1776,-1.1776,-1.1776,-1.1776,-1.1776,-1.1776,-1.1699,-1.1537,-1.1512,-1.1419,-1.1256,-1.1086,-1.1005,-1.0997,-1.0838,-1.0749,-1.0729,-1.0729,0.0,-1.0692,-1.0692,-1.0692,-1.0692,-1.0692,-1.0692,-1.0692,-1.0692,-1.0692,-1.0692,0.0,0.0,0.0,0.0,0.0,0.0,0.0,0.0,0.0,0.0,-0.9453,-0.9453,0.0,0.0,0.0,0.0,0.0,0.0,0.0,0.0,0.0,0.0,0.0,0.0,0.0,0.0,0.0,0.0,0.0,0.0,0.0,0.0,0.0,0.0,0.0,0.0,0.0,0.0,0.0,0.0,0.0,0.0,0.0,0.0,0.0,0.0,0.0,0.0,0.0,0.0,-0.9648,-0.9665,-0.9587,-0.9599,-0.9665,-0.9587,-0.973,-0.9847,-0.9876,-1.0107,-1.0355,-1.0366,-1.0542,-1.0655,-1.0684,-1.0692,0.0,0.0,0.0,-1.0692,-1.0692,-1.0716,0.0,-1.1131,0.0,0.0,0.0,0.0,-1.1289,0.0,0.0,0.0,0.0,0.0,0.0,0.0,0.0,-1.1776,-1.1776,-1.1776,-1.1776,-1.1776,-1.1776,-1.176,-1.1732,-1.1577,-1.1484,-1.1447,-1.1265,-1.1179,-1.1179,-1.1147,-1.1053,-1.0975,-1.0975,0.0,-1.0692,-1.0692,-1.0692,-1.0692,-1.0692,-1.0692,-1.0692,-1.0692,-1.0692,-1.0692,0.0,0.0,0.0,0.0,0.0,0.0,0.0,-0.9579,-0.9563,-0.9424,-0.9326,-0.9222,-0.9222,-0.906,0.0,0.0,0.0,0.0,0.0,0.0,0.0,0.0,0.0,0.0,0.0,0.0,0.0,0.0,0.0,0.0,0.0,0.0,0.0,0.0,0.0,0.0,0.0,0.0,0.0,0.0,0.0,0.0,0.0,0.0,0.0,0.0,0.0,0.0,0.0,0.0,-0.9579,-0.9579,-0.9579,-0.9689,-0.9762,-0.9762,-0.9819,-0.9929,-1.0119,-1.0298,-1.0456,-1.0546,-1.0631,-1.0692,-1.0692,0.0,0.0,0.0,0.0,-1.0692,-1.0692,0.0,0.0,0.0,0.0,0.0,0.0,0.0,0.0,0.0,0.0,0.0,0.0,0.0,0.0,0.0,0.0,-1.1776,-1.1776,-1.1776,-1.1776,-1.1776,-1.1776,-1.1776,-1.1776,-1.1691,-1.1646,-1.1642,-1.1455,-1.1366,-1.1362,-1.1269,-1.1179,-1.1098,-1.1098,0.0,-1.096,-1.0871,-1.0838,-1.0826,-1.0729,-1.0692,-1.0692,-1.0692,-1.0692,-1.0692,0.0,0.0,0.0,0.0,0.0,0.0,0.0,-0.9579,-0.9563,-0.9424,-0.9206,-0.9084,-0.9043,-0.8877,-0.8767,0.0,0.0,0.0,0.0,0.0,0.0,0.0,0.0,0.0,0.0,0.0,0.0,0.0,0.0,0.0,0.0,0.0,0.0,0.0,0.0,0.0,0.0,0.0,0.0,0.0,0.0,0.0,0.0,0.0,0.0,0.0,0.0,0.0,0.0,0.0,-0.9579,-0.9579,-0.9579,-0.9721,-0.9839,-0.9876,-0.9912,-1.0018,-1.0347,-1.0411,-1.0521,-1.066,-1.0692,-1.0692,-1.0692,-1.0692,0.0,0.0,-1.0692,-1.0692,-1.0692,0.0,0.0,0.0,0.0,0.0,0.0,0.0,0.0,0.0,0.0,0.0,0.0,0.0,0.0,0.0,0.0,0.0,-1.1776,-1.1776,-1.1776,-1.1776,-1.1776,-1.1776,-1.1776,-1.1776,-1.1776,-1.1776,-1.163,-1.1557,-1.1553,-1.1407,-1.1321,-1.1281,-1.1281,0.0,0.0,-1.1078,-1.1025,-1.1005,-1.0822,-1.0753,-1.0749,-1.0708,-1.0692,-1.0692,0.0,0.0,0.0,0.0,0.0,0.0,0.0,-0.9579,-0.9563,-0.9424,-0.9206,-0.9035,-0.8865,-0.8694,-0.8637,0.0,0.0,0.0,0.0,0.0,0.0,0.0,0.0,0.0,0.0,0.0,0.0,0.0,0.0,0.0,0.0,0.0,0.0,0.0,0.0,0.0,0.0,0.0,0.0,0.0,0.0,0.0,0.0,0.0,0.0,0.0,0.0,0.0,0.0,0.0,0.0,-0.9579,-0.9579,-0.9591,-0.9681,-0.9839,0.0,0.0,-1.0379,-1.055,-1.0672,-1.0688,-1.0692,-1.0692,-1.0692,0.0,0.0,-1.0692,-1.0692,-1.0692,-1.0692,-1.0692,0.0,0.0,0.0,0.0,0.0,0.0,0.0,0.0,0.0,0.0,0.0,0.0,0.0,0.0,0.0,0.0,-1.1776,-1.1776,-1.1776,-1.1776,-1.1776,-1.1776,-1.1776,-1.1776,-1.1776,-1.1776,-1.176,-1.1752,-1.1752,-1.1736,-1.1634,-1.1472,-1.1472,0.0,0.0,-1.1204,-1.12,-1.1183,-1.1013,-1.0944,-1.0923,-1.0753,-1.0692,-1.0692,0.0,0.0,0.0,0.0,0.0,0.0,-0.9579,-0.9579,-0.9563,-0.9424,-0.9343,-0.9185,-0.9007,-0.8828,-0.8678,0.0,0.0,0.0,0.0,0.0,0.0,0.0,0.0,0.0,0.0,0.0,0.0,0.0,0.0,0.0,0.0,0.0,0.0,0.0,0.0,0.0,0.0,0.0,0.0,0.0,0.0,0.0,0.0,0.0,0.0,0.0,0.0,0.0,0.0,0.0,0.0,0.0,-0.9579,-0.9579,0.0,0.0,-1.0018,-1.0253,-1.0383,-1.0562,-1.0692,-1.0692,-1.0692,-1.0692,-1.0692,0.0,0.0,-1.0692,-1.0692,-1.0692,-1.0692,-1.0692,-1.0716,0.0,0.0,0.0,0.0,0.0,0.0,0.0,0.0,0.0,0.0,0.0,0.0,0.0,0.0,0.0,-1.1776,-1.1776,-1.1776,-1.1776,-1.1776,-1.1776,-1.1776,-1.1776,-1.1776,-1.1776,-1.1776,-1.1776,-1.1776,-1.1776,-1.1736,-1.1667,-1.1667,0.0,0.0,-1.1435,-1.1386,-1.137,-1.1191,-1.1122,-1.1098,-1.0923,-1.0858,-1.0842,0.0,0.0,0.0,0.0,0.0,-0.9579,-0.9579,-0.9579,-0.9579,-0.9449,-0.9437,-0.9355,-0.9185,-0.9011,-0.8832,-0.8658,0.0,0.0,0.0,0.0,0.0,0.0,0.0,0.0,0.0,0.0,0.0,0.0,0.0,0.0,0.0,0.0,0.0,0.0,0.0,0.0,0.0,0.0,0.0,0.0,0.0,0.0,0.0,0.0,0.0,0.0,0.0,0.0,0.0,0.0,0.0,0.0,0.0,0.0,0.0,0.0,-1.0018,-1.0253,-1.0383,-1.0562,-1.0692,-1.0692,-1.0692,-1.0692,0.0,0.0,-1.0692,-1.0692,-1.0692,-1.0692,-1.0692,-1.0692,-1.0692,0.0,0.0,0.0,0.0,0.0,0.0,0.0,0.0,0.0,0.0,0.0,0.0,0.0,0.0,0.0,-1.1776,-1.1776,-1.1776,-1.1776,-1.1776,-1.1776,-1.1776,-1.1776,-1.1776,-1.1776,-1.1776,-1.1776,-1.1776,-1.1776,-1.1776,-1.1776,-1.1776,0.0,0.0,-1.1634,-1.1581,-1.1565,-1.1374,-1.1301,-1.1281,-1.111,-1.1013,-1.1008,0.0,0.0,0.0,0.0,0.0,0.0,-0.9579,-0.9579,-0.9579,-0.9575,-0.947,-0.9404,-0.94,-0.9198,-0.9019,-0.8832,0.0,0.0,0.0,0.0,0.0,0.0,0.0,0.0,0.0,0.0,0.0,0.0,0.0,0.0,0.0,0.0,0.0,0.0,0.0,0.0,0.0,0.0,0.0,0.0,0.0,0.0,0.0,0.0,0.0,0.0,0.0,0.0,0.0,0.0,0.0,0.0,0.0,0.0,0.0,0.0,-1.0018,-1.0253,-1.0383,-1.0562,-1.0692,-1.0692,-1.0692,-1.0692,0.0,0.0,-1.0692,-1.0692,-1.0692,-1.0692,-1.0692,-1.0692,-1.0692,-1.0692,0.0,0.0,0.0,0.0,0.0,0.0,0.0,0.0,0.0,0.0,0.0,0.0,0.0,0.0,-1.1776,-1.1776,-1.1776,-1.1776,-1.1776,-1.1776,-1.1776,-1.1776,-1.1776,-1.1776,-1.1776,-1.1776,-1.1776,-1.1776,-1.1776,0.0,0.0,0.0,0.0,-1.1776,-1.1776,-1.1756,-1.1569,-1.1496,-1.1472,-1.1289,-1.1114,-1.1024,0.0,0.0,0.0,0.0,0.0,0.0,0.0,-0.9579,-0.9579,-0.9579,-0.9575,-0.9543,-0.9543,-0.938,-0.9298,-0.9237,0.0,0.0,0.0,0.0,0.0,0.0,0.0,0.0,0.0,0.0,-0.8612,-0.8612,-0.8612,0.0,0.0,0.0,0.0,0.0,0.0,0.0,0.0,0.0,0.0,0.0,0.0,0.0,0.0,0.0,0.0,0.0,0.0,0.0,0.0,0.0,0.0,0.0,0.0,0.0,0.0,-0.9693,-0.9831,-1.0014,-1.0197,-1.0379,-1.0546,-1.0664,-1.0692,-1.0692,-1.0692,0.0,-1.0692,-1.0692,-1.0692,-1.0692,-1.0692,-1.0692,-1.0737,-1.0858,-1.1074,0.0,0.0,0.0,0.0,0.0,0.0,0.0,0.0,0.0,0.0,0.0,0.0,0.0,-1.1776,-1.1776,-1.1776,-1.1776,-1.1776,-1.1776,-1.1776,-1.1776,-1.1776,-1.1776,-1.1776,-1.1776,-1.1776,-1.1776,-1.1776,0.0,0.0,0.0,0.0,-1.1776,-1.1776,-1.1768,-1.1711,-1.1691,-1.1667,-1.148,-1.1378,-1.1297,0.0,0.0,0.0,0.0,0.0,0.0,0.0,-0.9579,-0.9579,-0.9579,-0.9579,-0.9579,-0.9579,-0.9527,-0.9477,-0.9408,0.0,0.0,0.0,0.0,0.0,0.0,0.0,0.0,0.0,-0.8612,-0.8612,-0.8612,-0.8612,-0.8612,-0.8612,-0.8612,0.0,0.0,0.0,0.0,0.0,0.0,0.0,0.0,0.0,0.0,-0.9424,0.0,0.0,0.0,0.0,0.0,0.0,0.0,0.0,0.0,0.0,0.0,0.0,0.0,-0.9701,-0.9827,0.0,-1.0241,-1.0407,-1.0566,-1.0643,0.0,0.0,0.0,-1.0692,-1.0692,-1.0692,-1.0692,-1.0692,-1.0692,-1.0753,-1.0996,-1.1114,0.0,0.0,0.0,0.0,0.0,0.0,0.0,0.0,0.0,0.0,0.0,0.0,0.0,-1.1776,-1.1776,-1.1776,-1.1776,-1.1776,-1.1776,-1.1776,-1.1776,-1.1776,-1.1776,-1.1776,-1.1776,-1.1776,-1.1776,-1.1776,0.0,0.0,0.0,0.0,-1.1776,-1.1776,-1.1776,-1.1776,-1.1776,-1.176,-1.1646,-1.1561,-1.1468,0.0,0.0,0.0,0.0,0.0,0.0,0.0,-0.9579,-0.9579,-0.9579,-0.9579,-0.9579,-0.9579,-0.9579,-0.9559,-0.9437,0.0,0.0,0.0,0.0,0.0,0.0,0.0,0.0,0.0,-0.8612,-0.8616,-0.8629,-0.8629,-0.8637,-0.8649,-0.8649,-0.8641,-0.8629,0.0,0.0,0.0,0.0,0.0,0.0,0.0,-0.9218,0.0,0.0,0.0,0.0,0.0,0.0,0.0,0.0,0.0,0.0,0.0,0.0,0.0,0.0,0.0,0.0,0.0,-1.0136,-1.0366,-1.0379,-1.0562,-1.0692,0.0,0.0,0.0,-1.0692,-1.0692,-1.0692,-1.0692,-1.0704,-1.0773,-1.0956,-1.1131,0.0,0.0,0.0,0.0,0.0,0.0,0.0,0.0,0.0,0.0,0.0,0.0,0.0,-1.1776,-1.1776,-1.1776,-1.1776,-1.1776,-1.1776,-1.1776,-1.1776,-1.1776,-1.1776,-1.1776,-1.1776,-1.1776,-1.1776,-1.1776,0.0,0.0,0.0,0.0,-1.1776,-1.1776,-1.1776,-1.1776,-1.1776,-1.1776,-1.1776,-1.1667,-1.1516,0.0,0.0,0.0,0.0,0.0,0.0,0.0,0.0,0.0,0.0,-0.9579,-0.9579,-0.9579,-0.9579,-0.9612,0.0,0.0,0.0,0.0,0.0,0.0,0.0,0.0,0.0,0.0,-0.8612,-0.8629,-0.8763,-0.8763,-0.8832,-0.8974,-0.8974,-0.8897,-0.8763,-0.8763,-0.8763,-0.8771,0.0,0.0,0.0,-0.9326,-0.9401,0.0,0.0,0.0,0.0,-0.9579,-0.9579,0.0,0.0,0.0,0.0,0.0,0.0,0.0,0.0,-0.9579,-0.9587,-0.9677,0.0,-1.0262,-1.0346,-1.0562,-1.0692,0.0,0.0,0.0,0.0,0.0,-1.0692,-1.0692,-1.0806,-1.096,-1.1135,-1.1317,0.0,0.0,0.0,0.0,0.0,0.0,0.0,0.0,0.0,0.0,0.0,0.0,-1.1776,-1.1776,-1.1776,-1.1776,-1.1776,-1.1776,-1.1776,-1.1776,-1.1776,-1.1776,-1.1776,-1.1776,-1.1776,-1.1776,-1.1776,-1.1776,0.0,0.0,0.0,-1.1776,-1.1776,-1.1776,-1.1776,-1.1776,-1.1776,-1.1776,-1.1776,-1.1748,-1.1691,0.0,0.0,0.0,0.0,0.0,0.0,0.0,0.0,0.0,0.0,0.0,0.0,0.0,0.0,0.0,0.0,0.0,0.0,0.0,0.0,0.0,0.0,0.0,0.0,-0.8971,-0.8898,-0.8893,-0.9068,-0.8986,-0.8999,-0.9096,-0.9096,-0.9043,-0.895,-0.895,-0.8897,-0.8832,-0.9019,-0.9198,-0.9404,-0.9404,0.0,0.0,0.0,0.0,0.0,-0.9579,-0.9579,0.0,-0.9579,-0.9579,-0.9579,0.0,0.0,0.0,0.0,-0.9579,-0.9579,-0.9579,-0.9888,-1.0237,-1.0286,-1.0501,-1.0692,-1.0692,0.0,0.0,0.0,0.0,0.0,-1.0692,0.0,0.0,0.0,0.0,0.0,0.0,0.0,0.0,0.0,0.0,0.0,0.0,0.0,0.0,0.0,0.0,-1.1776,-1.1776,-1.1776,-1.1776,-1.1776,-1.1776,-1.1776,-1.1776,-1.1776,-1.1776,-1.1776,-1.1776,-1.1776,-1.1776,-1.1776,-1.1776,0.0,0.0,0.0,-1.1776,-1.1776,-1.1776,-1.1776,-1.1776,-1.1776,-1.1776,-1.1776,-1.1776,-1.176,0.0,0.0,0.0,0.0,0.0,0.0,0.0,0.0,0.0,0.0,0.0,0.0,0.0,0.0,0.0,0.0,0.0,0.0,0.0,0.0,0.0,0.0,0.0,-0.9194,-0.9359,-0.9198,-0.921,-0.9404,-0.921,-0.9149,-0.9177,-0.9177,-0.9165,-0.9137,-0.9137,-0.9047,-0.8913,-0.91,-0.9263,-0.9445,-0.9445,0.0,0.0,0.0,0.0,0.0,0.0,0.0,0.0,-0.9579,-0.9579,-0.9579,-0.9579,0.0,0.0,0.0,0.0,0.0,-0.9579,-0.9888,-1.0212,-1.0212,-1.0428,-1.0692,-1.0692,0.0,0.0,0.0,0.0,0.0,0.0,0.0,0.0,0.0,0.0,0.0,0.0,0.0,0.0,0.0,0.0,0.0,0.0,0.0,0.0,0.0,0.0,-1.1776,-1.1776,-1.1776,-1.1776,-1.1776,-1.1776,-1.1776,-1.1776,-1.1776,-1.1776,-1.1776,-1.1776,-1.1776,-1.1776,-1.1776,-1.1776,-1.1776,0.0,0.0,-1.1776,-1.1776,-1.1776,-1.1776,-1.1776,-1.1776,-1.1776,-1.1776,-1.1776,-1.1776,0.0,0.0,0.0,0.0,0.0,0.0,0.0,0.0,0.0,0.0,0.0,0.0,0.0,0.0,0.0,0.0,0.0,0.0,0.0,0.0,0.0,0.0,-0.9397,-0.9306,-0.9141,-0.9302,-0.9375,-0.9404,-0.9375,-0.9393,-0.9547,-0.9547,-0.9462,-0.9363,-0.9363,-0.9347,-0.9331,-0.947,-0.9563,-0.9587,-0.9587,0.0,0.0,0.0,0.0,0.0,0.0,0.0,0.0,-0.9579,-0.9579,-0.9579,-0.9579,0.0,0.0,0.0,0.0,0.0,-0.9579,-0.9888,-1.0212,-1.0212,-1.0428,-1.0692,0.0,0.0,0.0,0.0,0.0,0.0,0.0,0.0,0.0,0.0,0.0,0.0,0.0,0.0,0.0,0.0,0.0,0.0,0.0,0.0,0.0,0.0,0.0,-1.1776,-1.1776,-1.1776,-1.1776,-1.1776,-1.1776,-1.1776,-1.1776,-1.1776,-1.1776,-1.1776,-1.1776,-1.1776,-1.1776,-1.1776,-1.1776,-1.1776,0.0,-1.1776,-1.1776,-1.1776,-1.1776,-1.1776,-1.1776,-1.1776,-1.1776,-1.1776,-1.1776,-1.1776,0.0,0.0,0.0,0.0,0.0,0.0,0.0,0.0,0.0,0.0,0.0,0.0,0.0,0.0,0.0,0.0,0.0,0.0,0.0,0.0,0.0,-0.9579,-0.9636,-0.9604,-0.9527,-0.96,-0.969,-0.969,-0.9547,-0.9547,-0.9579,-0.9579,-0.9531,-0.9408,-0.9458,-0.9445,-0.9416,-0.9551,-0.9579,-0.9579,0.0,0.0,0.0,0.0,0.0,0.0,0.0,0.0,0.0,0.0,-0.9579,-0.9579,-0.9579,0.0,0.0,0.0,0.0,0.0,-0.9742,-0.9957,-1.0237,-1.0282,-1.0501,0.0,0.0,0.0,0.0,0.0,0.0,0.0,0.0,0.0,0.0,0.0,0.0,0.0,0.0,0.0,0.0,0.0,0.0,0.0,0.0,0.0,0.0,0.0,0.0,0.0,-1.1776,-1.1776,-1.1776,-1.1776,-1.1776,-1.1776,-1.1776,-1.1776,-1.1776,-1.1776,-1.1776,-1.1776,-1.1776,-1.1776,-1.1776,-1.1776,0.0,-1.1776,-1.1776,-1.1776,-1.1776,-1.1776,-1.1776,-1.1776,-1.1776,-1.1776,-1.1776,-1.1776,0.0,0.0,0.0,0.0,0.0,0.0,0.0,0.0,0.0,0.0,0.0,0.0,0.0,0.0,0.0,0.0,0.0,0.0,0.0,0.0,-0.9579,-0.9579,-0.9791,-0.9864,-0.9823,-0.9864,-0.9864,-0.9823,-0.9693,-0.9579,-0.9579,-0.9579,-0.9551,-0.9473,-0.9563,-0.9551,-0.9477,-0.9567,-0.9579,-0.9579,0.0,0.0,0.0,0.0,0.0,0.0,0.0,0.0,0.0,0.0,0.0,0.0,0.0,0.0,0.0,-0.9579,-0.9579,-0.9665,-0.9839,-1.0073,-1.0205,-1.0387,0.0,0.0,0.0,0.0,0.0,0.0,0.0,0.0,0.0,0.0,0.0,0.0,0.0,0.0,0.0,0.0,0.0,0.0,0.0,0.0,0.0,0.0,0.0,0.0,0.0,0.0,-1.1776,-1.1776,-1.1776,-1.1776,-1.1776,-1.1776,-1.1776,-1.1776,-1.1776,-1.1776,-1.1776,-1.1776,-1.1776,-1.1776,-1.1776,-1.1776,-1.1776,-1.1776,-1.1776,-1.1776,-1.1776,-1.1776,-1.1776,-1.1776,-1.1776,-1.1776,-1.1776,-1.1776,0.0,0.0,0.0,0.0,0.0,0.0,0.0,0.0,0.0,0.0,0.0,0.0,0.0,0.0,0.0,0.0,0.0,0.0,0.0,0.0,-0.9579,-0.9579,-0.9791,-0.9811,-0.9648,-0.9803,-0.9807,-0.9599,-0.9583,-0.9579,-0.9579,-0.9579,-0.9571,-0.9608,-0.9571,-0.9571,-0.9608,-0.9571,-0.9579,-0.9579,-0.9579,0.0,0.0,0.0,0.0,0.0,0.0,0.0,0.0,0.0,0.0,0.0,0.0,0.0,-0.9579,-0.9579,-0.9579,-0.9665,-0.9839,-1.0073,-1.0205,-1.0387,0.0,0.0,0.0,0.0,0.0,0.0,0.0,0.0,0.0,0.0,0.0,0.0,0.0,0.0,0.0,0.0,0.0,0.0,0.0,0.0,0.0,0.0,0.0,0.0,0.0,0.0,-1.1776,-1.1776,-1.1776,-1.1776,-1.1776,-1.1776,-1.1776,-1.1776,-1.1776,-1.1776,-1.1776,-1.1776,-1.1776,-1.1776,-1.1776,-1.1776,-1.1776,-1.1776,-1.1776,-1.1776,-1.1776,-1.1776,-1.1776,-1.1776,-1.1776,-1.1776,-1.1776,-1.1776,0.0,0.0,0.0,0.0,0.0,0.0,0.0,0.0,0.0,0.0,0.0,0.0,0.0,0.0,0.0,0.0,0.0,0.0,0.0,0.0,-0.9579,-0.9579,-0.9689,-0.9693,-0.9579,-0.9799,-0.9803,-0.9579,-0.9579,-0.9579,-0.9579,-0.9579,-0.9579,-0.9579,-0.9579,-0.9579,-0.9579,-0.9579,-0.9579,-0.9579,-0.9579,-0.9579,0.0,0.0,0.0,0.0,0.0,0.0,0.0,0.0,-0.9579,-0.9579,0.0,-0.9579,-0.9579,-0.9579,-0.9701,-0.9827,-1.001,-1.0188,-1.0375,-1.055,0.0,0.0,0.0,0.0,0.0,0.0,0.0,0.0,0.0,0.0,0.0,0.0,0.0,0.0,0.0,0.0,0.0,0.0,0.0,0.0,0.0,0.0,0.0,0.0,0.0,0.0,-1.1776,-1.1776,-1.1776,-1.1776,-1.1776,-1.1776,-1.1776,-1.1776,-1.1776,-1.1776,-1.1776,-1.1776,-1.1776,-1.1776,-1.1776,-1.1776,-1.1776,-1.1776,-1.1776,-1.1776,-1.1776,-1.1776,-1.1776,-1.1776,-1.1776,-1.1776,-1.1776,-1.1776,0.0,0.0,0.0,0.0,0.0,0.0,0.0,0.0,0.0,0.0,0.0,0.0,0.0,0.0,0.0,0.0,0.0,0.0,0.0,-0.9579,-0.9579,-0.9579,-0.9579,-0.9579,-0.9579,-0.9742,-0.9746,-0.9579,-0.9579,-0.9579,-0.9579,-0.9579,-0.9579,-0.9579,-0.9579,-0.9579,-0.9579,-0.9579,-0.9579,-0.9579,-0.9579,-0.9579,0.0,0.0,0.0,0.0,0.0,0.0,0.0,0.0,-0.9579,-0.9579,0.0,0.0,-0.9579,-0.9579,-0.975,-0.9925,-1.0163,-1.0298,-1.0477,0.0,0.0,0.0,0.0,0.0,0.0,0.0,0.0,0.0,0.0,0.0,0.0,0.0,0.0,0.0,0.0,0.0,0.0,0.0,0.0,0.0,0.0,0.0,0.0,0.0,0.0,0.0,0.0,-1.1776,-1.1776,-1.1776,-1.1776,-1.1776,-1.1776,-1.1776,-1.1776,-1.1776,-1.1776,-1.1776,-1.1776,-1.1776,-1.1776,-1.1776,-1.1776,-1.1776,-1.1776,-1.1776,-1.1776,-1.1776,-1.1776,-1.1776,-1.1776,-1.1776,-1.1776,-1.1776,0.0,0.0,0.0,0.0,0.0,0.0,0.0,0.0,0.0,0.0,0.0,0.0,0.0,0.0,0.0,0.0,0.0,0.0,-0.9579,-0.9579,-0.9579,-0.9579,-0.9579,-0.9579,-0.9579,-0.9579,-0.9579,-0.9579,-0.9579,-0.9579,-0.9579,-0.9579,-0.9579,-0.9579,-0.9579,-0.9579,-0.9579,-0.9579,-0.9579,-0.9579,-0.9579,-0.9579,-0.9579,0.0,0.0,0.0,0.0,0.0,0.0,0.0,-0.9579,-0.9579,0.0,0.0,0.0,-0.9579,-0.975,-0.9929,-1.0167,-1.0298,0.0,0.0,0.0,0.0,0.0,0.0,0.0,0.0,0.0,0.0,0.0,0.0,0.0,0.0,0.0,0.0,0.0,0.0,0.0,0.0,0.0,0.0,0.0,0.0,0.0,0.0,0.0,0.0,0.0,-1.1776,-1.1776,-1.1776,-1.1776,-1.1776,-1.1776,-1.1776,-1.1776,-1.1776,-1.1776,-1.1776,-1.1776,-1.1776,-1.1776,-1.1776,-1.1776,-1.1776,-1.1776,-1.1776,-1.1776,-1.1776,-1.1776,-1.1776,-1.1776,-1.1776,-1.1776,-1.1776,0.0,0.0,0.0,0.0,0.0,0.0,0.0,0.0,0.0,0.0,0.0,0.0,0.0,0.0,0.0,0.0,0.0,0.0,-0.9579,-0.9579,-0.9579,-0.9579,-0.9579,-0.9579,-0.9579,-0.9579,-0.9579,-0.9579,-0.9579,-0.9579,-0.9579,-0.9579,-0.9579,-0.9579,-0.9579,-0.9579,-0.9579,-0.9579,-0.9579,-0.9579,-0.9579,-0.9579,-0.9579,0.0,0.0,0.0,0.0,0.0,0.0,0.0,0.0,0.0,-0.9579,0.0,0.0,-0.9774,-0.9937,-1.0119,-1.0306,-1.0481,0.0,0.0,0.0,0.0,0.0,0.0,0.0,0.0,0.0,0.0,0.0,0.0,0.0,0.0,0.0,0.0,0.0,0.0,0.0,0.0,0.0,0.0,0.0,0.0,0.0,0.0,0.0,0.0,0.0,-1.1776,-1.1776,-1.1776,-1.1776,-1.1776,-1.1776,-1.1776,-1.1776,-1.1776,-1.1776,-1.1776,-1.1776,-1.1776,-1.1776,-1.1776,-1.1776,-1.1776,-1.1776,-1.1776,-1.1776,-1.1776,-1.1776,-1.1776,-1.1776,-1.1776,-1.1776,-1.1776,0.0,0.0,0.0,0.0,0.0,0.0,0.0,0.0,0.0,0.0,-0.9579,-0.9579,0.0,0.0,0.0,0.0,0.0,0.0,0.0,0.0,-0.9579,-0.9579,-0.9579,-0.9579,-0.9579,-0.9579,-0.9579,-0.9579,-0.9579,-0.9579,-0.9579,-0.9579,-0.9579,-0.9579,-0.9579,-0.9579,-0.9579,-0.9579,-0.9579,-0.9579,-0.9579,-0.9579,-0.9579,0.0,0.0,0.0,0.0,0.0,0.0,0.0,0.0,0.0,-0.9579,0.0,0.0,-0.9855,-1.0067,-1.0294,-1.0404,0.0,0.0,0.0,0.0,0.0,0.0,0.0,0.0,0.0,0.0,0.0,0.0,0.0,0.0,0.0,0.0,0.0,0.0,0.0,0.0,0.0,0.0,0.0,0.0,0.0,0.0,0.0,0.0,0.0,0.0,-1.1776,-1.1776,-1.1776,-1.1776,-1.1776,-1.1776,-1.1776,-1.1776,-1.1776,-1.1776,-1.1776,-1.1776,-1.1776,-1.1776,-1.1776,-1.1776,-1.1776,-1.1776,-1.1776,-1.1776,-1.1776,-1.1776,-1.1776,-1.1776,-1.1776,-1.1776,-1.1776,0.0,0.0,-1.125,-1.1201,0.0,0.0,0.0,0.0,0.0,0.0,-0.9747,-0.9694,0.0,0.0,0.0,0.0,0.0,0.0,0.0,0.0,-0.9579,-0.9579,-0.9579,-0.9579,-0.9579,-0.9579,-0.9579,-0.9579,-0.9579,-0.9579,-0.9579,-0.9579,-0.9579,-0.9579,-0.9579,-0.9579,-0.9579,-0.9579,-0.9579,-0.9579,-0.9579,-0.9579,-0.9579,-0.9579,0.0,0.0,0.0,0.0,0.0,0.0,0.0,0.0,-0.9579,-0.9746,-0.9888,-0.9904,-1.016,-1.0387,0.0,0.0,0.0,0.0,0.0,0.0,0.0,0.0,0.0,0.0,0.0,0.0,0.0,0.0,0.0,0.0,0.0,0.0,0.0,0.0,0.0,0.0,0.0,0.0,0.0,0.0,0.0,0.0,0.0,0.0,0.0,-1.1776,-1.1776,-1.1776,-1.1776,-1.1776,-1.1776,-1.1776,-1.1776,-1.1776,-1.1776,-1.1776,-1.1776,-1.1776,-1.1776,-1.1776,-1.1776,-1.1776,-1.1776,-1.1776,-1.1776,-1.1776,-1.1776,-1.1776,-1.1776,-1.1776,-1.1776,-1.1776,0.0,0.0,-1.1587,-1.1122,0.0,0.0,0.0,0.0,0.0,0.0,0.0,0.0,0.0,0.0,0.0,0.0,0.0,0.0,0.0,0.0,-0.9579,-0.9579,-0.9579,-0.9579,-0.9579,-0.9579,-0.9579,-0.9579,-0.9579,-0.9579,-0.9579,-0.9579,-0.9579,-0.9579,-0.9579,-0.9579,-0.9579,-0.9579,-0.9579,-0.9579,-0.9579,-0.9579,-0.9579,-0.9579,-0.9579,0.0,0.0,0.0,0.0,0.0,0.0,0.0,-0.9579,-0.9746,-0.9912,-1.011,-1.0262,-1.0411,0.0,0.0,0.0,0.0,0.0,0.0,0.0,0.0,0.0,0.0,0.0,0.0,0.0,0.0,0.0,0.0,0.0,0.0,0.0,0.0,0.0,0.0,0.0,0.0,0.0,0.0,0.0,0.0,0.0,0.0,-1.1776,-1.1776,-1.1776,-1.1776,-1.1776,-1.1776,-1.1776,-1.1776,-1.1776,0.0,-1.1776,-1.1776,-1.1776,-1.1776,-1.1776,-1.1776,-1.1776,-1.1776,-1.1776,-1.1776,-1.1776,-1.1776,-1.1776,-1.1776,-1.1776,-1.1776,-1.1776,-1.1776,0.0,0.0,0.0,0.0,0.0,0.0,0.0,0.0,0.0,0.0,0.0,0.0,0.0,0.0,0.0,0.0,-0.997,0.0,0.0,0.0,0.0,-0.9579,-0.9579,-0.9579,-0.9579,-0.9579,-0.9579,-0.9579,-0.9579,-0.9579,0.0,-0.9579,-0.9579,-0.9579,-0.9579,-0.9579,-0.9579,-0.9579,-0.9579,-0.9579,-0.9579,-0.9579,-0.9579,-0.9579,-0.9579,-0.9579,-0.9579,0.0,0.0,0.0,0.0,0.0,0.0,0.0,-1.0106,-1.0241,-1.042,-1.0578,0.0,0.0,0.0,0.0,0.0,0.0,0.0,0.0,0.0,0.0,0.0,0.0,0.0,0.0,0.0,0.0,0.0,0.0,0.0,0.0,0.0,0.0,0.0,0.0,0.0,0.0,0.0,0.0,0.0,-1.1776,-1.1776,-1.1776,-1.1776,-1.1776,-1.1776,-1.1776,-1.1776,-1.1776,-1.1776,-1.1776,-1.1776,-1.1776,-1.1776,-1.1776,-1.1776,-1.1776,-1.1776,-1.1776,-1.1776,-1.1776,-1.1776,-1.1776,-1.1776,-1.1776,-1.1776,-1.1776,-1.1776,-1.1776,0.0,0.0,0.0,0.0,0.0,0.0,0.0,0.0,0.0,0.0,0.0,0.0,0.0,0.0,-1.0899,0.0,0.0,0.0,0.0,0.0,0.0,0.0,-0.9579,-0.9579,-0.9579,-0.9579,-0.9579,-0.9579,-0.9579,0.0,0.0,0.0,0.0,-0.9579,-0.9579,-0.9579,-0.9579,-0.9579,-0.9579,-0.9579,-0.9579,-0.9579,-0.9579,-0.9579,-0.9579,-0.9579,-0.9579,-0.9579,-0.9583,-0.9661,0.0,0.0,0.0,0.0,-1.0241,-1.0391,-1.0558,-1.0692,0.0,0.0,0.0,0.0,0.0,0.0,0.0,0.0,0.0,0.0,0.0,0.0,0.0,0.0,0.0,0.0,0.0,0.0,0.0,0.0,0.0,0.0,0.0,0.0,0.0,0.0,0.0,0.0,0.0,-1.1776,-1.1776,-1.1776,-1.1776,-1.1776,-1.1776,-1.1776,-1.1776,-1.1776,-1.1776,-1.1776,-1.1776,-1.1776,-1.1776,-1.1776,-1.1776,-1.1776,-1.1776,-1.1776,-1.1776,-1.1776,-1.1776,-1.1776,-1.1776,-1.1776,-1.1776,-1.1776,-1.1776,-1.1776,0.0,0.0,0.0,0.0,0.0,0.0,0.0,0.0,0.0,0.0,-1.3089,-1.275,0.0,0.0,-1.1362,-1.2346,-1.1286,0.0,0.0,0.0,0.0,0.0,-0.9579,-0.9579,-0.9579,-0.9579,-0.9579,-0.9579,0.0,0.0,0.0,0.0,0.0,-0.9579,0.0,0.0,-0.9579,-0.9579,-0.9579,-0.9579,-0.9579,-0.9579,-0.9579,-0.9579,0.0,0.0,-0.9579,-0.9579,-0.9652,-0.9799,-0.9851,0.0,0.0,0.0,0.0,-1.0375,-1.0558,0.0,0.0,0.0,0.0,0.0,0.0,0.0,0.0,0.0,0.0,0.0,0.0,0.0,0.0,0.0,0.0,0.0,0.0,0.0,0.0,0.0,0.0,0.0,0.0,0.0,0.0,0.0,0.0,0.0,-1.1776,-1.1776,-1.1776,-1.1776,-1.1776,-1.1776,-1.1776,-1.1776,-1.1776,-1.1776,-1.1776,-1.1776,-1.1776,-1.1776,-1.1776,-1.1776,-1.1776,-1.1776,-1.1776,-1.1776,-1.1776,-1.1776,-1.1776,-1.1776,-1.1776,-1.1776,-1.1776,-1.1776,-1.1776,-1.1776,0.0,0.0,0.0,0.0,0.0,0.0,0.0,0.0,0.0,0.0,0.0,-1.3507,0.0,0.0,-1.2302,-1.283,-1.1648,0.0,0.0,0.0,0.0,0.0,-0.9681,-0.9579,-0.9579,-0.9579,-0.9579,-0.9579,0.0,0.0,0.0,-0.9579,-0.9579,0.0,0.0,0.0,0.0,-0.9579,-0.9579,-0.9579,-0.9579,-0.9579,-0.9579,0.0,0.0,0.0,0.0,0.0,0.0,-0.9977,-1.0094,-1.0122,-1.0257,0.0,0.0,0.0,0.0,0.0,0.0,0.0,0.0,0.0,0.0,0.0,0.0,0.0,0.0,0.0,0.0,0.0,0.0,0.0,0.0,0.0,0.0,0.0,0.0,0.0,0.0,0.0,0.0,0.0,0.0,0.0,0.0,0.0,-1.1776,-1.1776,-1.1776,-1.1776,-1.1776,-1.1776,-1.1776,-1.1776,-1.1776,-1.1776,-1.1776,-1.1776,-1.1776,-1.1776,-1.1776,-1.1776,-1.1776,-1.1776,-1.1776,-1.1776,-1.1776,-1.1776,-1.1776,-1.1776,-1.1776,-1.1776,-1.1776,-1.1776,-1.1776,-1.1776,0.0,0.0,0.0,0.0,0.0,0.0,0.0,0.0,0.0,0.0,0.0,0.0,0.0,0.0,0.0,0.0,-1.1963,0.0,0.0,0.0,0.0,0.0,0.0,-0.9742,-0.9693,-0.9693,-0.9669,0.0,0.0,0.0,-0.9579,-0.9579,-0.9579,0.0,-0.9579,0.0,0.0,0.0,0.0,0.0,0.0,0.0,0.0,0.0,0.0,0.0,0.0,0.0,0.0,0.0,0.0,0.0,0.0,0.0,0.0,0.0,0.0,0.0,0.0,0.0,0.0,0.0,0.0,0.0,0.0,0.0,0.0,0.0,0.0,0.0,0.0,0.0,0.0,0.0,0.0,0.0,0.0,0.0,0.0,0.0,0.0,0.0,0.0,0.0,0.0,0.0,-1.1776,-1.1776,-1.1776,-1.1776,-1.1776,-1.1776,-1.213,-1.2134,-1.1776,-1.2134,-1.2134,-1.1837,-1.2432,-1.2608,-1.2307,-1.2608,-1.2788,-1.2728,-1.2074,-1.1776,-1.1776,-1.1776,-1.1776,-1.1776,-1.1776,-1.1776,-1.1776,-1.1776,-1.1776,-1.1776,0.0,0.0,0.0,0.0,0.0,0.0,0.0,0.0,0.0,0.0,0.0,0.0,0.0,-1.3142,-1.2639,-1.3241,-1.251,-1.1934,0.0,0.0,0.0,0.0,0.0,0.0,0.0,-0.9872,0.0,0.0,0.0,0.0,-0.9579,-0.9579,-0.9579,-0.9579,-0.9579,-0.9579,-0.9579,0.0,0.0,0.0,0.0,0.0,0.0,0.0,0.0,0.0,0.0,0.0,0.0,0.0,0.0,0.0,0.0,0.0,0.0,0.0,0.0,0.0,0.0,0.0,0.0,0.0,0.0,0.0,0.0,0.0,0.0,0.0,0.0,0.0,0.0,0.0,0.0,0.0,0.0,0.0,0.0,0.0,0.0,0.0,0.0,0.0,0.0,0.0,0.0,0.0,-1.1776,-1.1776,-1.1776,-1.1776,-1.1776,-1.1776,-1.296,-1.3015,-1.1837,-1.302,-1.302,-1.1837,-1.4272,-1.4798,-1.3665,-1.4857,-1.5397,-1.5278,-1.2848,-1.1776,-1.1776,-1.1776,-1.1776,-1.1776,-1.1776,-1.1776,-1.1776,-1.1776,-1.1776,-1.1776,0.0,0.0,0.0,0.0,0.0,0.0,0.0,0.0,0.0,0.0,0.0,0.0,0.0,-1.4242,-1.407,-1.4298,-1.3335,-1.2312,-1.1345,0.0,0.0,0.0,0.0,0.0,0.0,0.0,0.0,0.0,0.0,-0.9738,-0.9579,-0.9742,-0.9855,-0.9961,-0.973,-0.9579,-0.9583,-0.9746,0.0,0.0,0.0,0.0,0.0,0.0,0.0,0.0,0.0,0.0,0.0,0.0,0.0,0.0,0.0,0.0,0.0,0.0,0.0,0.0,0.0,0.0,0.0,0.0,0.0,0.0,0.0,0.0,0.0,0.0,0.0,0.0,0.0,0.0,0.0,0.0,0.0,0.0,0.0,0.0,0.0,0.0,0.0,0.0,0.0,0.0,0.0,0.0,0.0,-1.1776,-1.1776,-1.2608,-1.3015,-1.3015,-1.4267,-1.4684,-1.4267,-1.4679,-1.4679,-1.4272,-1.5159,-1.5332,-1.4917,-1.5391,-1.5575,-1.5569,-1.4624,-1.4267,-1.4267,-1.4267,-1.4267,-1.4267,-1.4267,-1.4267,-1.4267,-1.4267,-1.4267,-1.4267,0.0,0.0,0.0,0.0,0.0,0.0,0.0,0.0,0.0,0.0,0.0,0.0,0.0,0.0,-1.42,-1.3967,-1.3231,-1.2381,-1.1402,-1.1216,-1.104,-1.0704,0.0,0.0,0.0,0.0,0.0,0.0,0.0,0.0,0.0,-1.0103,-1.0188,-1.0245,-1.0006,-0.9849,0.0,0.0,0.0,-0.9989,0.0,0.0,-1.0266,0.0,0.0,0.0,0.0,0.0,0.0,0.0,0.0,0.0,0.0,0.0,0.0,0.0,0.0,0.0,0.0,0.0,0.0,0.0,0.0,0.0,0.0,0.0,0.0,0.0,0.0,0.0,0.0,0.0,0.0,0.0,0.0,0.0,0.0,0.0,0.0,0.0,0.0,0.0,0.0,0.0,0.0,0.0,0.0,0.0,-1.3084,-1.3849,-1.4555,-1.4971,-1.5391,-1.5811,-1.622,-1.622,-1.6042,-1.5634,-1.6461,-1.6638,-1.6279,-1.6697,-1.6873,-1.6873,-1.6873,-1.6402,-1.5575,-1.5575,-1.5575,-1.5575,-1.5575,-1.5575,-1.5575,-1.5575,-1.5575,-1.5575,0.0,0.0,0.0,0.0,0.0,0.0,0.0,0.0,0.0,0.0,0.0,0.0,0.0,0.0,0.0,-1.2157,-1.21,-1.21,-1.2095,-1.2091,-1.1804,-1.1224,-1.1224,0.0,0.0,0.0,0.0,0.0,0.0,0.0,0.0,0.0,-1.0607,-1.0395,-1.0395,-1.0395,-1.0395,0.0,-1.0331,-1.0224,0.0,-1.0282,-1.0391,0.0,0.0,0.0,-1.0708,-1.0708,0.0,0.0,0.0,0.0,0.0,0.0,0.0,0.0,0.0,0.0,0.0,0.0,0.0,0.0,0.0,0.0,0.0,0.0,0.0,0.0,0.0,0.0,0.0,0.0,0.0,0.0,0.0,0.0,0.0,0.0,0.0,0.0,0.0,0.0,0.0,0.0,0.0,0.0,-1.4857,-1.5575,-1.5575,-1.5634,-1.622,-1.7513,-1.6338,-1.6338,-1.7513,-1.7572,-1.6926,-1.5752,-1.824,-1.8765,-1.7572,-1.8829,-1.9424,-1.9424,-1.9424,-1.8,-1.5693,-1.5693,-1.5693,-1.5693,-1.5693,-1.5693,-1.5693,-1.5693,-1.5693,-1.5693,0.0,0.0,0.0,0.0,0.0,0.0,0.0,0.0,0.0,0.0,0.0,0.0,0.0,0.0,-1.3277,-1.2561,-1.2502,-1.2263,-1.1724,-1.1657,-1.1537,-1.1228,-1.1224,-1.12,-1.1151,-1.1053,0.0,0.0,0.0,0.0,0.0,0.0,0.0,0.0,-1.0822,-1.0822,-1.0806,-1.0546,0.0,0.0,-1.0493,-1.0574,0.0,0.0,0.0,0.0,0.0,-1.1074,0.0,0.0,-1.0928,-1.1016,0.0,0.0,0.0,0.0,0.0,0.0,-1.1025,0.0,0.0,0.0,0.0,0.0,-1.1524,-1.1683,0.0,0.0,0.0,0.0,0.0,0.0,0.0,0.0,0.0,0.0,0.0,0.0,0.0,0.0,0.0,0.0,0.0,0.0,0.0,0.0,-1.4857,-1.5575,-1.5575,-1.6455,-1.7578,-1.8829,-1.8532,-1.8532,-1.8887,-1.8887,-1.8706,-1.8357,-1.9068,-1.9249,-1.8887,-1.9243,-1.9424,-1.9424,-1.9424,-1.901,-1.8357,-1.8357,-1.8357,-1.8357,-1.8357,-1.8357,-1.8357,-1.8357,-1.8357,-1.8357,0.0,0.0,0.0,0.0,0.0,0.0,0.0,0.0,0.0,0.0,0.0,0.0,0.0,0.0,0.0,-1.2367,-1.2307,-1.2144,-1.1682,-1.1614,-1.1569,-1.1459,-1.1451,-1.1451,-1.1451,-1.1301,0.0,0.0,0.0,0.0,0.0,0.0,0.0,0.0,-1.1024,-1.0928,0.0,0.0,0.0,0.0,-1.0651,0.0,0.0,-1.081,-1.0854,0.0,0.0,0.0,-1.0988,-1.0887,-1.0854,0.0,0.0,0.0,0.0,0.0,0.0,0.0,0.0,0.0,0.0,0.0,0.0,0.0,-1.1455,-1.1642,-1.1776,0.0,0.0,0.0,0.0,0.0,0.0,0.0,0.0,0.0,0.0,0.0,0.0,0.0,0.0,0.0,0.0,-1.3729,-1.4733,-1.5262,-1.6455,-1.7173,-1.7173,-1.7877,-1.8648,-1.9366,-1.9424,-1.9424,-1.9424,-1.9424,-1.9424,-1.9424,-1.9424,-1.9424,-1.9424,-1.9424,-1.9424,-1.9424,-1.9424,-1.9424,-1.9424,-1.9424,-1.9424,-1.9424,-1.9424,-1.9424,-1.9424,-1.9424,-1.9424,-1.9424,0.0,0.0,-1.5601,-1.5601,-1.5601,0.0,0.0,0.0,0.0,0.0,0.0,0.0,0.0,0.0,0.0,0.0,-1.1715,-1.1715,-1.1715,-1.1715,-1.1715,-1.1715,-1.1715,-1.1715,-1.1715,-1.139,0.0,0.0,0.0,0.0,0.0,0.0,0.0,0.0,-1.1004,-1.0846,0.0,0.0,0.0,-1.0692,-1.0692,-1.0692,0.0,0.0,-1.0692,0.0,-1.0692,-1.0692,-1.0692,-1.0692,-1.0692,0.0,0.0,0.0,0.0,0.0,-1.1057,0.0,0.0,0.0,0.0,0.0,0.0,0.0,-1.1431,-1.1626,-1.1776,0.0,0.0,0.0,0.0,0.0,0.0,0.0,0.0,0.0,0.0,0.0,0.0,0.0,0.0,0.0,-1.361,-1.4857,-1.6101,-1.7396,-1.8706,-1.9424,-1.9424,-1.9424,-1.9424,-1.9424,-1.9424,-1.9424,-1.9424,-1.9424,-1.9424,-1.9424,-1.9424,-1.9424,-1.9424,-1.9424,-1.9424,-1.9424,-1.9424,-1.9424,-1.9424,-1.9424,-1.9424,-1.9424,-1.9424,-1.9424,-1.9424,-1.9424,-1.9424,-1.9424,-1.5601,-1.5601,-1.5601,-1.5601,0.0,0.0,0.0,0.0,0.0,0.0,0.0,0.0,0.0,0.0,0.0,0.0,-1.133,-1.133,-1.133,-1.133,-1.133,-1.133,-1.133,-1.133,-1.133,-1.1256,-1.124,0.0,0.0,0.0,0.0,0.0,0.0,0.0,-1.0814,-1.0724,0.0,0.0,0.0,-1.0692,-1.0692,0.0,-1.0692,-1.0692,-1.0692,-1.0692,-1.0692,-1.0692,-1.0692,0.0,-1.0692,-1.0704,0.0,0.0,0.0,0.0,0.0,0.0,0.0,0.0,0.0,0.0,0.0,0.0,-1.1269,-1.1537,-1.1776,0.0,0.0,0.0,0.0,0.0,0.0,0.0,0.0,0.0,0.0,0.0,0.0,0.0,0.0,0.0,-1.361,-1.4857,-1.6101,-1.7396,-1.8706,-1.9424,-1.9424,-1.9424,-1.9424,-1.9424,-1.9424,-1.9424,-1.9424,-1.9424,-1.9424,-1.9424,-1.9424,-1.9424,-1.9424,-1.9424,-1.9424,-1.9424,-1.9424,-1.9424,-1.9424,-1.9424,-1.9424,-1.9424,-1.9424,-1.9424,-1.9424,-1.9424,-1.9424,-1.9424,-1.5601,-1.5353,-1.5116,-1.5116,0.0,0.0,0.0,0.0,0.0,0.0,0.0,0.0,0.0,0.0,0.0,0.0,0.0,0.0,0.0,0.0,-1.1224,-1.1224,-1.1224,-1.1224,-1.1224,-1.1224,-1.1179,-1.1094,0.0,0.0,0.0,0.0,0.0,0.0,0.0,0.0,0.0,0.0,-1.0692,-1.0692,-1.0692,0.0,-1.0692,-1.0692,-1.0692,-1.0704,-1.0798,-1.0887,-1.0944,-1.0858,-1.083,0.0,0.0,-1.0692,-1.0692,0.0,-1.0692,-1.0692,0.0,0.0,0.0,-1.0806,0.0,0.0,0.0,-1.1577,-1.1776,0.0,0.0,0.0,0.0,0.0,0.0,0.0,0.0,0.0,0.0,0.0,0.0,0.0,0.0,0.0,-1.45,-1.5806,-1.7103,-1.835,-1.9062,-1.9424,-1.9424,-1.9424,-1.9424,-1.9424,-1.9424,-1.9424,-1.9424,-1.9424,-1.9424,-1.9424,-1.9424,-1.9424,-1.9424,-1.9424,-1.9424,-1.9424,-1.9424,-1.9424,-1.9424,-1.9424,-1.9424,-1.9424,-1.9424,-1.9424,-1.9424,-1.9424,-1.9424,-1.9424,-1.5811,-1.5289,-1.4738,-1.4574,0.0,0.0,0.0,0.0,0.0,0.0,0.0,0.0,0.0,0.0,0.0,0.0,0.0,0.0,0.0,0.0,0.0,-1.1224,-1.1224,-1.1208,-1.1175,-1.1175,-1.109,-1.0915,0.0,0.0,0.0,0.0,0.0,0.0,0.0,0.0,0.0,0.0,0.0,-1.0749,0.0,-1.0773,-1.0745,-1.0745,-1.0765,-1.0814,-1.0964,-1.1106,-1.12,-1.1066,0.0,-1.0992,-1.0842,-1.0794,0.0,0.0,0.0,0.0,0.0,0.0,0.0,0.0,0.0,-1.1313,0.0,0.0,0.0,0.0,0.0,0.0,0.0,0.0,0.0,0.0,0.0,0.0,0.0,0.0,0.0,0.0,0.0,0.0,0.0,-1.7103,-1.8286,-1.9307,-1.9424,-1.9424,-1.9424,-1.9424,-1.9424,-1.9424,-1.9424,-1.9424,-1.9424,-1.9424,-1.9424,-1.9424,-1.9424,-1.9424,-1.9424,-1.9424,-1.9424,-1.9424,-1.9424,-1.9424,-1.9424,-1.9424,-1.9424,-1.9424,-1.9424,-1.9424,-1.9424,-1.9424,-1.9424,-1.9424,-1.6616,-1.6124,-1.5236,-1.4562,0.0,0.0,0.0,0.0,0.0,0.0,0.0,0.0,0.0,0.0,0.0,0.0,0.0,0.0,-1.1224,0.0,0.0,0.0,-1.1224,-1.1151,-1.1057,-1.1001,-1.0907,-1.0724,-1.0724,0.0,0.0,0.0,0.0,0.0,-1.0692,0.0,0.0,0.0,-1.0992,0.0,-1.1102,-1.1074,0.0,-1.0992,-1.1033,-1.1163,-1.1187,-1.1204,-1.122,0.0,-1.1191,-1.1191,0.0,-1.1163,0.0,0.0,0.0,0.0,0.0,0.0,0.0,0.0,-1.133,0.0,0.0,0.0,-1.1776,0.0,0.0,0.0,0.0,0.0,0.0,0.0,0.0,0.0,0.0,0.0,0.0,0.0,0.0,0.0,0.0,-1.8409,-1.9243,-1.9366,-1.9424,-1.9424,-1.9424,-1.9424,-1.9424,-1.9424,-1.9424,-1.9424,-1.9424,-1.9424,-1.9424,-1.9424,-1.9424,-1.9424,-1.9424,-1.9424,-1.9424,-1.9424,-1.9424,-1.9424,-1.9424,-1.9424,-1.9424,-1.9424,-1.9424,-1.9424,-1.9424,-1.9424,-1.9424,-1.9424,-1.5066,-1.4134,-1.3529,-1.3206,0.0,0.0,0.0,0.0,0.0,0.0,0.0,0.0,0.0,0.0,0.0,0.0,0.0,-1.1224,0.0,0.0,0.0,0.0,0.0,0.0,0.0,-1.1118,-1.1078,-1.1001,-1.0899,0.0,0.0,0.0,0.0,0.0,-1.085,0.0,-1.1005,0.0,0.0,0.0,0.0,0.0,0.0,-1.1159,-1.1228,-1.1382,-1.1382,-1.1451,-1.1529,0.0,-1.1382,0.0,0.0,0.0,0.0,0.0,0.0,0.0,0.0,0.0,0.0,0.0,0.0,0.0,0.0,0.0,-1.1776,0.0,0.0,0.0,0.0,0.0,0.0,0.0,0.0,0.0,0.0,0.0,0.0,0.0,0.0,0.0,0.0,0.0,0.0,0.0,-1.9424,-1.9424,-1.9424,-1.9424,-1.9424,-1.9424,-1.9424,-1.9424,-1.9424,-1.9424,-1.9424,-1.9424,-1.9424,-1.9424,-1.9424,-1.9424,-1.9424,-1.9424,-1.9424,-1.9424,-1.9424,-1.9424,-1.9424,-1.9424,-1.9424,-1.9424,-1.9424,-1.9424,-1.9424,-1.9424,-1.4251,0.0,0.0,0.0,0.0,0.0,0.0,0.0,0.0,0.0,0.0,0.0,-1.1374,-1.1658,0.0,0.0,0.0,-1.1374,0.0,0.0,-1.1545,0.0,0.0,0.0,0.0,0.0,-1.1789,-1.1733,-1.1269,0.0,0.0,0.0,0.0,0.0,0.0,-1.1106,-1.1228,0.0,0.0,-1.1301,-1.1354,-1.1455,-1.1561,-1.1423,-1.1459,-1.1577,-1.1577,-1.1663,-1.1756,-1.1622,-1.1577,0.0,-1.1415,0.0,0.0,0.0,0.0,0.0,-1.1374,0.0,0.0,0.0,0.0,0.0,0.0,0.0,0.0,0.0,0.0,0.0,0.0,0.0,0.0,0.0,0.0,0.0,0.0,0.0,0.0,0.0,0.0,0.0,0.0,0.0,0.0,0.0,0.0,-1.9424,-1.9424,-1.9424,-1.9424,-1.9424,-1.9424,-1.9424,-1.9424,-1.9424,-1.9424,-1.9424,-1.9424,-1.9424,-1.9424,-1.9424,-1.9424,-1.9424,-1.9424,-1.9424,-1.9424,-1.9424,-1.9424,-1.9424,-1.9424,-1.9424,-1.9424,-1.9424,-1.9424,-1.9424,-1.5181,-1.5219,0.0,0.0,0.0,0.0,0.0,0.0,0.0,0.0,0.0,0.0,0.0,0.0,0.0,0.0,0.0,-1.176,-1.176,0.0,-1.235,0.0,0.0,-1.3556,0.0,0.0,0.0,0.0,0.0,0.0,0.0,0.0,0.0,0.0,0.0,-1.122,-1.1236,-1.1415,-1.1492,-1.1504,-1.1687,-1.176,-1.1768,0.0,-1.176,-1.1768,-1.1768,0.0,0.0,-1.1768,-1.1768,0.0,0.0,0.0,0.0,0.0,0.0,0.0,0.0,0.0,0.0,-1.1764,0.0,0.0,0.0,0.0,-1.1776,0.0,0.0,0.0,0.0,0.0,0.0,0.0,0.0,0.0,0.0,0.0,0.0,0.0,0.0,0.0,0.0,0.0,0.0,0.0,0.0,0.0,-1.9424,-1.9424,-1.9424,-1.9424,-1.9424,-1.9424,-1.9424,-1.9424,-1.9424,-1.9424,-1.9424,-1.9424,-1.9424,-1.9424,-1.9424,-1.9424,-1.9424,-1.9424,-1.9424,-1.9424,-1.9424,-1.9424,-1.9424,-1.9424,-1.9424,-1.9424,-1.9424,-1.9424,0.0,0.0,0.0,0.0,0.0,0.0,0.0,-1.5284,0.0,0.0,0.0,0.0,0.0,0.0,-1.4798,0.0,0.0,-1.4326,-1.4326,-1.3555,0.0,0.0,0.0,-1.2813,0.0,0.0,0.0,0.0,0.0,0.0,0.0,0.0,0.0,0.0,0.0,-1.1472,0.0,0.0,0.0,0.0,0.0,-1.1776,-1.1776,0.0,0.0,-1.1776,-1.1776,-1.1776,0.0,-1.1776,-1.1776,-1.1776,-1.1776,-1.1776,-1.1776,-1.1776,-1.1776,0.0,0.0,0.0,-1.1776,-1.1776,0.0,0.0,0.0,0.0,0.0,0.0,0.0,0.0,0.0,0.0,0.0,0.0,0.0,0.0,0.0,0.0,0.0,0.0,0.0,0.0,0.0,0.0,0.0,0.0,0.0,0.0,0.0,-1.9424,-1.9424,-1.9424,-1.9424,-1.9424,-1.9424,-1.9424,-1.9424,-1.9424,-1.9424,-1.9424,-1.9424,-1.9424,-1.9424,-1.9424,-1.9424,-1.9424,-1.9424,-1.9424,-1.9424,-1.9424,-1.9424,-1.9424,-1.9424,-1.9424,-1.9424,-1.9424,-1.8344,0.0,0.0,0.0,0.0,0.0,0.0,0.0,0.0,0.0,-1.5505,0.0,-1.45,0.0,-1.6101,0.0,-1.5575,-1.5391,-1.4976,-1.456,0.0,-1.5575,-1.4446,0.0,0.0,0.0,0.0,0.0,0.0,-1.1831,0.0,0.0,0.0,0.0,0.0,0.0,-1.1776,0.0,-1.1776,0.0,0.0,-1.1776,0.0,0.0,-1.1776,-1.1776,0.0,-1.1776,-1.1776,-1.1776,-1.1776,-1.1776,-1.1776,-1.1776,-1.1776,-1.1776,-1.1776,-1.1776,-1.1776,-1.1776,0.0,-1.1776,-1.1776,0.0,-1.1776,0.0,0.0,0.0,0.0,0.0,0.0,0.0,0.0,0.0,0.0,0.0,0.0,-1.6862,0.0,0.0,0.0,0.0,0.0,0.0,0.0,0.0,0.0,0.0,0.0,0.0,-1.9424,-1.9424,-1.9424,-1.9424,-1.9424,-1.9424,-1.9424,-1.9424,-1.9424,-1.9424,-1.9424,-1.9424,-1.9424,-1.9424,-1.9424,-1.9424,-1.9424,-1.9424,-1.9424,-1.9424,-1.9424,-1.9424,-1.9424,-1.9424,-1.9424,-1.9424,-1.9424,0.0,0.0,0.0,-1.5811,0.0,0.0,0.0,-1.5752,0.0,-1.6809,-1.7103,-1.5806,-1.6809,-1.7103,-1.5865,-1.5811,0.0,-1.4083,-1.5035,0.0,0.0,-1.675,-1.7396,-1.7513,0.0,0.0,0.0,0.0,0.0,0.0,0.0,0.0,0.0,-1.1776,0.0,-1.1776,-1.1776,-1.1776,-1.1776,-1.1776,-1.1776,-1.1776,-1.1776,-1.1776,-1.1776,-1.1776,-1.1776,-1.1776,-1.1776,-1.1776,-1.1776,-1.1776,-1.1776,-1.1776,-1.1776,-1.1776,-1.1776,-1.1776,-1.1776,-1.1776,-1.1776,0.0,0.0,0.0,0.0,-1.1897,0.0,0.0,0.0,0.0,0.0,0.0,0.0,0.0,0.0,0.0,0.0,0.0,0.0,0.0,0.0,0.0,0.0,0.0,0.0,0.0,0.0,0.0,0.0,-1.9424,-1.9424,-1.9424,-1.9424,-1.9424,-1.9424,-1.9424,-1.9424,-1.9424,-1.9424,-1.9424,-1.9424,-1.9424,-1.9424,-1.9424,-1.9424,-1.9424,-1.9424,-1.9424,-1.9424,-1.9424,-1.9424,-1.9424,-1.9424,-1.9424,-1.9424,-1.9424,-1.9424,-1.9191,0.0,-1.8415,-1.8415,0.0,0.0,0.0,0.0,-1.811,-1.8409,-1.7161,-1.8169,-1.8771,-1.8473,-1.8415,0.0,0.0,0.0,0.0,-1.8357,-1.6037,-1.5558,-1.7455,-1.4386,0.0,-1.4202,0.0,0.0,-1.2251,0.0,0.0,0.0,0.0,0.0,-1.1776,-1.1776,-1.1776,-1.1776,-1.1776,-1.1776,0.0,0.0,-1.1776,-1.1776,-1.1776,-1.1776,-1.1776,-1.1776,-1.1776,-1.1776,-1.1776,-1.1776,-1.1776,-1.1776,-1.1776,-1.1776,-1.1776,-1.1776,-1.1776,-1.1776,-1.1776,-1.1776,0.0,0.0,0.0,0.0,0.0,0.0,0.0,0.0,0.0,0.0,0.0,0.0,0.0,0.0,0.0,0.0,0.0,0.0,0.0,0.0,0.0,0.0,0.0,0.0,0.0,0.0,0.0,-1.9424,-1.9424,-1.9424,-1.9424,-1.9424,-1.9424,-1.9424,-1.9424,-1.9424,-1.9424,-1.9424,-1.9424,-1.9424,-1.9424,-1.9424,-1.9424,-1.9424,-1.9424,-1.9424,-1.9424,-1.9424,-1.9424,-1.9424,-1.9424,-1.9424,-1.9424,0.0,0.0,-1.9424,0.0,0.0,-1.9424,0.0,0.0,-1.8409,-1.8946,0.0,-1.8409,-1.8946,-1.9424,-1.9424,-1.9424,0.0,0.0,0.0,0.0,-1.8583,-1.7044,-1.6868,-1.8292,-1.5682,0.0,-1.456,0.0,0.0,-1.1776,0.0,0.0,0.0,0.0,-1.1776,0.0,-1.1776,-1.1776,-1.1776,-1.1776,0.0,0.0,-1.1776,-1.1776,-1.1776,-1.1776,-1.1776,-1.1776,-1.1776,-1.1776,-1.1776,-1.1776,-1.1776,-1.1776,-1.1776,-1.1776,-1.1776,-1.1776,-1.1776,-1.1776,-1.1776,-1.1776,-1.1776,-1.1776,-1.2367,-1.29,0.0,0.0,0.0,0.0,0.0,0.0,0.0,0.0,0.0,0.0,0.0,0.0,0.0,0.0,0.0,0.0,0.0,0.0,0.0,0.0,0.0,0.0,0.0,0.0,-1.9424,-1.9424,-1.9424,-1.9424,-1.9424,-1.9424,-1.9424,-1.9424,-1.9424,-1.9424,-1.9424,-1.9424,-1.9424,-1.9424,-1.9424,-1.9424,-1.9424,-1.9424,-1.9424,-1.9424,-1.9424,-1.9424,-1.9424,-1.9424,-1.9424,0.0,0.0,0.0,0.0,0.0,0.0,0.0,-1.9424,0.0,-1.9424,0.0,-1.9424,-1.9424,-1.9424,-1.9424,-1.9424,0.0,-1.8946,-1.7812,-1.8765,-1.8887,-1.7812,-1.8648,-1.9243,-1.9424,-1.7994,0.0,0.0,0.0,0.0,0.0,0.0,0.0,0.0,0.0,0.0,0.0,-1.1776,-1.1776,-1.1776,-1.1776,-1.1776,-1.1776,-1.1776,-1.1776,-1.1776,-1.1776,-1.1776,-1.1776,-1.1776,-1.1776,-1.1776,-1.1776,-1.1776,-1.1776,-1.1776,-1.1776,-1.1776,-1.1776,-1.1776,-1.1776,-1.1776,-1.1776,-1.1776,-1.1776,-1.1957,-1.2074,-1.2074,-1.2195,-1.2904,0.0,0.0,0.0,0.0,0.0,0.0,0.0,0.0,0.0,0.0,0.0,0.0,0.0,0.0,0.0,0.0,0.0,0.0,0.0,0.0,0.0,-1.9424,-1.9424,-1.9424,-1.9424,0.0,-1.9424,-1.9424,-1.9424,-1.9424,-1.9424,-1.9424,-1.9424,-1.9424,-1.9424,-1.9424,-1.9424,-1.9424,-1.9424,-1.9424,-1.9424,-1.9424,-1.9424,-1.9424,-1.9424,-1.9424,0.0,0.0,0.0,0.0,0.0,-1.9424,-1.9424,-1.9424,-1.9424,-1.9424,-1.9424,-1.9424,-1.9424,-1.9424,-1.9424,-1.9424,-1.9424,0.0,0.0,0.0,0.0,-1.9068,-1.8292,-1.8344,-1.9366,-1.7109,-1.6338,0.0,0.0,0.0,0.0,0.0,0.0,0.0,0.0,0.0,-1.1776,-1.1776,0.0,-1.1776,-1.1776,-1.1776,-1.1776,-1.1776,-1.1776,-1.1776,-1.1776,-1.1776,-1.1776,-1.1776,-1.1776,-1.1776,-1.1776,-1.1776,-1.1776,-1.1776,-1.1776,-1.1776,-1.1776,-1.1776,-1.1776,-1.1776,-1.1776,-1.1776,-1.1776,-1.2603,-1.3375,-1.3375,-1.4207,-1.4743,-1.4143,0.0,0.0,0.0,0.0,0.0,0.0,0.0,0.0,0.0,0.0,0.0,0.0,0.0,0.0,0.0,0.0,0.0,0.0,0.0,0.0,0.0,-1.9424,0.0,0.0,0.0,-1.9424,-1.9424,-1.9424,-1.9424,-1.9424,-1.9424,-1.9424,-1.9424,-1.9424,-1.9424,-1.9424,-1.9424,-1.9424,-1.9424,-1.9424,-1.9424,-1.9424,-1.9424,-1.9424,-1.9424,0.0,0.0,0.0,0.0,0.0,0.0,0.0,-1.9424,0.0,-1.9424,-1.9424,-1.9424,-1.9424,-1.9424,-1.9424,-1.9424,-1.9424,-1.9424,-1.9424,-1.9424,-1.9424,-1.9424,-1.8823,0.0,-1.9366,-1.8181,-1.7226,-1.6514,0.0,0.0,0.0,0.0,0.0,0.0,0.0,-1.2784,0.0,0.0,0.0,-1.2724,-1.2074,-1.1776,-1.1776,-1.1776,-1.1833,-1.1906,-1.1906,-1.1967,-1.2024,-1.1837,-1.1776,-1.1776,-1.1776,-1.1776,-1.1776,-1.1776,-1.1776,-1.1776,-1.1776,-1.1776,-1.1776,-1.1776,-1.1776,-1.1776,-1.1776,-1.2251,-1.2724,-1.2724,-1.32,-1.3439,-1.2844,-1.3789,0.0,0.0,0.0,0.0,0.0,0.0,0.0,0.0,0.0,0.0,0.0,0.0,0.0,0.0,0.0,0.0,0.0,0.0,0.0,0.0,0.0,0.0,0.0,0.0,0.0,-1.9424,-1.9424,-1.9424,-1.9424,-1.9424,-1.9424,-1.9424,-1.9424,-1.9424,-1.9424,-1.9424,-1.9424,-1.9424,-1.9424,-1.9424,-1.9424,-1.9424,-1.9424,-1.9424,0.0,-1.9424,0.0,0.0,-1.9424,0.0,-1.9424,-1.9424,-1.9424,-1.9424,-1.9424,-1.9424,-1.9424,-1.9419,-1.9459,-1.9459,-1.9459,-1.9459,-1.9459,-1.9457,-1.9424,-1.9424,-1.9424,-1.9424,-1.9424,-1.9424,-1.8415,0.0,0.0,0.0,0.0,0.0,0.0,0.0,0.0,0.0,0.0,0.0,-1.3315,-1.32,-1.2233,-1.1833,-1.1837,-1.1874,-1.1971,-1.2089,-1.2089,-1.2182,-1.2264,-1.1983,-1.189,-1.189,-1.189,-1.189,-1.189,-1.189,-1.189,-1.189,-1.189,-1.189,-1.189,-1.189,-1.1857,-1.1833,-1.1833,-1.1801,-1.1776,-1.1776,-1.2014,-1.2191,-1.2191,-1.4033,0.0,0.0,0.0,0.0,0.0,0.0,0.0,0.0,0.0,0.0,0.0,0.0,0.0,0.0,0.0,0.0,0.0,0.0,0.0,0.0,0.0,-1.9424,-1.9424,0.0,-1.9424,-1.9424,-1.9424,-1.9424,-1.9424,-1.9424,-1.9424,-1.9424,-1.9424,-1.9424,-1.9424,-1.9424,-1.9424,-1.9424,-1.9424,-1.9424,-1.9424,-1.9424,-1.9424,-1.9424,0.0,0.0,0.0,0.0,0.0,0.0,-1.9424,-1.9424,-1.9424,-1.9424,-1.9424,-1.9424,-1.9424,-1.9599,-1.976,-1.976,-1.976,-1.976,-1.976,-1.9512,-1.9424,-1.9424,-1.9424,-1.9424,-1.9424,-1.9424,-1.9307,0.0,0.0,0.0,0.0,0.0,0.0,0.0,0.0,0.0,0.0,-1.1953,-1.1953,-1.197,-1.2004,-1.2008,-1.2024,-1.2194,-1.2268,-1.228,-1.228,-1.2292,-1.2304,-1.2268,-1.2259,-1.2259,-1.2259,-1.2259,-1.2259,-1.2259,-1.2259,-1.2259,-1.2259,-1.2259,-1.2259,-1.2259,-1.213,-1.2008,-1.2008,-1.1886,-1.1776,-1.1776,-1.2724,-1.355,-1.355,-1.4679,-1.5575,0.0,0.0,0.0,0.0,0.0,0.0,0.0,0.0,0.0,0.0,0.0,0.0,0.0,0.0,0.0,0.0,0.0,0.0,-1.9424,0.0,-1.9424,-1.9424,-1.9424,-1.9424,-1.9424,-1.9424,-1.9424,-1.9424,-1.9424,-1.9424,-1.9424,-1.9424,-1.9424,-1.9424,-1.9424,-1.9424,-1.9424,-1.9424,-1.9424,-1.9424,-1.9424,-1.9424,-1.9424,0.0,0.0,0.0,0.0,0.0,0.0,0.0,-1.9773,-1.9887,-1.9887,-1.9733,-1.9693,-1.9867,-1.9993,-2.006,-2.006,-2.006,-2.006,-2.006,-1.9953,-1.9806,-1.9633,-1.9626,-1.9546,-1.943,-1.9424,-1.901,0.0,0.0,0.0,0.0,0.0,0.0,0.0,0.0,-1.5208,-1.5154,-1.4386,-1.4101,-1.404,-1.2606,-1.2097,-1.2203,-1.228,-1.2369,-1.2462,-1.2462,-1.2532,-1.2625,-1.2625,-1.2483,-1.2308,-1.2308,-1.2308,-1.2308,-1.2308,-1.2308,-1.2308,-1.2308,-1.2308,-1.2308,-1.2308,-1.2251,-1.2194,-1.2194,-1.2056,-1.1926,-1.1926,-1.2266,-1.2543,-1.2543,-1.2964,-1.3555,0.0,0.0,0.0,0.0,0.0,0.0,0.0,0.0,0.0,0.0,0.0,0.0,0.0,0.0,0.0,0.0,0.0,0.0,-1.9424,0.0,-1.9424,-1.9424,-1.9424,-1.9424,-1.9424,-1.9424,-1.9424,-1.9424,-1.9424,-1.9424,-1.9424,-1.9424,-1.9424,-1.9424,-1.9424,-1.9424,-1.9424,-1.9424,-1.9424,-1.9424,-1.9424,-1.9424,-1.9424,-1.9479,0.0,-1.9519,0.0,-1.9793,-1.9927,-1.9927,-2.01,-2.0261,-2.0347,-2.0187,-2.01,-2.0221,-2.0307,-2.0361,-2.0361,-2.0361,-2.0361,-2.0361,-2.0281,-2.014,-1.994,-1.9927,0.0,-1.9499,-1.9492,-1.9031,-1.8046,-1.8583,0.0,0.0,0.0,0.0,0.0,-1.6514,-1.6967,-1.6978,-1.6088,-1.5565,-1.5227,-1.3451,-1.2637,-1.2389,-1.2442,-1.254,-1.2645,-1.2645,-1.2726,-1.277,-1.277,-1.267,-1.2462,-1.2462,-1.2462,-1.2462,-1.2462,-1.2462,-1.2462,-1.2462,-1.2462,-1.2462,-1.2462,-1.2422,-1.2381,-1.2381,-1.2239,-1.2155,-1.2468,-1.2778,-1.3087,-1.3389,-1.3144,-1.32,-1.4083,0.0,0.0,0.0,0.0,0.0,0.0,0.0,-1.8,-1.8771,0.0,0.0,0.0,0.0,0.0,0.0,0.0,0.0,0.0,0.0,0.0,0.0,-1.9424,-1.9424,-1.9424,-1.9424,-1.9424,-1.9424,-1.9424,-1.9424,-1.9424,-1.9424,-1.9424,-1.9424,-1.9424,-1.9424,-1.9424,-1.9424,-1.9424,-1.9424,-1.9424,-1.9424,-1.9424,-1.974,-1.98,-1.9887,-2.0113,-2.0167,-2.0227,-2.0227,-2.0227,-2.0341,-2.0635,-2.0668,-2.0555,-2.0267,-2.0494,-2.0675,-2.0675,-2.0675,-2.0675,-2.0675,-2.0394,-2.0173,0.0,0.0,-2.0094,-1.98,-1.98,-1.9653,-1.9366,0.0,0.0,-1.7455,0.0,-1.5634,-1.5575,-1.5628,-1.5758,-1.604,-1.5974,-1.5381,-1.4433,-1.4501,-1.376,-1.258,-1.2759,-1.2832,-1.2832,-1.2832,-1.277,-1.277,-1.277,-1.277,-1.2766,-1.2766,-1.2766,-1.2766,-1.2766,-1.2766,-1.2766,-1.2766,-1.2766,-1.2766,-1.2766,-1.2694,-1.2624,-1.2624,-1.2426,-1.2624,-1.366,-1.4882,-1.6074,-1.7203,-1.6397,-1.5575,-1.5575,0.0,0.0,0.0,0.0,0.0,0.0,-1.456,-1.4787,-1.7273,0.0,0.0,0.0,0.0,0.0,0.0,0.0,0.0,-1.9424,-1.9424,0.0,-1.9424,-1.9424,-1.9424,-1.9424,-1.9424,-1.9424,-1.9424,-1.9424,-1.9424,-1.9424,-1.9424,-1.9424,-1.9424,-1.9424,-1.9424,-1.9424,-1.9424,-1.9424,-1.9424,-1.9424,-1.9424,-1.9424,-2.008,-2.0094,-2.0127,-2.0221,-2.0401,-2.0535,-2.0535,-2.0702,-2.0862,-2.0955,-2.0969,-2.0935,-2.0842,-2.0915,-2.0969,0.0,-2.0969,-2.0969,0.0,-2.0882,-2.0742,-2.0541,-2.0535,-2.0394,-2.01,-2.0094,-2.0047,-1.996,0.0,0.0,0.0,-1.8914,-1.8734,-1.8734,-1.8734,-1.8784,-1.8799,-1.793,-1.7464,-1.7207,-1.6334,-1.5882,-1.5589,-1.5659,-1.5038,-1.4263,-1.4263,-1.3617,-1.277,-1.277,-1.277,-1.277,-1.277,-1.277,-1.277,-1.277,-1.277,-1.277,-1.277,-1.277,-1.277,-1.277,-1.2791,-1.2751,-1.2751,-1.2613,-1.2558,-1.2754,-1.3035,-1.3346,-1.3705,-1.3347,-1.3024,-1.3024,-1.2668,0.0,0.0,0.0,0.0,0.0,-1.6037,-1.6626,0.0,-1.7935,0.0,0.0,0.0,0.0,0.0,0.0,0.0,0.0,-1.9424,0.0,-1.9424,-1.9424,-1.9424,-1.9424,-1.9424,-1.9424,-1.9424,-1.9424,-1.9424,-1.9424,-1.9424,-1.9424,-1.9424,-1.9424,-1.9424,-1.9424,-1.9424,-1.9424,-1.9424,-1.9424,-1.9424,-1.9424,-2.0374,-2.0401,-2.0434,-2.0541,-2.0715,-2.0842,-2.0842,-2.0995,-2.1109,-2.1109,-2.1109,-2.1109,-2.1109,-2.1109,0.0,-2.1109,-2.1109,-2.1109,-2.1109,-2.1109,-2.1029,-2.0848,-2.0842,-2.0702,-2.0408,-2.0401,0.0,-2.0173,-2.0173,-2.0173,-2.0173,-2.0173,-2.0173,-2.0173,-2.0173,-2.0294,-2.0333,-1.9517,-1.9051,-1.8662,-1.7892,-1.7352,-1.698,-1.698,-1.6462,-1.5684,-1.5684,-1.4777,-1.3613,-1.3613,-1.3227,-1.277,-1.277,-1.277,-1.277,-1.277,-1.277,-1.277,-1.277,-1.277,-1.277,-1.277,-1.277,-1.277,-1.277,-1.2747,-1.2746,-1.3071,-1.2938,-1.2965,-1.3378,-1.2907,-1.2483,-1.2483,-1.213,-1.2074,-1.29,0.0,0.0,0.0,0.0,0.0,0.0,-1.7226,-1.8175,0.0,0.0,0.0,0.0,0.0,0.0,-1.9424,-1.9424,0.0,-1.9424,-1.9424,-1.9424,-1.9424,-1.9424,-1.9424,-1.9424,-1.9424,-1.9424,-1.9424,-1.9424,-1.9424,-1.9424,-1.9424,-1.9424,-1.9424,-1.9424,-1.9424,-1.9424,-1.9424,-1.9432,-1.9533,-2.0655,-2.0708,-2.0795,0.0,-2.1109,0.0,-2.1109,-2.1109,-2.1109,-2.1109,-2.1109,-2.1109,-2.1109,-2.1109,-2.1109,-2.1109,0.0,0.0,0.0,-2.1109,-2.1109,-2.1109,-2.1109,-2.0982,-2.0715,-2.0708,-2.0575,-2.0233,-2.0233,-2.0233,-2.0233,-2.0233,-2.0233,-2.0233,-2.0233,-2.0448,-2.0708,-2.0708,-2.009,-1.917,-1.917,-1.8396,-1.7302,-1.7302,-1.7232,-1.7173,-1.7173,-1.6268,-1.5038,-1.5038,-1.4132,-1.2968,-1.2968,-1.2902,-1.277,-1.277,-1.277,-1.277,-1.277,-1.277,-1.277,-1.277,-1.277,-1.277,-1.277,-1.277,-1.3111,-1.4157,-1.4201,-1.4361,-1.5364,-1.4485,-1.3564,-1.355,-1.2548,-1.1776,-1.1776,0.0,0.0,0.0,0.0,0.0,0.0,-1.4857,-1.6101,0.0,0.0,0.0,0.0,0.0,-1.9424,-1.9424,-1.9424,-1.9424,-1.9424,-1.9424,-1.9424,-1.9424,-1.9424,-1.9424,-1.9424,-1.9424,-1.9424,-1.9424,-1.9424,-1.9424,-1.9424,-1.9424,-1.9424,-1.9424,-1.9424,-1.9424,-1.943,-1.945,-1.9573,-1.9806,0.0,0.0,-2.1029,-2.1096,-2.1109,-2.1109,-2.1109,-2.1109,-2.1109,-2.1109,-2.1109,-2.1109,-2.1109,-2.1109,-2.1109,-2.1109,-2.1109,-2.1109,-2.1109,-2.1109,-2.1109,-2.1109,-2.1109,-2.1076,-2.1009,-2.1009,-2.0969,-2.0902,-2.0902,-2.0902,-2.0902,-2.0902,-2.0902,-2.0902,-2.0902,-2.0942,-2.1009,-2.1009,-2.0853,-2.0589,-2.0589,-2.0399,-2.0138,-2.0138,-1.9489,-1.8524,-1.8524,-1.7619,-1.6522,-1.6522,-1.5554,-1.439,-1.439,-1.3678,-1.277,-1.277,-1.277,-1.277,-1.277,-1.277,-1.277,-1.277,-1.277,-1.277,-1.277,-1.277,-1.289,-1.3168,-1.3074,-1.3012,-1.3143,-1.27,-1.2346,-1.2272,-1.2014,-1.1776,-1.1776,-1.2074,0.0,0.0,-1.29,-1.3725,-1.3725,-1.4857,-1.6101,0.0,0.0,0.0,0.0,-1.9424,-1.9424,-1.9424,-1.9424,-1.9424,-1.9424,-1.9424,-1.9424,-1.9424,-1.9424,-1.9424,-1.9424,-1.9424,-1.9424,-1.9424,-1.9424,-1.9424,-1.9424,-1.9424,-1.9424,-1.9424,-1.9424,-1.9424,-1.9392,-1.9619,-1.974,-1.9833,-2.1109,-2.1109,-2.1109,-2.1109,-2.1109,-2.1109,-2.1109,-2.1109,-2.1109,-2.1109,-2.1109,-2.1109,-2.1109,-2.1109,-2.1109,-2.1109,-2.1109,-2.1109,-2.1109,-2.1109,-2.1109,-2.1109,-2.1109,-2.1109,-2.1109,-2.1109,-2.1109,-2.1109,-2.1109,-2.1109,-2.1109,-2.1109,-2.1109,-2.1109,-2.1109,-2.1109,-2.1109,-2.1109,-2.1109,-2.1109,-2.1109,-2.1109,-2.1109,-2.1109,-2.0659,-1.9947,-1.9947,-1.91,-1.7876,-1.7876,-1.6974,-1.5879,-1.5879,-1.5364,-1.4586,-1.3936,-1.3293,-1.277,-1.277,-1.277,-1.277,-1.277,-1.277,-1.277,-1.277,-1.277,-1.277,-1.277,-1.269,-1.2511,-1.2341,-1.2154,-1.1975,-1.1805,-1.1776,-1.1776,-1.1776,-1.1776,0.0,-1.1776,-1.2427,-1.284,-1.284,-1.3968,-1.503,-1.5736,-1.6273,0.0,-1.7642,-1.7642,-1.8181,-1.9366,-1.9424,-1.9424,-1.9424,-1.9499,-1.9566,-1.9566,-1.97,-1.9693,-1.9566,-1.9566,-1.9492,-1.9424,-1.9424,-1.9424,-1.9424,-1.9424,-1.9424,-1.9424,-1.9424,-1.9089,-1.8625,-1.8771,-1.862,-1.83,-2.1109,-2.1109,-2.1109,-2.1109,-2.1109,-2.1109,-2.1109,-2.1109,-2.1109,-2.1109,-2.1109,-2.1109,-2.1109,-2.1109,-2.1109,-2.1109,-2.1109,-2.1109,-2.1109,-2.1109,-2.1109,-2.1109,-2.1109,-2.1109,-2.1109,-2.1109,-2.1109,-2.1109,-2.1109,-2.1109,-2.1109,-2.1109,-2.1109,-2.1109,-2.1109,-2.1109,-2.1109,-2.1109,-2.1109,-2.1109,-2.1109,-2.1109,-2.1109,-2.1109,-2.1109,-2.1109,-2.1109,-2.0329,-1.9297,-1.9297,-1.8396,-1.7297,-1.7297,-1.7168,-1.6786,-1.5554,-1.439,-1.3358,-1.2902,-1.277,-1.277,-1.277,-1.277,-1.277,-1.277,-1.277,-1.277,-1.277,-1.2714,-1.2552,-1.2377,-1.2194,-1.2016,-1.1841,-1.1792,-1.1776,-1.1776,0.0,-1.1776,-1.1776,-1.1776,-1.1776,-1.1776,-1.2784,-1.349,-1.3665,-1.4679,-1.5391,-1.5569,-1.5575,-1.6596,-1.8771,-1.8855,-1.8914,-1.9193,-1.9233,-1.9436,-1.9867,-1.9872,-1.9859,-1.9867,-1.9867,-1.9733,-1.9499,-1.9271,-1.9193,-1.9186,-1.8907,-1.8836,-1.8836,-1.8875,-1.8258,-1.7445,-1.7502,-1.7134,-1.6557,-2.1109,-2.1109,-2.1109,-2.1109,-2.1109,-2.1109,-2.1109,-2.1109,-2.1109,-2.1109,-2.1109,-2.1109,-2.1109,-2.1109,-2.1109,-2.1109,-2.1109,-2.1109,-2.1109,-2.1109,-2.1109,-2.1109,-2.1109,-2.1109,-2.1109,-2.1109,-2.1109,-2.1109,-2.1109,-2.1109,-2.1109,-2.1109,-2.1109,-2.1109,-2.1109,-2.1109,-2.1109,-2.1109,-2.1109,-2.1109,-2.1109,-2.1109,-2.1109,-2.1109,-2.1109,-2.1109,-2.1109,-2.0976,-2.0786,-2.0786,-1.9877,-1.8716,-1.8716,-1.7876,-1.6974,-1.6716,-1.6527,-1.5814,-1.342,-1.277,-1.277,-1.277,-1.277,-1.277,-1.277,-1.277,-1.277,-1.277,-1.2746,-1.2739,-1.2556,-1.2381,-1.2203,-1.202,-1.187,-1.1776,-1.1776,0.0,-1.1776,-1.1776,-1.1776,-1.1776,-1.1776,-1.1953,-1.2548,-1.361,-1.3904,-1.4441,-1.5515,-1.5575,-1.5839,-1.6331,-1.6267,-1.6795,-1.8144,-1.7135,-1.7824,-2.0107,-1.9033,-1.9094,-2.0167,-2.0167,-2.014,-2.0027,-1.8674,-1.8151,-1.8007,-1.6724,-1.6166,-1.6183,-1.6319,-1.6238,-1.6161,-1.6707,-1.6845,-1.684,-2.1109,-2.1109,-2.1109,-2.1109,-2.1109,-2.1109,-2.1109,-2.1109,-2.1109,-2.1109,-2.1109,-2.1109,-2.1109,-2.1109,-2.1109,-2.1109,-2.1109,-2.1109,-2.1109,-2.1109,-2.1109,-2.1109,-2.1109,-2.1109,-2.1109,-2.1109,-2.1109,-2.1109,-2.1109,-2.1109,-2.1109,-2.1109,-2.1109,-2.1109,-2.1109,-2.1109,-2.1109,-2.1109,-2.1109,-2.1109,-2.1109,-2.1109,-2.1109,-2.1109,-2.1109,-2.1109,-2.1109,-2.1109,-2.1109,-2.1109,-2.0652,-2.0138,-2.0138,-1.9686,-1.9042,-1.8326,-1.7039,-1.5619,-1.4263,-1.3354,-1.277,-1.277,-1.277,-1.277,-1.277,-1.277,-1.277,-1.277,-1.277,-1.2779,-1.2596,-1.2499,-1.2606,-1.293,-1.2388,0.0,0.0,-1.2251,-1.1776,-1.1776,-1.1776,-1.1776,-1.1776,-1.1776,-1.2014,-1.2603,-1.2664,-1.2944,-1.3649,-1.3653,-1.3746,-1.3894,-1.5212,-1.6182,-1.6897,-1.6531,-1.6958,-1.8214,-1.7788,-1.7782,-1.8208,-1.8208,-1.8137,-1.7933,-1.7259,-1.6958,-1.6902,-1.6308,-1.6012,-1.6033,-1.6206,-1.5866,-1.544,-1.5744,-1.547,-1.4999,-2.1109,-2.1109,-2.1109,-2.1109,-2.1109,-2.1109,-2.1109,-2.1109,-2.1109,-2.1109,-2.1109,-2.1109,-2.1109,-2.1109,-2.1109,-2.1109,-2.1109,-2.1109,-2.1109,-2.1109,-2.1109,-2.1109,-2.1109,-2.1109,-2.1109,-2.1109,-2.1109,-2.1109,-2.1109,-2.1109,-2.1109,-2.1109,-2.1109,-2.1109,-2.1109,-2.1109,-2.1109,-2.1109,-2.1109,-2.1109,-2.1109,-2.1109,-2.1109,-2.1109,-2.1109,-2.1109,-2.1109,-2.1109,-2.1109,-2.1109,-2.1109,-2.1109,-2.1109,-2.1109,-2.0912,-1.9814,-1.7748,-1.5814,-1.5494,-1.439,-1.3288,-1.3288,-1.303,-1.277,-1.277,-1.277,-1.277,-1.277,-1.277,-1.2795,-1.2653,-1.2592,-1.279,-1.3501,0.0,0.0,0.0,-1.2487,-1.1821,-1.178,-1.1776,-1.1776,-1.1776,-1.1813,-1.1837,-1.1837,-1.1878,-1.1955,-1.2085,-1.2093,-1.2178,-1.2361,-1.4301,-1.542,-1.5732,-1.5701,-1.5941,-1.6642,-1.6619,-1.6641,-1.6663,-1.6712,-1.6642,-1.6408,-1.6034,-1.5887,-1.5898,-1.5635,-1.5553,-1.5578,-1.5734,-1.5271,-1.4571,-1.4661,-1.4121,-1.3441,-2.1109,-2.1109,-2.1109,-2.1109,-2.1109,-2.1109,-2.1109,-2.1109,-2.1109,-2.1109,-2.1109,-2.1109,-2.1109,-2.1109,-2.1109,-2.1109,-2.1109,-2.1109,-2.1109,-2.1109,-2.1109,-2.1109,-2.1109,-2.1109,-2.1109,-2.1109,-2.1109,-2.1109,-2.1109,-2.1109,-2.1109,-2.1109,-2.1109,-2.1109,-2.1109,-2.1109,-2.1109,-2.1109,-2.1109,-2.1109,-2.1109,-2.1109,-2.1109,-2.1109,-2.1109,-2.1109,-2.1109,-2.1109,-2.1109,-2.1109,-2.1109,-2.1109,-2.1109,-2.1109,-2.1109,-2.0982,-1.9877,-1.846,-1.7168,-1.5814,-1.4782,-1.4782,-1.3744,-1.277,-1.277,-1.277,-1.277,-1.277,-1.277,-1.2832,-1.282,-1.2678,-1.262,-1.272,0.0,0.0,-1.2156,-1.2069,-1.1955,-1.1797,-1.1776,-1.1776,-1.1776,-1.1918,-1.2012,-1.2012,-1.217,-1.2272,-1.2284,-1.2284,-1.2365,-1.254,-1.2737,-1.343,-1.469,-1.3622,-1.4371,-1.6953,-1.5873,-1.5972,-1.716,-1.7369,-1.7392,-1.7294,-1.5884,-1.5271,-1.513,-1.3656,-1.3075,-1.3091,-1.3269,-1.3281,-1.3267,-1.3616,-1.3682,-1.3578,-2.1109,-2.1109,-2.1109,-2.1109,-2.1109,-2.1109,-2.1109,-2.1109,-2.1109,-2.1109,-2.1109,-2.1109,-2.1109,-2.1109,-2.1109,-2.1109,-2.1109,-2.1109,-2.1109,-2.1109,-2.1109,-2.1109,-2.1109,-2.1109,-2.1109,-2.1109,-2.1109,-2.1109,-2.1109,-2.1109,-2.1109,-2.1109,-2.1109,-2.1109,-2.1109,-2.1109,-2.1109,-2.1109,-2.1109,-2.1109,-2.1109,-2.1109,-2.1109,-2.1109,-2.1109,-2.1109,-2.1109,-2.1109,-2.1109,-2.1109,-2.1109,-2.1109,-2.1109,-2.1109,-2.1109,-2.1109,-2.0722,-2.0202,-1.9686,-1.7876,-1.6009,-1.5103,-1.452,-1.3875,-1.303,-1.277,-1.277,-1.277,-1.277,-1.277,-1.277,-1.2779,-1.2954,-1.3667,0.0,-1.2715,-1.3269,-1.269,-1.2178,-1.2113,-1.2105,-1.2105,-1.2105,-1.2166,-1.2203,-1.2203,-1.2268,-1.2353,-1.2462,-1.2576,-1.2666,-1.2731,-1.2735,-1.2988,-1.3505,-1.3062,-1.3358,-1.4394,-1.4064,-1.4156,-1.4695,-1.4896,-1.4987,-1.4914,-1.4371,-1.4069,-1.4006,-1.352,-1.3271,-1.3287,-1.3526,-1.3595,-1.3612,-1.3754,-1.3803,-1.3815,-2.1109,-2.1109,-2.1109,-2.1109,-2.1109,-2.1109,-2.1109,-2.1109,-2.1109,-2.1109,-2.1109,-2.1109,-2.1109,-2.1109,-2.1109,-2.1109,-2.1109,-2.1109,-2.1109,-2.1109,-2.1109,-2.1109,-2.1109,-2.1109,-2.1109,-2.1109,-2.1109,-2.1109,-2.1109,-2.1109,-2.1109,-2.1109,-2.1109,-2.1109,-2.1109,-2.1109,-2.1109,-2.1109,-2.1109,-2.1109,-2.1109,-2.1109,-2.1109,-2.1109,-2.1109,-2.1109,-2.1109,-2.1109,-2.1109,-2.1109,-2.1109,-2.1109,-2.1109,-2.1109,-2.1109,-2.1109,-2.1109,-2.1109,-2.1109,-1.975,-1.7946,-1.6522,-1.5554,-1.4651,-1.3678,-1.3095,-1.277,-1.277,-1.277,-1.277,-1.277,-1.277,-1.3054,-1.3829,-1.3229,-1.2903,-1.3595,-1.2948,-1.2365,-1.2312,-1.2308,-1.2308,-1.2308,-1.2357,-1.2389,-1.2389,-1.2442,-1.2527,-1.2645,-1.2771,-1.277,-1.277,-1.277,-1.277,-1.277,-1.277,-1.277,-1.2774,-1.3011,-1.3092,-1.31,-1.3287,-1.3372,-1.3372,-1.3372,-1.3405,-1.3465,-1.3591,-1.3606,-1.3738,-1.3855,-1.39,-1.39,-1.39,-1.39,-1.39,-2.1109,-2.1109,-2.1109,-2.1109,-2.1109,-2.1109,-2.1109,-2.1109,-2.1109,-2.1109,-2.1109,-2.1109,-2.1109,-2.1109,-2.1109,-2.1109,-2.1109,-2.1109,-2.1109,-2.1109,-2.1109,-2.1109,-2.1109,-2.1109,-2.1109,-2.1109,-2.1109,-2.1109,-2.1109,-2.1109,-2.1109,-2.1109,-2.1109,-2.1109,-2.1109,-2.1109,-2.1109,-2.1109,-2.1109,-2.1109,-2.1109,-2.1109,-2.1109,-2.1109,-2.1109,-2.1109,-2.1109,-2.1109,-2.1109,-2.1109,-2.1109,-2.1109,-2.1109,-2.1109,-2.1109,-2.1109,-2.1109,-2.1109,-2.1109,-2.1109,-2.0786,-1.9361,-1.691,-1.4907,-1.4907,-1.3809,-1.277,-1.277,-1.277,-1.277,-1.277,-1.277,-1.277,-1.277,-1.277,-1.2775,-1.2592,-1.2628,-1.2503,-1.2328,-1.2312,-1.2312,-1.2312,-1.2467,-1.2628,-1.2628,-1.2735,-1.277,-1.277,-1.277,-1.277,-1.277,-1.277,-1.277,-1.277,-1.277,-1.277,-1.2774,-1.3011,-1.3092,-1.31,-1.3287,-1.3372,-1.3372,-1.3372,-1.3474,-1.357,-1.357,-1.3742,-1.3896,-1.3896,-1.3896,-1.3896,-1.3896,-1.3896,-1.3896,-2.1109,-2.1109,-2.1109,-2.1109,-2.1109,-2.1109,-2.1109,-2.1109,-2.1109,-2.1109,-2.1109,-2.1109,-2.1109,-2.1109,-2.1109,-2.1109,-2.1109,-2.1109,-2.1109,-2.1109,-2.1109,-2.1109,-2.1109,-2.1109,-2.1109,-2.1109,-2.1109,-2.1109,-2.1109,-2.1109,-2.1109,-2.1109,-2.1109,-2.1109,-2.1109,-2.1109,-2.1109,-2.1109,-2.1109,-2.1109,-2.1109,-2.1109,-2.1109,-2.1109,-2.1109,-2.1109,-2.1109,-2.1109,-2.1109,-2.1109,-2.1109,-2.1109,-2.1109,-2.1109,-2.1109,-2.1109,-2.1109,-2.1109,-2.1109,-2.1109,-2.0786,-1.9361,-1.7683,-1.6138,-1.5103,-1.3809,-1.277,-1.277,-1.277,-1.277,-1.277,-1.277,-1.277,-1.277,-1.277,-1.282,-1.2763,-1.2755,-1.2735,-1.2686,-1.2678,-1.2678,-1.2678,-1.2726,-1.2755,-1.2755,-1.2804,-1.277,-1.277,-1.277,-1.277,-1.277,-1.277,-1.277,-1.277,-1.277,-1.277,-1.2774,-1.3011,-1.3092,-1.31,-1.3287,-1.3372,-1.3372,-1.3372,-1.3401,-1.3453,-1.3453,-1.3482,-1.353,-1.353,-1.353,-1.353,-1.353,-1.353,-1.353,-2.1109,-2.1109,-2.1109,-2.1109,-2.1109,-2.1109,-2.1109,-2.1109,-2.1109,-2.1109,-2.1109,-2.1109,-2.1109,-2.1109,-2.1109,-2.1109,-2.1109,-2.1109,-2.1109,-2.1109,-2.1109,-2.1109,-2.1109,-2.1109,-2.1109,-2.1109,-2.1109,-2.1109,-2.1109,-2.1109,-2.1109,-2.1109,-2.1109,-2.1109,-2.1109,-2.1109,-2.1109,-2.1109,-2.1109,-2.1109,-2.1109,-2.1109,-2.1109,-2.1109,-2.1109,-2.1109,-2.1109,-2.1109,-2.1109,-2.1109,-2.1109,-2.1109,-2.1109,-2.1109,-2.1109,-2.1109,-2.1109,-2.1109,-2.1109,-2.1109,-2.0912,-2.0068,-1.878,-1.7426,-1.6073,-1.4651,-1.3486,-1.2902,-1.277,-1.277,-1.277,-1.277,-1.277,-1.277,-1.277,-1.277,-1.277,-1.277,-1.277,-1.277,-1.277,-1.277,-1.277,-1.277,-1.277,-1.277,-1.277,-1.277,-1.277,-1.277,-1.277,-1.277,-1.277,-1.277,-1.277,-1.277,-1.277,-1.2774,-1.2942,-1.2994,-1.2994,-1.3108,-1.3161,-1.3161,-1.3161,-1.3197,-1.3262,-1.3262,-1.3303,-1.3372,-1.3372,-1.3372,-1.3372,-1.3372,-1.3372,-1.3372,-2.1109,-2.1109,-2.1109,-2.1109,-2.1109,-2.1109,-2.1109,-2.1109,-2.1109,-2.1109,-2.1109,-2.1109,-2.1109,-2.1109,-2.1109,-2.1109,-2.1109,-2.1109,-2.1109,-2.1109,-2.1109,-2.1109,-2.1109,-2.1109,-2.1109,-2.1109,-2.1109,-2.1109,-2.1109,-2.1109,-2.1109,-2.1109,-2.1109,-2.1109,-2.1109,-2.1109,-2.1109,-2.1109,-2.1109,-2.1109,-2.1109,-2.1109,-2.1109,-2.1109,-2.1109,-2.1109,-2.1109,-2.1109,-2.1109,-2.1109,-2.1109,-2.1109,-2.1109,-2.1109,-2.1109,-2.1109,-2.1109,-2.1109,-2.1109,-2.1109,-2.1109,-2.1109,-2.0138,-1.8844,-1.749,-1.6009,-1.452,-1.3227,-1.2902,-1.277,-1.277,-1.277,-1.277,-1.277,-1.277,-1.277,-1.277,-1.277,-1.277,-1.277,-1.277,-1.277,-1.277,-1.277,-1.277,-1.277,-1.277,-1.277,-1.277,-1.277,-1.277,-1.277,-1.277,-1.277,-1.277,-1.277,-1.277,-1.277,-1.277,-1.277,-1.277,-1.277,-1.277,-1.277,-1.277,-1.2925,-1.3072,-1.3072,-1.3169,-1.3323,-1.3323,-1.3323,-1.3323,-1.3323,-1.3323,-1.3323,-2.1109,-2.1109,-2.1109,-2.1109,-2.1109,-2.1109,-2.1109,-2.1109,-2.1109,-2.1109,-2.1109,-2.1109,-2.1109,-2.1109,-2.1109,-2.1109,-2.1109,-2.1109,-2.1109,-2.1109,-2.1109,-2.1109,-2.1109,-2.1109,-2.1109,-2.1109,-2.1109,-2.1109,-2.1109,-2.1109,-2.1109,-2.1109,-2.1109,-2.1109,-2.1109,-2.1109,-2.1109,-2.1109,-2.1109,-2.1109,-2.1109,-2.1109,-2.1109,-2.1109,-2.1109,-2.1109,-2.1109,-2.1109,-2.1109,-2.1109,-2.1109,-2.1109,-2.1109,-2.1109,-2.1109,-2.1109,-2.1109,-2.1109,-2.1109,-2.1109,-2.1109,-2.1109,-2.0849,-2.0265,-1.8908,-1.6651,-1.4777,-1.452,-1.3551,-1.277,-1.277,-1.277,-1.277,-1.277,-1.277,-1.277,-1.277,-1.277,-1.277,-1.277,-1.277,-1.277,-1.277,-1.277,-1.277,-1.277,-1.277,-1.277,-1.277,-1.277,-1.277,-1.277,-1.277,-1.277,-1.277,-1.277,-1.277,-1.277,-1.277,-1.277,-1.277,-1.277,-1.277,-1.277,-1.277,-1.279,-1.2893,-1.2893,-1.2917,-1.2954,-1.2954,-1.2954,-1.2954,-1.2954,-1.2954,-1.2954,-2.1109,-2.1109,-2.1109,-2.1109,-2.1109,-2.1109,-2.1109,-2.1109,-2.1109,-2.1109,-2.1109,-2.1109,-2.1109,-2.1109,-2.1109,-2.1109,-2.1109,-2.1169,-2.1309,-2.1323,-2.1383,-2.1523,-2.1523,-2.1523,-2.1523,-2.1523,-2.139,-2.1109,-2.1109,-2.1109,-2.1109,-2.1109,-2.1109,-2.1109,-2.1109,-2.1109,-2.1109,-2.1109,-2.1109,-2.1109,-2.1109,-2.1109,-2.1109,-2.1109,-2.1109,-2.1109,-2.1109,-2.1203,-2.1343,-2.1483,-2.1523,-2.1523,-2.1523,-2.1523,-2.1496,-2.1363,-2.1323,-2.1289,-2.1149,-2.1109,-2.1109,-2.1109,-2.1109,-2.0722,-1.9297,-1.7361,-1.5684,-1.5038,-1.3809,-1.277,-1.277,-1.277,-1.277,-1.277,-1.277,-1.277,-1.277,-1.277,-1.277,-1.277,-1.277,-1.277,-1.277,-1.277,-1.277,-1.277,-1.277,-1.277,-1.277,-1.277,-1.277,-1.277,-1.277,-1.277,-1.277,-1.277,-1.277,-1.277,-1.277,-1.277,-1.277,-1.277,-1.277,-1.277,-1.277,-1.277,-1.277,-1.277,-1.277,-1.277,-1.277,-1.277,-1.277,-1.277,-1.277,-1.277,-2.1109,-2.1109,-2.1109,-2.1109,-2.1109,-2.1109,-2.1109,-2.1109,-2.1109,-2.1109,-2.1109,-2.1109,-2.1109,-2.1109,-2.1109,-2.1109,-2.1109,-2.1236,-2.1601,-2.1614,-2.1748,-2.1971,-2.1984,-2.1984,-2.1984,-2.1984,-2.1724,-2.1189,-2.1189,-2.1156,-2.1109,-2.1109,-2.1109,-2.1109,-2.1162,-2.1189,-2.1189,-2.1236,-2.1256,-2.1256,-2.1256,-2.1256,-2.1256,-2.1256,-2.1256,-2.1256,-2.1256,-2.1416,-2.1728,-2.1904,-2.1984,-2.1984,-2.1984,-2.1984,-2.1937,-2.1762,-2.1695,-2.1628,-2.1263,-2.1189,-2.1169,-2.1122,-2.1109,-2.0786,-1.9616,-1.8139,-1.6651,-1.5494,-1.3936,-1.277,-1.277,-1.277,-1.277,-1.277,-1.277,-1.277,-1.277,-1.277,-1.277,-1.277,-1.277,-1.277,-1.277,-1.277,-1.277,-1.277,-1.277,-1.277,-1.277,-1.277,-1.277,-1.277,-1.277,-1.277,-1.277,-1.277,-1.277,-1.277,-1.277,-1.277,-1.277,-1.277,-1.277,-1.277,-1.277,-1.277,-1.277,-1.277,-1.277,-1.277,-1.277,-1.277,-1.277,-1.277,-1.277,-1.277,-2.1109,-2.1109,-2.1109,-2.1109,-2.1109,-2.1109,-2.1109,-2.1109,-2.1109,-2.1109,-2.1109,-2.1109,-2.1109,-2.1109,-2.1109,-2.1109,-2.1109,-2.1236,-2.1601,-2.1614,-2.1748,-2.1971,-2.1984,-2.1984,-2.1984,-2.1984,-2.1824,-2.1561,-2.1561,-2.1363,-2.1109,-2.1109,-2.1109,-2.1122,-2.1376,-2.1561,-2.1574,-2.1764,-2.1871,-2.1871,-2.1871,-2.1871,-2.1871,-2.1871,-2.1871,-2.1871,-2.1871,-2.1897,-2.1931,-2.1971,-2.1984,-2.1984,-2.1984,-2.1984,-2.1977,-2.1937,-2.1931,-2.1864,-2.1641,-2.1561,-2.143,-2.1169,-2.1109,-2.1046,-2.0849,-1.8844,-1.698,-1.6786,-1.4651,-1.277,-1.277,-1.277,-1.277,-1.277,-1.277,-1.277,-1.277,-1.277,-1.277,-1.277,-1.277,-1.277,-1.277,-1.277,-1.277,-1.277,-1.277,-1.277,-1.277,-1.277,-1.277,-1.277,-1.277,-1.277,-1.277,-1.277,-1.277,-1.277,-1.277,-1.277,-1.277,-1.277,-1.277,-1.277,-1.277,-1.277,-1.277,-1.277,-1.277,-1.277,-1.277,-1.277,-1.277,-1.277,-1.277,-1.277,-2.1109,-2.1109,-2.1109,-2.1109,-2.1109,-2.1109,-2.1109,-2.1109,-2.1109,-2.1109,-2.1109,-2.1109,-2.1109,-2.1109,-2.1109,-2.1109,-2.1263,-2.1483,-2.1777,-2.1944,-2.2164,-2.2465,-2.2472,-2.2472,-2.2472,-2.2472,-2.2331,-2.2038,-2.1877,-2.173,-2.1597,-2.1597,-2.1597,-2.1603,-2.1737,-2.1797,-2.1804,-2.1931,-2.1984,-2.1984,-2.1984,-2.1984,-2.1984,-2.1984,-2.1984,-2.2004,-2.2171,-2.2225,-2.2251,-2.2418,-2.2472,-2.2472,-2.2472,-2.2472,-2.2445,-2.2278,-2.2225,-2.2164,-2.1877,-2.1797,-2.1764,-2.163,-2.1476,-2.1356,-2.1356,-1.9086,-1.698,-1.698,-1.5364,-1.3744,-1.2968,-1.277,-1.277,-1.277,-1.277,-1.277,-1.277,-1.277,-1.277,-1.277,-1.277,-1.277,-1.277,-1.277,-1.277,-1.277,-1.277,-1.277,-1.277,-1.277,-1.277,-1.277,-1.277,-1.277,-1.277,-1.277,-1.277,-1.277,-1.277,-1.277,-1.277,-1.277,-1.277,-1.277,-1.277,-1.277,-1.277,-1.277,-1.277,-1.277,-1.277,-1.277,-1.277,-1.277,-1.277,-1.277]},{"header":{"parameterUnit":"m.s-1","parameterCategory":1,"la1":30.6,"la2":28.766,"lo1":-90.7593,"lo2":-88.6598,"dy":0.0162,"dx":0.0183,"nx":116,"ny":114,"refTime":"2024-03-17T06:00:00:Z","depth":0,"parameterNumber":3,"parameterNumberName":"V-component_of_WINDS"},"data":[0.0,0.0,0.0,0.0,0.0,0.0,0.0,0.0,0.0,0.0,0.0,0.0,0.0,0.0,0.0,0.0,0.0,0.0,0.0,0.0,0.0,0.0,0.0,0.0,0.0,0.0,0.0,0.0,0.0,0.0,0.0,0.0,0.0,0.0,0.0,0.0,0.0,0.0,0.0,0.0,0.0,0.0,0.0,0.0,0.0,0.0,0.0,0.0,0.0,0.0,0.0,0.0,0.0,0.0,0.0,0.0,0.0,0.0,0.0,0.0,0.0,0.0,0.0,0.0,0.0,0.0,0.0,0.0,0.0,0.0,0.0,0.0,0.0,0.0,0.0,0.0,0.0,0.0,0.0,0.0,0.0,0.0,0.0,0.0,0.0,0.0,0.0,0.0,0.0,0.0,0.0,0.0,0.0,0.0,0.0,0.0,0.0,0.0,0.0,0.0,0.0,0.0,0.0,0.0,0.0,0.0,0.0,0.0,0.0,0.0,0.0,0.0,0.0,0.0,0.0,0.0,0.0,0.0,0.0,0.0,0.0,0.0,0.0,0.0,0.0,0.0,0.0,0.0,0.0,0.0,0.0,0.0,0.0,0.0,0.0,0.0,0.0,0.0,0.0,0.0,0.0,0.0,0.0,0.0,0.0,0.0,0.0,0.0,0.0,0.0,0.0,0.0,0.0,0.0,0.0,0.0,0.0,0.0,0.0,0.0,0.0,0.0,0.0,0.0,0.0,0.0,0.0,0.0,0.0,0.0,0.0,0.0,0.0,0.0,0.0,0.0,0.0,0.0,0.0,0.0,0.0,0.0,0.0,0.0,0.0,0.0,0.0,0.0,0.0,0.0,0.0,0.0,0.0,0.0,0.0,0.0,0.0,0.0,0.0,0.0,0.0,0.0,0.0,0.0,0.0,0.0,0.0,0.0,0.0,0.0,0.0,0.0,0.0,0.0,0.0,0.0,0.0,0.0,0.0,0.0,0.0,0.0,0.0,0.0,0.0,0.0,0.0,0.0,0.0,0.0,0.0,0.0,0.0,0.0,0.0,0.0,0.0,0.0,0.0,0.0,0.0,0.0,0.0,0.0,0.0,0.0,0.0,0.0,0.0,0.0,0.0,0.0,0.0,0.0,0.0,0.0,0.0,0.0,0.0,0.0,0.0,0.0,0.0,0.0,0.0,0.0,0.0,0.0,0.0,0.0,0.0,0.0,0.0,0.0,0.0,0.0,0.0,0.0,0.0,0.0,0.0,0.0,0.0,0.0,0.0,0.0,0.0,0.0,0.0,0.0,0.0,0.0,0.0,0.0,0.0,0.0,0.0,0.0,0.0,0.0,0.0,0.0,0.0,0.0,0.0,0.0,0.0,0.0,0.0,0.0,0.0,0.0,0.0,0.0,0.0,0.0,0.0,0.0,0.0,0.0,0.0,0.0,0.0,0.0,0.0,0.0,0.0,0.0,0.0,0.0,0.0,0.0,0.0,0.0,0.0,0.0,0.0,0.0,0.0,0.0,0.0,0.0,0.0,0.0,0.0,0.0,0.0,0.0,0.0,0.0,0.0,0.0,0.0,0.0,0.0,0.0,0.0,0.0,0.0,0.0,0.0,0.0,0.0,0.0,0.0,0.0,0.0,0.0,0.0,0.0,0.0,0.0,0.0,0.0,0.0,0.0,0.0,0.0,0.0,0.0,0.0,0.0,0.0,0.0,0.0,0.0,0.0,0.0,0.0,0.0,0.0,0.0,0.0,0.0,0.0,0.0,0.0,0.0,0.0,0.0,0.0,0.0,0.0,0.0,0.0,0.0,0.0,0.0,0.0,0.0,0.0,0.0,0.0,0.0,0.0,0.0,0.0,0.0,0.0,0.0,0.0,0.0,0.0,0.0,0.0,0.0,0.0,0.0,0.0,0.0,0.0,0.0,0.0,0.0,0.0,0.0,0.0,0.0,0.0,0.0,0.0,0.0,0.0,0.0,0.0,0.0,0.0,0.0,0.0,0.0,0.0,0.0,0.0,0.0,0.0,0.0,0.0,0.0,0.0,0.0,0.0,0.0,0.0,0.0,0.0,0.0,0.0,0.0,0.0,0.0,0.0,0.0,0.0,0.0,0.0,0.0,0.0,0.0,0.0,0.0,0.0,0.0,0.0,0.0,0.0,0.0,0.0,0.0,0.0,0.0,0.0,0.0,0.0,0.0,0.0,0.0,0.0,0.0,0.0,0.0,0.0,0.0,0.0,0.0,0.0,0.0,0.0,0.0,0.0,0.0,0.0,0.0,0.0,0.0,0.0,0.0,0.0,0.0,0.0,0.0,0.0,0.0,0.0,0.0,0.0,0.0,0.0,0.0,0.0,0.0,0.0,0.0,0.0,0.0,0.0,0.0,0.0,0.0,0.0,0.0,0.0,0.0,0.0,0.0,0.0,0.0,0.0,0.0,0.0,0.0,0.0,0.0,0.0,0.0,0.0,0.0,0.0,0.0,0.0,0.0,0.0,0.0,0.0,0.0,0.0,0.0,0.0,0.0,0.0,0.0,0.0,0.0,0.0,0.0,0.0,0.0,0.0,0.0,0.0,0.0,0.0,0.0,0.0,0.0,0.0,0.0,0.0,0.0,0.0,0.0,0.0,0.0,0.0,0.0,0.0,0.0,0.0,0.0,0.0,0.0,0.0,0.0,0.0,0.0,0.0,0.0,0.0,0.0,0.0,0.0,0.0,0.0,0.0,0.0,0.0,0.0,0.0,0.0,0.0,0.0,0.0,0.0,0.0,0.0,0.0,0.0,0.0,0.0,0.0,0.0,0.0,0.0,0.0,0.0,0.0,0.0,0.0,0.0,0.0,0.0,0.0,0.0,0.0,0.0,0.0,0.0,0.0,0.0,0.0,0.0,0.0,0.0,0.0,0.0,0.0,0.0,0.0,0.0,0.0,0.0,0.0,0.0,0.0,0.0,0.0,0.0,0.0,0.0,0.0,0.0,0.0,0.0,0.0,0.0,0.0,0.0,0.0,0.0,0.0,0.0,0.0,0.0,0.0,0.0,0.0,0.0,0.0,0.0,0.0,0.0,0.0,0.0,0.0,0.0,0.0,0.0,0.0,0.0,0.0,0.0,0.0,0.0,0.0,0.0,0.0,0.0,0.0,0.0,0.0,0.0,0.0,0.0,0.0,0.0,0.0,0.0,0.0,0.0,0.0,0.0,0.0,0.0,0.0,0.0,0.0,0.0,0.0,0.0,0.0,0.0,0.0,0.0,0.0,0.0,0.0,0.0,0.0,0.0,0.0,0.0,0.0,0.0,0.0,0.0,0.0,0.0,0.0,0.0,0.0,0.0,0.0,0.0,0.0,0.0,0.0,0.0,0.0,0.0,0.0,0.0,0.0,0.0,0.0,0.0,0.0,0.0,0.0,0.0,0.0,0.0,0.0,0.0,0.0,0.0,0.0,0.0,0.0,0.0,0.0,0.0,0.0,0.0,0.0,0.0,0.0,0.0,0.0,0.0,0.0,0.0,0.0,0.0,0.0,0.0,0.0,0.0,0.0,0.0,0.0,0.0,0.0,0.0,0.0,0.0,0.0,0.0,0.0,0.0,0.0,0.0,0.0,0.0,0.0,0.0,0.0,0.0,0.0,0.0,0.0,0.0,0.0,0.0,0.0,0.0,0.0,0.0,0.0,0.0,0.0,0.0,0.0,0.0,0.0,0.0,0.0,0.0,0.0,0.0,0.0,0.0,0.0,0.0,0.0,0.0,0.0,0.0,0.0,0.0,0.0,0.0,0.0,0.0,0.0,0.0,0.0,0.0,0.0,0.0,0.0,0.0,0.0,0.0,0.0,0.0,0.0,0.0,0.0,0.0,0.0,0.0,0.0,0.0,0.0,0.0,0.0,0.0,0.0,0.0,0.0,0.0,0.0,0.0,0.0,0.0,0.0,0.0,0.0,0.0,0.0,0.0,0.0,0.0,0.0,0.0,0.0,0.0,0.0,0.0,0.0,0.0,0.0,0.0,0.0,0.0,0.0,0.0,0.0,0.0,0.0,0.0,0.0,0.0,0.0,0.0,0.0,0.0,0.0,0.0,0.0,0.0,0.0,0.0,0.0,0.0,0.0,0.0,0.0,0.0,0.0,0.0,0.0,0.0,0.0,0.0,0.0,0.0,0.0,0.0,0.0,0.0,0.0,0.0,0.0,0.0,0.0,0.0,0.0,0.0,0.0,0.0,0.0,0.0,0.0,0.0,0.0,0.0,0.0,0.0,0.0,0.0,0.0,0.0,0.0,0.0,0.0,0.0,0.0,0.0,0.0,0.0,0.0,0.0,0.0,0.0,0.0,0.0,0.0,0.0,0.0,0.0,0.0,0.0,0.0,0.0,0.0,0.0,0.0,0.0,0.0,0.0,0.0,0.0,0.0,0.0,0.0,0.0,0.0,0.0,0.0,0.0,0.0,0.0,0.0,0.0,0.0,0.0,0.0,0.0,0.0,0.0,0.0,0.0,0.0,0.0,0.0,0.0,0.0,0.0,0.0,0.0,0.0,0.0,0.0,0.0,0.0,0.0,0.0,0.0,0.0,0.0,0.0,0.0,0.0,0.0,0.0,0.0,0.0,0.0,0.0,0.0,0.0,0.0,0.0,0.0,0.0,0.0,0.0,0.0,0.0,0.0,0.0,0.0,0.0,0.0,0.0,0.0,0.0,0.0,0.0,0.0,0.0,0.0,0.0,0.0,0.0,0.0,0.0,0.0,0.0,0.0,0.0,0.0,0.0,0.0,0.0,0.0,0.0,0.0,0.0,0.0,0.0,0.0,0.0,0.0,0.0,0.0,0.0,0.0,0.0,0.0,0.0,0.0,0.0,0.0,0.0,0.0,0.0,0.0,0.0,0.0,0.0,0.0,0.0,0.0,0.0,0.0,0.0,0.0,0.0,0.0,0.0,0.0,0.0,0.0,0.0,0.0,0.0,0.0,0.0,0.0,0.0,0.0,0.0,0.0,0.0,0.0,0.0,0.0,0.0,0.0,0.0,0.0,0.0,0.0,0.0,0.0,0.0,0.0,0.0,0.0,0.0,0.0,0.0,0.0,0.0,0.0,0.0,0.0,0.0,0.0,0.0,0.0,0.0,0.0,0.0,0.0,0.0,0.0,0.0,0.0,0.0,0.0,0.0,0.0,0.0,0.0,0.0,0.0,0.0,0.0,0.0,0.0,0.0,0.0,0.0,0.0,0.0,0.0,0.0,0.0,0.0,0.0,0.0,0.0,0.0,0.0,0.0,0.0,0.0,0.0,0.0,0.0,0.0,0.0,0.0,0.0,0.0,0.0,0.0,0.0,0.0,0.0,0.0,0.0,0.0,0.0,0.0,0.0,0.0,0.0,0.0,0.0,0.0,0.0,0.0,0.0,0.0,0.0,0.0,0.0,0.0,0.0,0.0,0.0,0.0,0.0,0.0,0.0,0.0,0.0,0.0,0.0,0.0,0.0,0.0,0.0,0.0,0.0,0.0,0.0,0.0,0.0,0.0,0.0,0.0,0.0,0.0,0.0,0.0,0.0,0.0,0.0,0.0,0.0,0.0,0.0,0.0,0.0,0.0,0.0,0.0,0.0,0.0,0.0,0.0,0.0,0.0,0.0,0.0,0.0,0.0,0.0,0.0,0.0,0.0,0.0,0.0,0.0,0.0,0.0,0.0,0.0,0.0,0.0,0.0,0.0,0.0,0.0,0.0,0.0,0.0,0.0,0.0,0.0,0.0,0.0,0.0,0.0,0.0,0.0,0.0,0.0,0.0,0.0,0.0,0.0,0.0,0.0,0.0,0.0,0.0,0.0,0.0,0.0,0.0,0.0,0.0,0.0,0.0,0.0,0.0,0.0,0.0,0.0,0.0,0.0,0.0,0.0,0.0,0.0,0.0,0.0,0.0,0.0,0.0,0.0,0.0,0.0,0.0,0.0,0.0,0.0,0.0,0.0,0.0,0.0,0.0,0.0,0.0,0.0,0.0,0.0,0.0,0.0,0.0,0.0,0.0,0.0,0.0,0.0,0.0,0.0,0.0,0.0,0.0,0.0,0.0,0.0,0.0,0.0,0.0,0.0,0.0,0.0,0.0,0.0,0.0,0.0,0.0,0.0,3.6195,0.0,0.0,0.0,0.0,0.0,0.0,0.0,0.0,0.0,0.0,0.0,0.0,0.0,0.0,0.0,0.0,0.0,0.0,0.0,0.0,0.0,0.0,0.0,0.0,0.0,0.0,0.0,3.5106,3.5146,3.525,3.5231,3.5288,3.5378,3.5769,3.5962,3.5962,3.6479,3.6749,3.6749,3.6855,3.6903,3.6884,3.6477,3.6071,3.5704,0.0,0.0,0.0,0.0,0.0,0.0,0.0,0.0,0.0,0.0,0.0,0.0,0.0,0.0,0.0,0.0,0.0,0.0,0.0,0.0,0.0,0.0,0.0,0.0,0.0,0.0,0.0,0.0,0.0,0.0,0.0,0.0,0.0,0.0,0.0,0.0,0.0,0.0,0.0,0.0,0.0,0.0,0.0,0.0,0.0,0.0,0.0,0.0,0.0,0.0,0.0,0.0,0.0,0.0,0.0,0.0,0.0,0.0,0.0,0.0,0.0,0.0,0.0,0.0,0.0,0.0,0.0,0.0,0.0,0.0,0.0,3.6605,0.0,0.0,0.0,0.0,0.0,0.0,0.0,0.0,0.0,0.0,0.0,0.0,0.0,0.0,0.0,0.0,0.0,0.0,0.0,0.0,0.0,0.0,0.0,3.6055,3.5641,3.5641,3.5641,3.5702,3.5868,3.59,3.5965,3.6124,3.6767,3.7135,3.7135,3.7825,3.8193,3.8193,3.8193,3.8193,3.8174,3.7458,3.6767,3.611,0.0,0.0,0.0,0.0,0.0,0.0,0.0,0.0,0.0,0.0,0.0,0.0,0.0,0.0,0.0,0.0,0.0,0.0,0.0,0.0,0.0,0.0,0.0,0.0,0.0,0.0,0.0,0.0,0.0,0.0,0.0,0.0,0.0,0.0,0.0,0.0,0.0,0.0,0.0,0.0,0.0,0.0,0.0,0.0,0.0,0.0,0.0,0.0,0.0,0.0,0.0,0.0,0.0,0.0,0.0,0.0,0.0,0.0,0.0,0.0,0.0,0.0,0.0,0.0,3.8644,3.8644,3.8644,3.8644,3.8644,3.8644,3.8644,3.8063,3.7135,3.7135,0.0,0.0,0.0,0.0,0.0,0.0,0.0,0.0,0.0,0.0,0.0,0.0,0.0,0.0,0.0,0.0,0.0,0.0,0.0,0.0,0.0,3.7751,3.7797,3.7797,3.7797,3.7809,3.7821,3.7827,3.7833,3.7864,3.7961,3.8019,3.8019,3.8135,3.8193,3.8193,3.8193,3.8193,3.8193,3.8077,3.7961,3.7806,3.6342,0.0,0.0,0.0,0.0,0.0,0.0,0.0,0.0,0.0,0.0,0.0,0.0,0.0,0.0,0.0,0.0,0.0,0.0,0.0,0.0,0.0,0.0,0.0,0.0,0.0,0.0,0.0,0.0,0.0,0.0,0.0,0.0,0.0,0.0,0.0,0.0,0.0,0.0,0.0,0.0,0.0,0.0,0.0,3.6748,3.6748,0.0,0.0,0.0,0.0,0.0,0.0,0.0,0.0,0.0,0.0,0.0,0.0,0.0,3.9694,4.0448,4.0468,4.0468,4.0468,4.0468,4.0468,4.0468,4.0468,4.0468,4.0468,4.0468,0.0,3.8019,3.8019,0.0,0.0,0.0,0.0,0.0,0.0,0.0,0.0,0.0,0.0,0.0,0.0,0.0,0.0,0.0,0.0,0.0,0.0,0.0,0.0,0.0,3.8414,3.8174,3.8244,3.8269,3.8263,3.8266,3.8266,3.8235,3.8193,3.8663,3.8934,3.8934,3.9416,3.9654,3.9654,3.9655,3.9669,3.9649,3.9166,3.8934,3.8876,3.7657,3.7116,3.7077,3.6574,0.0,0.0,0.0,0.0,0.0,0.0,0.0,0.0,0.0,0.0,0.0,0.0,0.0,0.0,0.0,0.0,0.0,0.0,0.0,0.0,0.0,0.0,0.0,0.0,0.0,0.0,0.0,0.0,0.0,0.0,0.0,0.0,0.0,0.0,0.0,0.0,0.0,0.0,0.0,3.7096,3.7632,3.7632,3.7961,3.8392,0.0,0.0,0.0,0.0,0.0,0.0,0.0,0.0,0.0,4.0887,4.1371,4.1816,4.2202,4.2202,4.2202,4.2202,4.2202,4.2202,4.2202,4.2202,4.2202,4.2202,4.2202,4.1487,4.0268,3.9321,3.8644,3.8193,0.0,0.0,0.0,0.0,3.7406,3.7116,0.0,0.0,0.0,0.0,0.0,0.0,0.0,0.0,0.0,0.0,0.0,0.0,3.9747,3.9129,3.8769,3.8903,3.8908,3.8914,3.8938,3.8947,3.8911,3.8868,3.9481,3.9829,3.9829,4.0473,4.08,4.0792,4.1015,4.1132,4.1112,4.0681,4.0352,4.012,3.9456,3.8812,3.8154,3.7516,3.7232,0.0,0.0,0.0,0.0,0.0,0.0,0.0,0.0,0.0,0.0,0.0,0.0,0.0,0.0,0.0,0.0,0.0,0.0,0.0,0.0,0.0,0.0,0.0,0.0,0.0,0.0,0.0,0.0,0.0,0.0,0.0,0.0,0.0,0.0,0.0,0.0,0.0,0.0,3.7986,3.8528,3.8528,3.874,3.9204,0.0,0.0,0.0,0.0,0.0,0.0,4.1429,4.2222,4.257,4.2338,4.3189,4.3537,4.3305,4.3305,4.3305,4.3305,4.3305,4.3305,4.3305,4.3305,4.3305,4.3305,4.3305,4.2937,4.2222,4.0758,3.963,3.8876,3.8876,3.874,3.8528,3.8528,3.8392,3.8193,0.0,0.0,0.0,0.0,0.0,0.0,0.0,0.0,0.0,0.0,0.0,4.0446,4.0454,4.0408,4.0434,4.0558,4.0591,4.061,4.0666,4.0682,4.0659,4.0678,4.0712,4.0739,4.0739,4.0782,4.0792,4.0807,4.1619,4.2027,4.2047,4.2776,4.2667,4.1874,4.1835,4.0481,3.8193,3.8154,3.8135,3.8135,0.0,0.0,0.0,0.0,0.0,0.0,0.0,0.0,0.0,0.0,0.0,0.0,0.0,0.0,0.0,0.0,0.0,0.0,0.0,0.0,0.0,0.0,0.0,0.0,0.0,0.0,0.0,0.0,0.0,0.0,0.0,0.0,0.0,0.0,0.0,0.0,0.0,0.0,0.0,3.9423,4.0178,0.0,0.0,0.0,0.0,4.3111,4.3169,4.3169,4.3169,4.4001,4.4091,4.3266,4.4072,4.413,4.3305,4.3305,4.3305,4.3305,4.3305,4.3305,4.3305,4.3305,4.3305,4.3305,4.3305,4.3285,4.3169,4.2241,4.139,4.0681,4.0681,4.0158,3.9423,3.9423,3.8914,3.8193,0.0,0.0,0.0,0.0,0.0,0.0,0.0,0.0,4.0526,4.0511,4.0462,4.0457,4.05,4.0462,4.0485,4.0621,4.0647,4.0668,4.0724,4.0655,4.0662,4.0784,4.0758,4.0777,4.0859,4.1377,4.166,4.1706,4.2532,4.2941,4.2941,4.322,4.32,4.291,4.2905,4.2389,4.144,3.9758,3.9036,3.8992,3.8431,3.7999,0.0,0.0,0.0,0.0,0.0,0.0,0.0,0.0,0.0,0.0,0.0,0.0,0.0,0.0,0.0,0.0,0.0,0.0,0.0,0.0,0.0,0.0,0.0,0.0,0.0,0.0,0.0,0.0,0.0,0.0,0.0,0.0,0.0,0.0,0.0,0.0,0.0,4.11,4.1874,0.0,4.2802,4.3343,4.3576,4.3324,4.3827,4.3885,4.3324,4.413,4.4458,4.4149,4.4949,4.522,4.491,4.491,4.491,4.491,4.491,4.491,4.491,4.491,4.491,4.4917,4.4957,4.464,4.4117,4.3789,4.317,4.2357,4.1796,4.1371,4.1042,4.0526,4.0139,3.9862,0.0,0.0,0.0,0.0,0.0,0.0,0.0,0.0,4.045,4.0449,4.0386,4.0388,4.0433,4.0392,4.0408,4.0523,4.053,4.0574,4.0655,4.0561,4.0568,4.0687,4.0978,4.1171,4.1266,4.2097,4.2565,4.265,4.3438,4.3848,4.3848,4.4108,4.4108,4.3831,4.3846,4.3685,4.3297,4.1543,4.0635,4.0274,3.9417,3.8895,3.8644,0.0,0.0,0.0,0.0,0.0,0.0,0.0,0.0,0.0,0.0,0.0,0.0,0.0,0.0,0.0,0.0,0.0,0.0,0.0,0.0,0.0,0.0,0.0,0.0,0.0,0.0,0.0,0.0,0.0,0.0,0.0,0.0,0.0,0.0,0.0,4.2106,4.2396,4.2957,4.3421,4.3711,4.4265,4.4465,4.4175,4.4678,4.4871,4.4601,4.5413,4.6032,4.6315,4.7096,4.7521,4.7521,4.7521,4.7528,4.7543,4.7528,4.7374,4.7124,4.7122,4.6786,4.6232,4.6306,4.5841,4.5047,4.5028,4.4705,4.4053,4.2886,4.2434,4.2376,4.1835,4.1641,4.1641,0.0,0.0,0.0,0.0,0.0,0.0,0.0,4.0397,4.0366,4.0301,4.0301,4.0301,4.0301,4.0301,4.0327,4.0389,4.0397,4.0454,4.06,4.0526,4.0515,4.0542,4.1496,4.2034,4.2022,4.2959,4.346,4.3525,4.4372,4.4788,4.4808,4.5613,4.5543,4.4781,4.4781,4.4296,4.3488,4.3452,4.2918,4.2015,4.1184,4.0332,3.9578,0.0,0.0,0.0,0.0,0.0,0.0,0.0,0.0,0.0,0.0,0.0,0.0,0.0,0.0,0.0,0.0,0.0,0.0,0.0,0.0,0.0,0.0,0.0,0.0,0.0,0.0,0.0,0.0,0.0,0.0,0.0,0.0,0.0,4.2054,4.2067,4.2396,4.3247,4.3363,4.373,4.4601,4.4717,4.5065,4.5865,4.5942,4.6329,4.718,4.8005,4.8836,4.9668,5.0422,5.0828,5.0828,5.0828,5.0871,5.0908,5.0871,5.0426,4.9657,4.9652,4.874,4.7142,4.7215,4.6752,4.5977,4.5958,4.5938,4.5769,4.4015,4.3343,4.3343,4.3305,4.3305,4.3305,0.0,0.0,0.0,0.0,0.0,0.0,0.0,4.0327,4.0309,4.031,4.0301,4.0301,4.0301,4.0301,4.0301,4.0327,4.0327,4.0351,4.0454,4.0394,4.0656,4.1352,4.2291,4.2794,4.2802,4.375,4.4278,4.4304,4.5836,4.6582,4.6602,4.7451,4.7392,4.6591,4.6587,4.6096,4.5243,4.4606,4.4181,4.382,4.2343,4.1601,4.1317,0.0,0.0,0.0,0.0,0.0,0.0,0.0,0.0,0.0,0.0,0.0,0.0,0.0,0.0,0.0,0.0,0.0,0.0,0.0,0.0,0.0,0.0,0.0,0.0,0.0,0.0,0.0,0.0,0.0,0.0,0.0,0.0,4.2799,4.2924,4.3499,4.397,4.4214,4.4755,4.5465,4.6402,4.7061,4.7757,4.8578,4.9209,4.9674,4.9906,4.9558,4.9475,4.9762,4.9368,4.9155,4.9155,4.9155,4.9181,4.9194,4.9181,4.9045,4.8826,4.8832,4.8573,4.8115,4.8186,4.805,4.774,4.7158,4.6887,4.6674,4.4925,4.4266,4.4246,4.3613,4.3361,4.3361,0.0,0.0,0.0,0.0,0.0,0.0,0.0,4.0301,4.0301,4.0301,4.0301,4.0301,4.0301,4.0301,4.0301,4.0301,4.0301,4.0319,4.037,4.0687,4.1288,4.2202,0.0,4.374,4.374,4.5028,4.5723,4.5723,4.7154,4.7842,4.7861,4.8366,4.8327,4.7842,4.7845,4.7348,4.6513,4.5999,4.5586,4.5126,4.374,4.2753,4.2044,4.154,4.1122,4.0794,4.0794,4.0794,4.0794,4.0794,0.0,0.0,0.0,0.0,0.0,0.0,0.0,0.0,0.0,0.0,0.0,0.0,0.0,0.0,0.0,0.0,0.0,0.0,0.0,0.0,0.0,0.0,0.0,0.0,4.3186,4.3838,4.4658,4.4592,4.47,4.5351,4.5904,4.6572,4.7484,4.8064,4.8577,4.9083,4.9635,5.0102,5.0484,5.0026,5.0079,5.0816,5.0351,5.0274,5.0635,5.0635,5.0649,5.0681,5.0649,5.0455,5.0138,5.0106,4.9711,4.9052,4.9084,4.8896,4.8509,4.8042,4.7816,0.0,0.0,0.0,0.0,0.0,4.4457,4.4457,0.0,0.0,0.0,0.0,0.0,0.0,0.0,4.0301,4.0301,4.0301,4.0301,4.0301,4.0301,4.0301,4.0301,4.0301,4.0301,4.0339,4.0435,4.1384,4.2298,4.3077,4.4225,4.486,4.486,4.6537,4.7417,4.7417,4.8302,4.8755,4.8755,4.8852,4.8832,4.8755,4.8755,4.8269,4.7448,4.7445,4.6946,4.6074,4.5309,4.3943,4.2369,4.2272,4.171,4.0942,4.0942,4.0884,4.0807,4.0807,0.0,0.0,0.0,0.0,0.0,0.0,0.0,0.0,0.0,0.0,0.0,0.0,0.0,0.0,0.0,0.0,0.0,0.0,0.0,0.0,0.0,0.0,0.0,0.0,4.4414,4.5066,4.656,4.5589,4.5234,4.6638,4.6914,4.7323,4.8209,4.8345,4.8488,4.8748,4.8866,4.9329,5.0196,0.0,0.0,0.0,0.0,5.2549,5.3318,5.3318,5.3358,5.3411,5.3358,5.297,5.2259,5.2194,5.1366,4.9951,4.9963,4.9549,4.8895,4.8798,4.8693,4.8438,4.6833,4.6195,4.6195,4.6092,4.6053,4.6034,0.0,0.0,0.0,0.0,0.0,0.0,0.0,4.0301,4.0301,4.0301,4.0301,4.0301,4.0301,4.0301,4.0301,4.0301,4.0301,4.0578,4.1227,4.2709,4.3636,4.3808,4.5456,4.6373,4.6373,4.7572,4.8199,4.8199,4.9173,4.9654,4.9654,5.0367,5.0328,4.9654,4.9654,4.9163,4.8347,4.8341,4.7856,4.7026,4.686,4.5756,4.4123,4.3424,4.2618,4.184,4.184,4.1394,4.0807,4.0807,4.0807,4.0807,4.0807,0.0,0.0,0.0,0.0,0.0,0.0,0.0,0.0,0.0,0.0,0.0,0.0,0.0,0.0,0.0,0.0,0.0,0.0,0.0,0.0,4.3944,4.5154,4.6179,4.6446,4.6942,4.7451,4.7929,4.8087,4.8514,4.9401,4.9472,5.008,5.1502,5.1632,5.2026,5.2893,5.2285,5.2046,5.2369,5.1747,5.1495,5.1664,5.1664,5.167,5.1676,0.0,0.0,5.1423,5.1417,5.1243,5.0932,5.0938,5.0841,5.0647,4.9934,4.924,4.8561,4.8219,4.8078,4.798,4.7281,4.7029,4.6932,0.0,0.0,0.0,0.0,0.0,0.0,0.0,4.0301,4.0301,4.0301,4.0654,4.0903,4.0903,4.0903,4.0903,4.0903,4.0903,4.1266,4.2106,4.336,4.4288,4.4729,4.6159,4.6962,4.6962,4.8398,4.9155,4.9155,5.0097,5.0542,5.0561,5.1008,5.0969,5.0542,5.0542,5.0076,4.924,4.924,4.8755,4.792,4.7473,4.6782,4.5859,4.4597,4.3562,4.2737,4.231,4.1863,4.1436,4.1004,4.0849,4.0849,4.0849,4.0858,4.0848,0.0,0.0,0.0,0.0,0.0,0.0,0.0,0.0,0.0,0.0,0.0,0.0,0.0,0.0,4.3156,4.3185,0.0,4.5192,4.5192,4.6304,4.73,4.7682,4.8273,4.8644,4.8595,4.8785,4.9189,4.9975,5.0107,5.0507,5.1382,5.152,5.1776,5.2322,5.1934,5.1735,5.1804,5.1416,5.1202,5.1202,5.1202,5.1202,5.1202,5.1202,5.1202,5.1202,5.1202,5.1202,5.1202,5.1202,5.1202,5.1163,5.0736,5.0289,4.9901,4.9901,4.9376,4.8541,4.8114,4.7958,4.79,0.0,0.0,0.0,0.0,0.0,0.0,0.0,4.0778,4.0778,4.0778,4.1342,4.1743,4.1743,4.1743,4.1686,4.1514,4.1495,4.1858,4.2737,4.3656,4.4546,4.5419,4.665,4.7318,4.7318,4.9187,5.0159,5.0159,5.0853,5.1202,5.1202,5.1202,5.1202,5.1202,5.1202,5.0814,5.0159,5.0159,4.9648,4.8774,4.79,4.7442,4.7095,4.5581,4.4485,4.3646,4.2772,4.235,4.2078,4.1199,4.0907,4.0907,4.0907,4.0878,4.0886,4.0886,4.0821,0.0,0.0,0.0,0.0,0.0,0.0,0.0,0.0,0.0,4.2781,4.2888,4.3706,4.4429,4.4488,4.5729,4.6748,4.6748,4.7483,4.8296,4.8995,4.9348,4.9435,4.9203,4.9414,4.9777,5.0331,5.0472,5.0545,5.0547,5.0644,5.0763,5.0929,5.0937,5.0993,5.1102,5.1108,5.1108,5.1108,5.1108,5.1108,5.1108,5.1108,5.1108,5.1108,5.1108,5.1108,5.1108,5.1108,5.1108,5.1108,5.1108,5.1134,5.1153,5.1114,5.0261,4.9043,4.8905,4.8852,4.8832,0.0,0.0,0.0,0.0,0.0,0.0,0.0,0.0,4.2526,4.2526,4.2603,4.2641,4.2641,4.2641,4.2335,4.1571,4.1495,4.1858,4.2737,4.3568,4.44,4.527,4.7103,4.8075,4.8075,5.0028,5.1047,5.1047,5.1144,5.1202,5.1202,5.1202,5.1202,5.1202,5.1202,5.1144,5.1047,5.1047,5.0542,4.9673,4.8813,4.7932,4.7017,4.6126,4.5309,4.454,4.3666,4.285,4.2078,4.1199,4.0907,4.0907,4.0907,4.0853,4.0806,4.0806,0.0,4.0775,4.1489,4.2252,0.0,4.3092,4.3038,4.2972,0.0,0.0,4.4,4.4018,4.5187,4.6222,4.6214,4.7016,4.7654,4.7654,4.8391,4.8995,4.9091,4.9827,5.03,5.0149,5.0374,5.0573,5.0652,5.0661,5.067,5.0678,5.0687,5.0705,5.0722,5.0722,5.0731,5.0767,5.0767,5.0767,5.0767,5.0767,5.0767,5.0767,5.0767,5.0767,5.0767,5.0767,5.0767,5.0767,5.0767,5.0767,5.0767,5.0767,5.0851,5.0993,5.0827,5.0755,5.0653,5.0007,4.9751,4.9635,0.0,0.0,0.0,0.0,0.0,0.0,0.0,0.0,0.0,4.2794,4.3214,4.3491,4.3491,4.3491,4.2966,4.1609,4.1953,4.2412,4.2775,4.3548,4.4399,4.5269,4.6647,4.7647,4.8186,4.9591,5.061,5.1202,5.1202,5.1202,5.1202,5.1202,5.1202,5.1202,5.1202,5.1202,5.1196,5.1121,5.0629,4.9823,4.8871,4.796,4.7125,4.6271,4.5741,4.5252,4.3782,4.3021,0.0,0.0,4.0718,4.0718,4.0718,4.1055,4.1441,4.1441,4.1735,0.0,4.2567,0.0,0.0,0.0,4.3897,4.3888,4.4445,4.4715,4.5007,4.5553,4.6117,4.6674,4.7267,4.8018,4.8563,0.0,4.9251,4.9805,4.9805,5.0141,5.0363,5.0314,5.0399,5.0466,5.0466,5.0466,5.0466,5.0466,5.0466,5.0507,5.0577,5.0587,5.0625,5.0696,5.0705,5.0705,5.0705,5.0705,5.0705,5.0705,5.0705,5.0705,5.0705,5.0705,5.0705,5.0705,5.0705,5.0705,5.0705,5.0705,5.075,5.0819,5.0722,5.0758,5.0789,5.0476,5.0439,5.0468,0.0,0.0,0.0,0.0,0.0,0.0,0.0,0.0,0.0,0.0,4.3997,4.435,4.435,4.414,4.3414,4.1972,4.2221,0.0,0.0,4.3214,4.4055,4.4895,4.6138,4.7115,4.7799,4.8787,4.9651,5.0428,5.0661,5.0809,5.0853,5.1086,5.1202,5.1196,5.1153,5.1023,5.0827,5.0652,5.0155,4.9393,4.8391,4.7661,4.7069,4.6247,4.5693,4.5179,4.3687,4.3132,0.0,0.0,4.0761,4.0954,4.0954,4.1523,4.2187,4.2187,4.2733,4.3371,4.3474,0.0,0.0,4.465,4.4699,4.4793,4.5683,4.5784,4.5954,4.6868,4.7152,4.7431,4.816,4.9119,4.971,4.9461,5.0111,5.0569,5.034,5.0302,5.0302,5.0302,5.0302,5.0302,5.0302,5.0302,5.0302,5.0302,5.0531,5.0704,5.0807,5.1009,5.1177,5.1279,5.1289,5.1174,5.0962,5.0943,5.0827,5.0596,5.0596,5.0596,5.0596,5.0596,5.0596,5.0596,5.0596,5.0596,5.0596,5.0596,5.0605,5.0633,5.0596,5.0605,5.0633,5.0596,5.0735,5.0906,0.0,0.0,0.0,0.0,0.0,0.0,0.0,0.0,0.0,0.0,0.0,0.0,0.0,4.4513,4.3663,4.2832,4.2011,0.0,0.0,4.2354,4.3195,4.4006,4.5803,4.6819,4.6839,4.776,4.8315,4.8482,4.9322,4.9821,4.9965,5.0794,5.1202,5.1196,5.1062,5.061,4.9914,4.966,4.9127,4.8359,4.7345,4.6896,4.6732,4.5995,4.501,4.3991,4.3482,0.0,0.0,0.0,4.1166,4.1854,4.1854,4.2329,0.0,4.2864,4.3388,0.0,0.0,0.0,4.5272,4.5438,4.5465,4.5704,4.6643,4.6758,4.6897,4.778,4.8531,4.9033,4.9052,5.0397,5.1257,5.0397,5.099,5.1276,5.0417,5.0302,5.0302,5.0302,5.0302,5.0302,0.0,5.0302,5.0302,5.0302,5.1085,5.1563,5.1563,5.232,5.2721,5.2733,5.2733,5.2358,5.1575,5.1575,5.1154,5.0314,5.0314,5.0314,5.0314,5.0314,5.0314,5.0314,5.0314,5.0314,5.0314,5.0314,5.0377,5.0497,5.0363,5.0388,5.0486,5.0363,5.0486,5.0705,0.0,0.0,0.0,0.0,0.0,0.0,0.0,0.0,0.0,0.0,0.0,0.0,0.0,0.0,0.0,0.0,0.0,0.0,0.0,4.1762,4.2545,4.393,4.4602,4.5534,4.6772,4.7115,4.7598,4.8269,4.8566,4.8736,4.8774,4.9064,4.9199,4.9219,4.9162,4.9007,4.8766,4.8589,4.8088,4.7364,4.6936,4.6478,4.5971,4.5152,4.4534,4.3981,0.0,0.0,0.0,0.0,4.0952,4.1623,4.1623,0.0,4.3742,4.4326,4.4669,4.4878,0.0,0.0,4.5457,4.561,4.597,4.6387,4.6702,4.7117,4.7684,4.8556,4.8933,4.9263,4.9805,5.0837,5.1314,5.0436,5.1028,5.1314,5.0417,5.0302,5.0302,5.0302,5.0818,0.0,0.0,0.0,0.0,5.1162,5.1926,5.2403,5.2403,5.2652,5.2805,5.2805,5.2805,5.2671,5.2403,5.1868,5.1436,5.1162,5.0588,5.0302,5.0302,5.0302,5.0302,5.0302,5.0302,5.0302,5.0302,5.0302,5.0337,5.0363,5.0325,5.0337,5.0363,5.0325,5.0363,5.0423,0.0,0.0,0.0,0.0,0.0,0.0,0.0,0.0,0.0,0.0,0.0,0.0,0.0,0.0,0.0,0.0,0.0,0.0,0.0,0.0,4.1972,4.3061,4.3414,4.4277,4.5764,4.5803,4.6272,4.7251,4.7559,4.7865,4.8205,4.8205,4.8359,4.8649,4.8289,4.799,4.7725,4.753,4.705,4.6397,4.6244,4.5764,4.5047,4.452,4.3876,0.0,0.0,0.0,0.0,4.0903,4.1285,0.0,4.2297,4.3348,4.4571,4.5144,4.5307,4.5328,4.5409,4.5438,4.5515,4.5877,4.6311,4.679,4.7422,4.7914,4.8506,4.9347,4.9519,4.9691,5.0206,5.1257,5.1658,5.0493,5.1276,5.162,5.0455,5.0569,5.076,5.076,5.1505,0.0,0.0,0.0,0.0,5.2059,5.2805,5.3263,5.3263,5.355,5.3722,5.3722,5.3722,5.3569,5.3263,5.2442,5.1735,5.1142,5.0569,5.0302,5.0302,5.0302,5.0302,5.0302,5.0302,5.0302,5.0302,5.0302,5.0302,5.0302,5.0302,5.0302,5.0302,5.0302,5.0302,5.0302,0.0,0.0,0.0,0.0,0.0,0.0,0.0,0.0,0.0,0.0,0.0,0.0,0.0,0.0,0.0,0.0,0.0,0.0,0.0,0.0,0.0,4.1495,4.2297,4.3119,4.3911,4.393,4.4412,4.5351,4.6186,4.7048,4.7921,4.7976,4.8431,4.9174,4.8212,4.7413,4.6728,4.6444,4.5944,4.5342,4.5216,4.4685,4.395,4.4029,0.0,0.0,0.0,0.0,0.0,0.0,0.0,0.0,0.0,4.4628,4.5307,4.5307,4.5307,4.5307,4.5307,4.5326,4.5545,4.6309,4.6577,4.7073,4.8716,4.9129,4.9366,5.0149,5.0302,5.0302,0.0,0.0,5.2212,5.0627,5.1697,5.2174,5.0588,5.1085,5.1589,0.0,0.0,0.0,0.0,0.0,0.0,5.2996,0.0,5.418,5.418,5.4963,5.5403,5.5403,5.5403,5.5002,5.418,5.3263,5.1983,5.0378,5.0321,5.0302,5.0302,5.0302,5.0302,5.0302,5.0302,5.0302,5.0302,5.0302,5.0302,5.0302,5.0302,5.0302,5.0302,5.0302,5.0302,5.0302,0.0,0.0,0.0,0.0,0.0,0.0,0.0,0.0,0.0,0.0,0.0,0.0,0.0,0.0,0.0,0.0,0.0,0.0,0.0,0.0,0.0,0.0,0.0,0.0,0.0,0.0,0.0,4.3494,4.3704,4.3934,4.4183,4.4796,4.5199,4.539,4.513,4.4919,4.471,4.4028,4.3635,4.3484,0.0,4.331,4.3042,0.0,0.0,0.0,0.0,0.0,0.0,0.0,0.0,0.0,0.0,4.5125,4.5307,4.5307,4.5307,4.5307,4.5307,4.5736,4.6233,4.6462,4.7474,4.8556,4.8995,4.9557,5.0054,5.0264,5.0302,5.0302,0.0,0.0,0.0,5.1353,5.1639,0.0,5.1322,5.1455,0.0,0.0,0.0,5.376,5.376,5.4562,0.0,0.0,5.4944,5.5078,5.5078,5.5288,5.5403,5.5403,5.5403,5.5288,5.5078,5.355,5.2289,5.1257,5.0608,5.0302,5.0302,5.0302,5.0302,5.0302,5.0302,5.0302,5.0302,5.0302,5.0302,5.0302,5.0302,5.0302,5.0302,5.0302,5.0302,5.0302,0.0,0.0,0.0,0.0,0.0,0.0,0.0,0.0,0.0,0.0,0.0,0.0,0.0,0.0,0.0,0.0,0.0,0.0,0.0,0.0,0.0,0.0,0.0,0.0,0.0,0.0,0.0,0.0,0.0,0.0,4.3329,4.3433,4.3663,4.3987,4.3624,4.3472,4.3433,4.2985,0.0,0.0,0.0,0.0,0.0,0.0,0.0,0.0,0.0,0.0,0.0,0.0,0.0,4.5114,4.5258,4.5545,4.5755,4.5392,0.0,4.5383,4.5736,4.6156,4.6691,4.7455,4.8372,4.9186,4.9538,4.9977,5.0302,5.0302,5.0302,0.0,0.0,0.0,0.0,0.0,0.0,0.0,5.2079,5.2136,5.227,0.0,5.3874,0.0,5.4677,5.5116,5.5403,0.0,5.5403,5.5403,5.5403,5.5403,5.5403,5.5403,5.5403,5.5231,5.483,5.3855,5.2957,5.2117,5.1276,5.0875,5.0856,5.0474,5.0302,5.0302,0.0,5.0302,5.0302,5.0302,5.0302,5.0302,5.0302,5.0302,5.0302,5.0302,5.0302,5.0302,0.0,0.0,0.0,0.0,0.0,0.0,0.0,0.0,0.0,0.0,0.0,0.0,0.0,0.0,0.0,0.0,0.0,0.0,0.0,0.0,0.0,0.0,0.0,0.0,0.0,0.0,0.0,0.0,0.0,0.0,0.0,0.0,0.0,0.0,0.0,0.0,0.0,0.0,0.0,0.0,0.0,0.0,0.0,0.0,0.0,0.0,0.0,0.0,0.0,0.0,4.5755,4.6214,4.5507,4.5774,4.6194,4.5488,4.5383,4.5602,4.6309,4.6672,4.7207,4.8716,4.9186,4.9442,5.0149,5.0302,5.0302,5.0302,0.0,0.0,5.0302,0.0,5.1505,5.1735,0.0,5.1792,5.2824,5.2862,5.311,5.4008,5.4868,5.5403,5.5403,5.5403,5.5403,5.5403,5.5403,5.5403,5.5403,5.5403,5.5403,5.5403,5.5403,5.504,5.4276,5.4161,5.3722,5.2957,5.2155,5.1773,5.1735,5.099,5.0569,5.0474,5.0474,0.0,5.0302,5.0302,5.0302,5.0302,5.0302,5.0302,5.0302,5.0302,5.0302,5.0302,0.0,0.0,0.0,0.0,0.0,0.0,0.0,0.0,0.0,0.0,4.4236,4.4236,0.0,0.0,0.0,0.0,0.0,0.0,0.0,0.0,0.0,0.0,0.0,0.0,0.0,0.0,0.0,0.0,0.0,0.0,0.0,0.0,0.0,0.0,0.0,0.0,0.0,0.0,0.0,0.0,0.0,0.0,0.0,0.0,0.0,0.0,0.0,0.0,0.0,0.0,4.5392,4.5468,4.5345,4.5403,4.5468,4.5345,4.5774,4.6328,4.6462,4.7551,4.8716,4.9033,4.9595,5.013,5.0264,5.0302,0.0,0.0,0.0,5.0302,5.0302,5.0417,0.0,5.2365,0.0,0.0,0.0,0.0,5.311,0.0,0.0,0.0,0.0,0.0,0.0,0.0,0.0,5.5403,5.5403,5.5403,5.5403,5.5403,5.5403,5.5326,5.5193,5.4467,5.4027,5.3855,5.2996,5.2594,5.2594,5.2442,5.2002,5.136,5.136,0.0,5.0302,5.0302,5.0302,5.0302,5.0302,5.0302,5.0302,5.0302,5.0302,5.0302,0.0,0.0,0.0,0.0,0.0,0.0,0.0,4.5307,4.4991,4.4102,4.3643,4.3386,4.3386,4.2622,0.0,0.0,0.0,0.0,0.0,0.0,0.0,0.0,0.0,0.0,0.0,0.0,0.0,0.0,0.0,0.0,0.0,0.0,0.0,0.0,0.0,0.0,0.0,0.0,0.0,0.0,0.0,0.0,0.0,0.0,0.0,0.0,0.0,0.0,0.0,0.0,4.5307,4.5307,4.5307,4.5583,4.5927,4.5927,4.6194,4.671,4.7608,4.8449,4.9194,4.9614,5.0015,5.0302,5.0302,0.0,0.0,0.0,0.0,5.0302,5.0302,0.0,0.0,0.0,0.0,0.0,0.0,0.0,0.0,0.0,0.0,0.0,0.0,0.0,0.0,0.0,0.0,5.5403,5.5403,5.5403,5.5403,5.5403,5.5403,5.5403,5.5403,5.5002,5.4791,5.4772,5.3894,5.3473,5.3454,5.3015,5.2594,5.2212,5.2212,0.0,5.1563,5.1142,5.099,5.0932,5.0474,5.0302,5.0302,5.0302,5.0302,5.0302,0.0,0.0,0.0,0.0,0.0,0.0,0.0,4.5307,4.4991,4.4102,4.331,4.2737,4.2545,4.1762,4.1246,0.0,0.0,0.0,0.0,0.0,0.0,0.0,0.0,0.0,0.0,0.0,0.0,0.0,0.0,0.0,0.0,0.0,0.0,0.0,0.0,0.0,0.0,0.0,0.0,0.0,0.0,0.0,0.0,0.0,0.0,0.0,0.0,0.0,0.0,0.0,4.5307,4.5307,4.5307,4.5736,4.629,4.6462,4.6634,4.7131,4.8678,4.9243,4.95,5.0149,5.0302,5.0302,5.0302,5.0302,0.0,0.0,5.0302,5.0302,5.0302,0.0,0.0,0.0,0.0,0.0,0.0,0.0,0.0,0.0,0.0,0.0,0.0,0.0,0.0,0.0,0.0,0.0,5.5403,5.5403,5.5403,5.5403,5.5403,5.5403,5.5403,5.5403,5.5403,5.5403,5.4715,5.4371,5.4352,5.3664,5.3263,5.3072,5.3072,0.0,0.0,5.2117,5.1868,5.1773,5.0913,5.0588,5.0569,5.0378,5.0302,5.0302,0.0,0.0,0.0,0.0,0.0,0.0,0.0,4.5307,4.4991,4.4102,4.331,4.2507,4.1705,4.0903,4.0416,0.0,0.0,0.0,0.0,0.0,0.0,0.0,0.0,0.0,0.0,0.0,0.0,0.0,0.0,0.0,0.0,0.0,0.0,0.0,0.0,0.0,0.0,0.0,0.0,0.0,0.0,0.0,0.0,0.0,0.0,0.0,0.0,0.0,0.0,0.0,0.0,4.5307,4.5307,4.5364,4.5545,4.629,0.0,0.0,4.8831,4.9633,5.0206,5.0283,5.0302,5.0302,5.0302,0.0,0.0,5.0302,5.0302,5.0302,5.0302,5.0302,0.0,0.0,0.0,0.0,0.0,0.0,0.0,0.0,0.0,0.0,0.0,0.0,0.0,0.0,0.0,0.0,5.5403,5.5403,5.5403,5.5403,5.5403,5.5403,5.5403,5.5403,5.5403,5.5403,5.5326,5.5288,5.5288,5.5212,5.4734,5.397,5.397,0.0,0.0,5.2709,5.269,5.2614,5.1811,5.1486,5.1391,5.0588,5.0302,5.0302,0.0,0.0,0.0,0.0,0.0,0.0,4.5307,4.5307,4.4991,4.4102,4.372,4.3214,4.2374,4.1533,4.0826,0.0,0.0,0.0,0.0,0.0,0.0,0.0,0.0,0.0,0.0,0.0,0.0,0.0,0.0,0.0,0.0,0.0,0.0,0.0,0.0,0.0,0.0,0.0,0.0,0.0,0.0,0.0,0.0,0.0,0.0,0.0,0.0,0.0,0.0,0.0,0.0,0.0,4.5307,4.5307,0.0,0.0,4.7131,4.7979,4.885,4.9691,5.0302,5.0302,5.0302,5.0302,5.0302,0.0,0.0,5.0302,5.0302,5.0302,5.0302,5.0302,5.0417,0.0,0.0,0.0,0.0,0.0,0.0,0.0,0.0,0.0,0.0,0.0,0.0,0.0,0.0,0.0,5.5403,5.5403,5.5403,5.5403,5.5403,5.5403,5.5403,5.5403,5.5403,5.5403,5.5403,5.5403,5.5403,5.5403,5.5212,5.4887,5.4887,0.0,0.0,5.3798,5.3569,5.3492,5.2652,5.2327,5.2212,5.1391,5.1085,5.1009,0.0,0.0,0.0,0.0,0.0,4.5307,4.5307,4.5307,4.5067,4.4456,4.4159,4.3777,4.3214,4.2393,4.1552,4.0731,0.0,0.0,0.0,0.0,0.0,0.0,0.0,0.0,0.0,0.0,0.0,0.0,0.0,0.0,0.0,0.0,0.0,0.0,0.0,0.0,0.0,0.0,0.0,0.0,0.0,0.0,0.0,0.0,0.0,0.0,0.0,0.0,0.0,0.0,0.0,0.0,0.0,0.0,0.0,0.0,4.7131,4.7979,4.885,4.9691,5.0302,5.0302,5.0302,5.0302,0.0,0.0,5.0302,5.0302,5.0302,5.0302,5.0302,5.0302,5.0302,0.0,0.0,0.0,0.0,0.0,0.0,0.0,0.0,0.0,0.0,0.0,0.0,0.0,0.0,0.0,5.5403,5.5403,5.5403,5.5403,5.5403,5.5403,5.5403,5.5403,5.5403,5.5403,5.5403,5.5403,5.5403,5.5403,5.5403,5.5403,5.5403,0.0,0.0,5.4734,5.4486,5.4409,5.3511,5.3168,5.3072,5.227,5.1811,5.1513,0.0,0.0,0.0,0.0,0.0,0.0,4.5307,4.5307,4.5307,4.5288,4.4551,4.4006,4.3987,4.3271,4.2431,4.1552,0.0,0.0,0.0,0.0,0.0,0.0,0.0,0.0,0.0,0.0,0.0,0.0,0.0,0.0,0.0,0.0,0.0,0.0,0.0,0.0,0.0,0.0,0.0,0.0,0.0,0.0,0.0,0.0,0.0,0.0,0.0,0.0,0.0,0.0,0.0,0.0,0.0,0.0,0.0,0.0,4.7131,4.7979,4.885,4.9691,5.0302,5.0302,5.0302,5.0302,0.0,0.0,5.0302,5.0302,5.0302,5.0302,5.0302,5.0302,5.0302,5.0302,0.0,0.0,0.0,0.0,0.0,0.0,0.0,0.0,0.0,0.0,0.0,0.0,0.0,0.0,5.5403,5.5403,5.5403,5.5403,5.5403,5.5403,5.5403,5.5403,5.5403,5.5403,5.5403,5.5403,5.5403,5.5403,5.5403,0.0,0.0,0.0,0.0,5.5403,5.5403,5.5307,5.4428,5.4085,5.397,5.311,5.2289,5.1589,0.0,0.0,0.0,0.0,0.0,0.0,0.0,4.5307,4.5307,4.5307,4.5048,4.4895,4.4895,4.4131,4.351,4.3223,0.0,0.0,0.0,0.0,0.0,0.0,0.0,0.0,0.0,0.0,4.0301,4.0301,4.0301,0.0,0.0,0.0,0.0,0.0,0.0,0.0,0.0,0.0,0.0,0.0,0.0,0.0,0.0,0.0,0.0,0.0,0.0,0.0,0.0,0.0,0.0,0.0,0.0,0.0,0.0,4.5602,4.6252,4.7111,4.7971,4.8831,4.9614,5.0168,5.0302,5.0302,5.0302,0.0,5.0302,5.0302,5.0302,5.0302,5.0302,5.0302,5.0512,5.1085,5.2098,0.0,0.0,0.0,0.0,0.0,0.0,0.0,0.0,0.0,0.0,0.0,0.0,0.0,5.5403,5.5403,5.5403,5.5403,5.5403,5.5403,5.5403,5.5403,5.5403,5.5403,5.5403,5.5403,5.5403,5.5403,5.5403,0.0,0.0,0.0,0.0,5.5403,5.5403,5.5365,5.5097,5.5002,5.4887,5.4008,5.3531,5.3148,0.0,0.0,0.0,0.0,0.0,0.0,0.0,4.5307,4.5307,4.5307,4.5307,4.5307,4.5307,4.4819,4.435,4.4025,0.0,0.0,0.0,0.0,0.0,0.0,0.0,0.0,0.0,4.0301,4.0301,4.0301,4.0301,4.0301,4.0301,4.0301,0.0,0.0,0.0,0.0,0.0,0.0,0.0,0.0,0.0,0.0,4.4102,0.0,0.0,0.0,0.0,0.0,0.0,0.0,0.0,0.0,0.0,0.0,0.0,0.0,4.564,4.6233,0.0,4.8181,4.9224,4.971,5.0073,0.0,0.0,0.0,5.0302,5.0302,5.0302,5.0302,5.0302,5.0302,5.0588,5.1455,5.2289,0.0,0.0,0.0,0.0,0.0,0.0,0.0,0.0,0.0,0.0,0.0,0.0,0.0,5.5403,5.5403,5.5403,5.5403,5.5403,5.5403,5.5403,5.5403,5.5403,5.5403,5.5403,5.5403,5.5403,5.5403,5.5403,0.0,0.0,0.0,0.0,5.5403,5.5403,5.5403,5.5403,5.5403,5.5326,5.4791,5.439,5.3951,0.0,0.0,0.0,0.0,0.0,0.0,0.0,4.5307,4.5307,4.5307,4.5307,4.5307,4.5307,4.5307,4.4972,4.4159,0.0,0.0,0.0,0.0,0.0,0.0,0.0,0.0,0.0,4.0301,4.032,4.0377,4.0377,4.0416,4.0473,4.0473,4.0435,4.0377,0.0,0.0,0.0,0.0,0.0,0.0,0.0,4.3367,0.0,0.0,0.0,0.0,0.0,0.0,0.0,0.0,0.0,0.0,0.0,0.0,0.0,0.0,0.0,0.0,0.0,4.7685,4.9033,4.9091,4.9691,5.0302,0.0,0.0,0.0,5.0302,5.0302,5.0302,5.0302,5.0359,5.0684,5.1544,5.2365,0.0,0.0,0.0,0.0,0.0,0.0,0.0,0.0,0.0,0.0,0.0,0.0,0.0,5.5403,5.5403,5.5403,5.5403,5.5403,5.5403,5.5403,5.5403,5.5403,5.5403,5.5403,5.5403,5.5403,5.5403,5.5403,0.0,0.0,0.0,0.0,5.5403,5.5403,5.5403,5.5403,5.5403,5.5403,5.5403,5.4887,5.418,0.0,0.0,0.0,0.0,0.0,0.0,0.0,0.0,0.0,0.0,4.5307,4.5307,4.5307,4.5307,4.522,0.0,0.0,0.0,0.0,0.0,0.0,0.0,0.0,0.0,0.0,4.0301,4.0597,4.1227,4.1227,4.1552,4.2221,4.2221,4.1858,4.1227,4.1227,4.1227,4.1266,0.0,0.0,0.0,4.3643,4.4227,0.0,0.0,0.0,0.0,4.5307,4.5307,0.0,0.0,0.0,0.0,0.0,0.0,0.0,0.0,4.5307,4.5345,4.5526,0.0,4.8277,4.8938,4.9691,5.0302,0.0,0.0,0.0,0.0,0.0,5.0302,5.0302,5.0837,5.1563,5.2384,5.3244,0.0,0.0,0.0,0.0,0.0,0.0,0.0,0.0,0.0,0.0,0.0,0.0,5.5403,5.5403,5.5403,5.5403,5.5403,5.5403,5.5403,5.5403,5.5403,5.5403,5.5403,5.5403,5.5403,5.5403,5.5403,5.5403,0.0,0.0,0.0,5.5403,5.5403,5.5403,5.5403,5.5403,5.5403,5.5403,5.5403,5.5269,5.5002,0.0,0.0,0.0,0.0,0.0,0.0,0.0,0.0,0.0,0.0,0.0,0.0,0.0,0.0,0.0,0.0,0.0,0.0,0.0,0.0,0.0,0.0,0.0,0.0,4.1982,4.1638,4.1839,4.266,4.2278,4.2335,4.2794,4.2794,4.2545,4.2106,4.2106,4.1858,4.1552,4.2431,4.3271,4.4006,4.4006,0.0,0.0,0.0,0.0,0.0,4.5307,4.5307,0.0,4.5307,4.5307,4.5307,0.0,0.0,0.0,0.0,4.5307,4.5307,4.5307,4.6519,4.7903,4.8391,4.9404,5.0302,5.0302,0.0,0.0,0.0,0.0,0.0,5.0302,0.0,0.0,0.0,0.0,0.0,0.0,0.0,0.0,0.0,0.0,0.0,0.0,0.0,0.0,0.0,0.0,5.5403,5.5403,5.5403,5.5403,5.5403,5.5403,5.5403,5.5403,5.5403,5.5403,5.5403,5.5403,5.5403,5.5403,5.5403,5.5403,0.0,0.0,0.0,5.5403,5.5403,5.5403,5.5403,5.5403,5.5403,5.5403,5.5403,5.5403,5.5326,0.0,0.0,0.0,0.0,0.0,0.0,0.0,0.0,0.0,0.0,0.0,0.0,0.0,0.0,0.0,0.0,0.0,0.0,0.0,0.0,0.0,0.0,0.0,4.3252,4.3796,4.3271,4.3329,4.4006,4.3329,4.3042,4.3176,4.3176,4.3119,4.2985,4.2985,4.2565,4.1934,4.2813,4.3577,4.4197,4.4197,0.0,0.0,0.0,0.0,0.0,0.0,0.0,0.0,4.5307,4.5307,4.5307,4.5307,0.0,0.0,0.0,0.0,0.0,4.5307,4.6519,4.7788,4.7788,4.906,5.0302,5.0302,0.0,0.0,0.0,0.0,0.0,0.0,0.0,0.0,0.0,0.0,0.0,0.0,0.0,0.0,0.0,0.0,0.0,0.0,0.0,0.0,0.0,0.0,5.5403,5.5403,5.5403,5.5403,5.5403,5.5403,5.5403,5.5403,5.5403,5.5403,5.5403,5.5403,5.5403,5.5403,5.5403,5.5403,5.5403,0.0,0.0,5.5403,5.5403,5.5403,5.5403,5.5403,5.5403,5.5403,5.5403,5.5403,5.5403,0.0,0.0,0.0,0.0,0.0,0.0,0.0,0.0,0.0,0.0,0.0,0.0,0.0,0.0,0.0,0.0,0.0,0.0,0.0,0.0,0.0,0.0,4.4208,4.3548,4.3004,4.3529,4.3873,4.4006,4.3873,4.4188,4.4914,4.4914,4.4513,4.3815,4.3815,4.3739,4.3663,4.4551,4.4991,4.5105,4.5105,0.0,0.0,0.0,0.0,0.0,0.0,0.0,0.0,4.5307,4.5307,4.5307,4.5307,0.0,0.0,0.0,0.0,0.0,4.5307,4.6519,4.7788,4.7788,4.906,5.0302,0.0,0.0,0.0,0.0,0.0,0.0,0.0,0.0,0.0,0.0,0.0,0.0,0.0,0.0,0.0,0.0,0.0,0.0,0.0,0.0,0.0,0.0,0.0,5.5403,5.5403,5.5403,5.5403,5.5403,5.5403,5.5403,5.5403,5.5403,5.5403,5.5403,5.5403,5.5403,5.5403,5.5403,5.5403,5.5403,0.0,5.5403,5.5403,5.5403,5.5403,5.5403,5.5403,5.5403,5.5403,5.5403,5.5403,5.5403,0.0,0.0,0.0,0.0,0.0,0.0,0.0,0.0,0.0,0.0,0.0,0.0,0.0,0.0,0.0,0.0,0.0,0.0,0.0,0.0,0.0,4.5307,4.5335,4.5182,4.4819,4.5163,4.5343,4.5343,4.4914,4.4914,4.5307,4.5307,4.4838,4.4025,4.4494,4.4437,4.4064,4.4934,4.5307,4.5307,0.0,0.0,0.0,0.0,0.0,0.0,0.0,0.0,0.0,0.0,4.5307,4.5307,4.5307,0.0,0.0,0.0,0.0,0.0,4.5831,4.6844,4.7903,4.8372,4.9404,0.0,0.0,0.0,0.0,0.0,0.0,0.0,0.0,0.0,0.0,0.0,0.0,0.0,0.0,0.0,0.0,0.0,0.0,0.0,0.0,0.0,0.0,0.0,0.0,0.0,5.5403,5.5403,5.5403,5.5403,5.5403,5.5403,5.5403,5.5403,5.5403,5.5403,5.5403,5.5403,5.5403,5.5403,5.5403,5.5403,0.0,5.5403,5.5403,5.5403,5.5403,5.5403,5.5403,5.5403,5.5403,5.5403,5.5403,5.5403,0.0,0.0,0.0,0.0,0.0,0.0,0.0,0.0,0.0,0.0,0.0,0.0,0.0,0.0,0.0,0.0,0.0,0.0,0.0,0.0,4.5307,4.5307,4.6061,4.6405,4.6214,4.6405,4.6405,4.6214,4.5602,4.5307,4.5307,4.5307,4.4934,4.4331,4.4991,4.4934,4.435,4.501,4.5307,4.5307,0.0,0.0,0.0,0.0,0.0,0.0,0.0,0.0,0.0,0.0,0.0,0.0,0.0,0.0,0.0,4.5307,4.5307,4.5468,4.629,4.7139,4.8009,4.8869,0.0,0.0,0.0,0.0,0.0,0.0,0.0,0.0,0.0,0.0,0.0,0.0,0.0,0.0,0.0,0.0,0.0,0.0,0.0,0.0,0.0,0.0,0.0,0.0,0.0,0.0,5.5403,5.5403,5.5403,5.5403,5.5403,5.5403,5.5403,5.5403,5.5403,5.5403,5.5403,5.5403,5.5403,5.5403,5.5403,5.5403,5.5403,5.5403,5.5403,5.5403,5.5403,5.5403,5.5403,5.5403,5.5403,5.5403,5.5403,5.5403,0.0,0.0,0.0,0.0,0.0,0.0,0.0,0.0,0.0,0.0,0.0,0.0,0.0,0.0,0.0,0.0,0.0,0.0,0.0,0.0,4.5307,4.5307,4.6061,4.6156,4.5392,4.6118,4.6137,4.5403,4.5326,4.5307,4.5307,4.5307,4.5269,4.5201,4.5269,4.5269,4.5201,4.5269,4.5307,4.5307,4.5307,0.0,0.0,0.0,0.0,0.0,0.0,0.0,0.0,0.0,0.0,0.0,0.0,0.0,4.5307,4.5307,4.5307,4.5468,4.629,4.7139,4.8009,4.8869,0.0,0.0,0.0,0.0,0.0,0.0,0.0,0.0,0.0,0.0,0.0,0.0,0.0,0.0,0.0,0.0,0.0,0.0,0.0,0.0,0.0,0.0,0.0,0.0,0.0,0.0,5.5403,5.5403,5.5403,5.5403,5.5403,5.5403,5.5403,5.5403,5.5403,5.5403,5.5403,5.5403,5.5403,5.5403,5.5403,5.5403,5.5403,5.5403,5.5403,5.5403,5.5403,5.5403,5.5403,5.5403,5.5403,5.5403,5.5403,5.5403,0.0,0.0,0.0,0.0,0.0,0.0,0.0,0.0,0.0,0.0,0.0,0.0,0.0,0.0,0.0,0.0,0.0,0.0,0.0,0.0,4.5307,4.5307,4.5583,4.5602,4.5307,4.6099,4.6118,4.5307,4.5307,4.5307,4.5307,4.5307,4.5307,4.5307,4.5307,4.5307,4.5307,4.5307,4.5307,4.5307,4.5307,4.5307,0.0,0.0,0.0,0.0,0.0,0.0,0.0,0.0,4.5307,4.5307,0.0,4.5307,4.5307,4.5307,4.564,4.6233,4.7092,4.7933,4.8812,4.9633,0.0,0.0,0.0,0.0,0.0,0.0,0.0,0.0,0.0,0.0,0.0,0.0,0.0,0.0,0.0,0.0,0.0,0.0,0.0,0.0,0.0,0.0,0.0,0.0,0.0,0.0,5.5403,5.5403,5.5403,5.5403,5.5403,5.5403,5.5403,5.5403,5.5403,5.5403,5.5403,5.5403,5.5403,5.5403,5.5403,5.5403,5.5403,5.5403,5.5403,5.5403,5.5403,5.5403,5.5403,5.5403,5.5403,5.5403,5.5403,5.5403,0.0,0.0,0.0,0.0,0.0,0.0,0.0,0.0,0.0,0.0,0.0,0.0,0.0,0.0,0.0,0.0,0.0,0.0,0.0,4.5307,4.5307,4.5307,4.5307,4.5307,4.5307,4.5831,4.5851,4.5307,4.5307,4.5307,4.5307,4.5307,4.5307,4.5307,4.5307,4.5307,4.5307,4.5307,4.5307,4.5307,4.5307,4.5307,0.0,0.0,0.0,0.0,0.0,0.0,0.0,0.0,4.5307,4.5307,0.0,0.0,4.5307,4.5307,4.587,4.6691,4.7559,4.8449,4.9289,0.0,0.0,0.0,0.0,0.0,0.0,0.0,0.0,0.0,0.0,0.0,0.0,0.0,0.0,0.0,0.0,0.0,0.0,0.0,0.0,0.0,0.0,0.0,0.0,0.0,0.0,0.0,0.0,5.5403,5.5403,5.5403,5.5403,5.5403,5.5403,5.5403,5.5403,5.5403,5.5403,5.5403,5.5403,5.5403,5.5403,5.5403,5.5403,5.5403,5.5403,5.5403,5.5403,5.5403,5.5403,5.5403,5.5403,5.5403,5.5403,5.5403,0.0,0.0,0.0,0.0,0.0,0.0,0.0,0.0,0.0,0.0,0.0,0.0,0.0,0.0,0.0,0.0,0.0,0.0,4.5307,4.5307,4.5307,4.5307,4.5307,4.5307,4.5307,4.5307,4.5307,4.5307,4.5307,4.5307,4.5307,4.5307,4.5307,4.5307,4.5307,4.5307,4.5307,4.5307,4.5307,4.5307,4.5307,4.5307,4.5307,0.0,0.0,0.0,0.0,0.0,0.0,0.0,4.5307,4.5307,0.0,0.0,0.0,4.5307,4.587,4.671,4.7578,4.8449,0.0,0.0,0.0,0.0,0.0,0.0,0.0,0.0,0.0,0.0,0.0,0.0,0.0,0.0,0.0,0.0,0.0,0.0,0.0,0.0,0.0,0.0,0.0,0.0,0.0,0.0,0.0,0.0,0.0,5.5403,5.5403,5.5403,5.5403,5.5403,5.5403,5.5403,5.5403,5.5403,5.5403,5.5403,5.5403,5.5403,5.5403,5.5403,5.5403,5.5403,5.5403,5.5403,5.5403,5.5403,5.5403,5.5403,5.5403,5.5403,5.5403,5.5403,0.0,0.0,0.0,0.0,0.0,0.0,0.0,0.0,0.0,0.0,0.0,0.0,0.0,0.0,0.0,0.0,0.0,0.0,4.5307,4.5307,4.5307,4.5307,4.5307,4.5307,4.5307,4.5307,4.5307,4.5307,4.5307,4.5307,4.5307,4.5307,4.5307,4.5307,4.5307,4.5307,4.5307,4.5307,4.5307,4.5307,4.5307,4.5307,4.5307,0.0,0.0,0.0,0.0,0.0,0.0,0.0,0.0,0.0,4.5307,0.0,0.0,4.5984,4.6748,4.7608,4.8487,4.9308,0.0,0.0,0.0,0.0,0.0,0.0,0.0,0.0,0.0,0.0,0.0,0.0,0.0,0.0,0.0,0.0,0.0,0.0,0.0,0.0,0.0,0.0,0.0,0.0,0.0,0.0,0.0,0.0,0.0,5.5403,5.5403,5.5403,5.5403,5.5403,5.5403,5.5403,5.5403,5.5403,5.5403,5.5403,5.5403,5.5403,5.5403,5.5403,5.5403,5.5403,5.5403,5.5403,5.5403,5.5403,5.5403,5.5403,5.5403,5.5403,5.5403,5.5403,0.0,0.0,0.0,0.0,0.0,0.0,0.0,0.0,0.0,0.0,4.5307,4.5307,0.0,0.0,0.0,0.0,0.0,0.0,0.0,0.0,4.5307,4.5307,4.5307,4.5307,4.5307,4.5307,4.5307,4.5307,4.5307,4.5307,4.5307,4.5307,4.5307,4.5307,4.5307,4.5307,4.5307,4.5307,4.5307,4.5307,4.5307,4.5307,4.5307,0.0,0.0,0.0,0.0,0.0,0.0,0.0,0.0,0.0,4.5307,0.0,0.0,4.6366,4.736,4.843,4.8945,0.0,0.0,0.0,0.0,0.0,0.0,0.0,0.0,0.0,0.0,0.0,0.0,0.0,0.0,0.0,0.0,0.0,0.0,0.0,0.0,0.0,0.0,0.0,0.0,0.0,0.0,0.0,0.0,0.0,0.0,5.5403,5.5403,5.5403,5.5403,5.5403,5.5403,5.5403,5.5403,5.5403,5.5403,5.5403,5.5403,5.5403,5.5403,5.5403,5.5403,5.5403,5.5403,5.5403,5.5403,5.5403,5.5403,5.5403,5.5403,5.5403,5.5403,5.5403,0.0,0.0,4.5122,4.5135,0.0,0.0,0.0,0.0,0.0,0.0,4.5371,4.5362,0.0,0.0,0.0,0.0,0.0,0.0,0.0,0.0,4.5307,4.5307,4.5307,4.5307,4.5307,4.5307,4.5307,4.5307,4.5307,4.5307,4.5307,4.5307,4.5307,4.5307,4.5307,4.5307,4.5307,4.5307,4.5307,4.5307,4.5307,4.5307,4.5307,4.5307,0.0,0.0,0.0,0.0,0.0,0.0,0.0,0.0,4.5307,4.5851,4.6519,4.6596,4.7799,4.9129,0.0,0.0,0.0,0.0,0.0,0.0,0.0,0.0,0.0,0.0,0.0,0.0,0.0,0.0,0.0,0.0,0.0,0.0,0.0,0.0,0.0,0.0,0.0,0.0,0.0,0.0,0.0,0.0,0.0,0.0,0.0,5.5403,5.5403,5.5403,5.5403,5.5403,5.5403,5.5403,5.5403,5.5403,5.5403,5.5403,5.5403,5.5403,5.5403,5.5403,5.5403,5.5403,5.5403,5.5403,5.5403,5.5403,5.5403,5.5403,5.5403,5.5403,5.5403,5.5403,0.0,0.0,4.691,4.7003,0.0,0.0,0.0,0.0,0.0,0.0,0.0,0.0,0.0,0.0,0.0,0.0,0.0,0.0,0.0,0.0,4.5307,4.5307,4.5307,4.5307,4.5307,4.5307,4.5307,4.5307,4.5307,4.5307,4.5307,4.5307,4.5307,4.5307,4.5307,4.5307,4.5307,4.5307,4.5307,4.5307,4.5307,4.5307,4.5307,4.5307,4.5307,0.0,0.0,0.0,0.0,0.0,0.0,0.0,4.5307,4.5851,4.6634,4.7311,4.8277,4.9243,0.0,0.0,0.0,0.0,0.0,0.0,0.0,0.0,0.0,0.0,0.0,0.0,0.0,0.0,0.0,0.0,0.0,0.0,0.0,0.0,0.0,0.0,0.0,0.0,0.0,0.0,0.0,0.0,0.0,0.0,5.5403,5.5403,5.5403,5.5403,5.5403,5.5403,5.5403,5.5403,5.5403,0.0,5.5403,5.5403,5.5403,5.5403,5.5403,5.5403,5.5403,5.5403,5.5403,5.5403,5.5403,5.5403,5.5403,5.5403,5.5403,5.5403,5.5403,5.5403,0.0,0.0,0.0,0.0,0.0,0.0,0.0,0.0,0.0,0.0,0.0,0.0,0.0,0.0,0.0,0.0,4.5442,0.0,0.0,0.0,0.0,4.5307,4.5307,4.5307,4.5307,4.5307,4.5307,4.5307,4.5307,4.5307,0.0,4.5307,4.5307,4.5307,4.5307,4.5307,4.5307,4.5307,4.5307,4.5307,4.5307,4.5307,4.5307,4.5307,4.5307,4.5307,4.5307,0.0,0.0,0.0,0.0,0.0,0.0,0.0,4.7292,4.8181,4.9022,4.9767,0.0,0.0,0.0,0.0,0.0,0.0,0.0,0.0,0.0,0.0,0.0,0.0,0.0,0.0,0.0,0.0,0.0,0.0,0.0,0.0,0.0,0.0,0.0,0.0,0.0,0.0,0.0,0.0,0.0,5.5403,5.5403,5.5403,5.5403,5.5403,5.5403,5.5403,5.5403,5.5403,5.5403,5.5403,5.5403,5.5403,5.5403,5.5403,5.5403,5.5403,5.5403,5.5403,5.5403,5.5403,5.5403,5.5403,5.5403,5.5403,5.5403,5.5403,5.5403,5.5403,0.0,0.0,0.0,0.0,0.0,0.0,0.0,0.0,0.0,0.0,0.0,0.0,0.0,0.0,4.6513,0.0,0.0,0.0,0.0,0.0,0.0,0.0,4.5307,4.5307,4.5307,4.5307,4.5307,4.5307,4.5307,0.0,0.0,0.0,0.0,4.5307,4.5307,4.5307,4.5307,4.5307,4.5307,4.5307,4.5307,4.5307,4.5307,4.5307,4.5307,4.5307,4.5307,4.5307,4.5326,4.5449,0.0,0.0,0.0,0.0,4.8181,4.8888,4.9671,5.0302,0.0,0.0,0.0,0.0,0.0,0.0,0.0,0.0,0.0,0.0,0.0,0.0,0.0,0.0,0.0,0.0,0.0,0.0,0.0,0.0,0.0,0.0,0.0,0.0,0.0,0.0,0.0,0.0,0.0,5.5403,5.5403,5.5403,5.5403,5.5403,5.5403,5.5403,5.5403,5.5403,5.5403,5.5403,5.5403,5.5403,5.5403,5.5403,5.5403,5.5403,5.5403,5.5403,5.5403,5.5403,5.5403,5.5403,5.5403,5.5403,5.5403,5.5403,5.5403,5.5403,0.0,0.0,0.0,0.0,0.0,0.0,0.0,0.0,0.0,0.0,4.8216,4.8003,0.0,0.0,4.7327,4.71,4.6562,0.0,0.0,0.0,0.0,0.0,4.5307,4.5307,4.5307,4.5307,4.5307,4.5307,0.0,0.0,0.0,0.0,0.0,4.5307,0.0,0.0,4.5307,4.5307,4.5307,4.5307,4.5307,4.5307,4.5307,4.5307,0.0,0.0,4.5307,4.5307,4.5411,4.6099,4.6347,0.0,0.0,0.0,0.0,4.9071,4.9671,0.0,0.0,0.0,0.0,0.0,0.0,0.0,0.0,0.0,0.0,0.0,0.0,0.0,0.0,0.0,0.0,0.0,0.0,0.0,0.0,0.0,0.0,0.0,0.0,0.0,0.0,0.0,0.0,0.0,5.5403,5.5403,5.5403,5.5403,5.5403,5.5403,5.5403,5.5403,5.5403,5.5403,5.5403,5.5403,5.5403,5.5403,5.5403,5.5403,5.5403,5.5403,5.5403,5.5403,5.5403,5.5403,5.5403,5.5403,5.5403,5.5403,5.5403,5.5403,5.5403,5.5403,0.0,0.0,0.0,0.0,0.0,0.0,0.0,0.0,0.0,0.0,0.0,4.8911,0.0,0.0,4.7999,4.7881,4.7378,0.0,0.0,0.0,0.0,0.0,4.5545,4.5307,4.5307,4.5307,4.5307,4.5307,0.0,0.0,0.0,4.5307,4.5307,0.0,0.0,0.0,0.0,4.5307,4.5307,4.5307,4.5307,4.5307,4.5307,0.0,0.0,0.0,0.0,0.0,0.0,4.694,4.7234,4.7368,4.8258,0.0,0.0,0.0,0.0,0.0,0.0,0.0,0.0,0.0,0.0,0.0,0.0,0.0,0.0,0.0,0.0,0.0,0.0,0.0,0.0,0.0,0.0,0.0,0.0,0.0,0.0,0.0,0.0,0.0,0.0,0.0,0.0,0.0,5.5403,5.5403,5.5403,5.5403,5.5403,5.5403,5.5403,5.5403,5.5403,5.5403,5.5403,5.5403,5.5403,5.5403,5.5403,5.5403,5.5403,5.5403,5.5403,5.5403,5.5403,5.5403,5.5403,5.5403,5.5403,5.5403,5.5403,5.5403,5.5403,5.5403,0.0,0.0,0.0,0.0,0.0,0.0,0.0,0.0,0.0,0.0,0.0,0.0,0.0,0.0,0.0,0.0,4.8206,0.0,0.0,0.0,0.0,0.0,0.0,4.5831,4.5602,4.5602,4.5488,0.0,0.0,0.0,4.5307,4.5307,4.5307,0.0,4.5307,0.0,0.0,0.0,0.0,0.0,0.0,0.0,0.0,0.0,0.0,0.0,0.0,0.0,0.0,0.0,0.0,0.0,0.0,0.0,0.0,0.0,0.0,0.0,0.0,0.0,0.0,0.0,0.0,0.0,0.0,0.0,0.0,0.0,0.0,0.0,0.0,0.0,0.0,0.0,0.0,0.0,0.0,0.0,0.0,0.0,0.0,0.0,0.0,0.0,0.0,0.0,5.5403,5.5403,5.5403,5.5403,5.5403,5.5403,5.5286,5.5305,5.5403,5.5305,5.5305,5.539,5.5219,5.5159,5.5227,5.5159,5.5118,5.5132,5.5319,5.5403,5.5403,5.5403,5.5403,5.5403,5.5403,5.5403,5.5403,5.5403,5.5403,5.5403,0.0,0.0,0.0,0.0,0.0,0.0,0.0,0.0,0.0,0.0,0.0,0.0,0.0,4.9698,4.9768,4.9631,4.9035,4.8313,0.0,0.0,0.0,0.0,0.0,0.0,0.0,4.6443,0.0,0.0,0.0,0.0,4.5307,4.5307,4.5307,4.5307,4.5307,4.5307,4.5307,0.0,0.0,0.0,0.0,0.0,0.0,0.0,0.0,0.0,0.0,0.0,0.0,0.0,0.0,0.0,0.0,0.0,0.0,0.0,0.0,0.0,0.0,0.0,0.0,0.0,0.0,0.0,0.0,0.0,0.0,0.0,0.0,0.0,0.0,0.0,0.0,0.0,0.0,0.0,0.0,0.0,0.0,0.0,0.0,0.0,0.0,0.0,0.0,0.0,5.5403,5.5403,5.5403,5.5403,5.5403,5.5403,5.5038,5.5004,5.539,5.5023,5.5023,5.539,5.4692,5.4511,5.4806,5.4495,5.4366,5.4399,5.5104,5.5403,5.5403,5.5403,5.5403,5.5403,5.5403,5.5403,5.5403,5.5403,5.5403,5.5403,0.0,0.0,0.0,0.0,0.0,0.0,0.0,0.0,0.0,0.0,0.0,0.0,0.0,5.114,5.1167,5.1124,5.1101,5.0795,5.0139,0.0,0.0,0.0,0.0,0.0,0.0,0.0,0.0,0.0,0.0,4.5812,4.5307,4.5831,4.6366,4.6863,4.5774,4.5307,4.5326,4.5851,0.0,0.0,0.0,0.0,0.0,0.0,0.0,0.0,0.0,0.0,0.0,0.0,0.0,0.0,0.0,0.0,0.0,0.0,0.0,0.0,0.0,0.0,0.0,0.0,0.0,0.0,0.0,0.0,0.0,0.0,0.0,0.0,0.0,0.0,0.0,0.0,0.0,0.0,0.0,0.0,0.0,0.0,0.0,0.0,0.0,0.0,0.0,0.0,0.0,5.5403,5.5403,5.5159,5.5004,5.5004,5.4673,5.4562,5.4673,5.4544,5.4544,5.4692,5.4432,5.4364,5.4479,5.4347,5.4315,5.4296,5.4578,5.4673,5.4673,5.4673,5.4673,5.4673,5.4673,5.4673,5.4673,5.4673,5.4673,5.4673,0.0,0.0,0.0,0.0,0.0,0.0,0.0,0.0,0.0,0.0,0.0,0.0,0.0,0.0,5.2083,5.2126,5.2338,5.2325,5.1967,5.1388,5.0846,5.0359,0.0,0.0,0.0,0.0,0.0,0.0,0.0,0.0,0.0,4.7532,4.7933,4.82,4.7073,4.6587,0.0,0.0,0.0,4.6997,0.0,0.0,4.8296,0.0,0.0,0.0,0.0,0.0,0.0,0.0,0.0,0.0,0.0,0.0,0.0,0.0,0.0,0.0,0.0,0.0,0.0,0.0,0.0,0.0,0.0,0.0,0.0,0.0,0.0,0.0,0.0,0.0,0.0,0.0,0.0,0.0,0.0,0.0,0.0,0.0,0.0,0.0,0.0,0.0,0.0,0.0,0.0,0.0,5.5028,5.478,5.4557,5.4444,5.4347,5.4246,5.4105,5.4105,5.4158,5.4298,5.4053,5.3999,5.4088,5.398,5.3926,5.3926,5.3926,5.4071,5.4315,5.4315,5.4315,5.4315,5.4315,5.4315,5.4315,5.4315,5.4315,5.4315,0.0,0.0,0.0,0.0,0.0,0.0,0.0,0.0,0.0,0.0,0.0,0.0,0.0,0.0,0.0,5.2658,5.2671,5.2671,5.2652,5.2633,5.2698,5.2805,5.2805,0.0,0.0,0.0,0.0,0.0,0.0,0.0,0.0,0.0,4.9901,4.9167,4.9167,4.9167,4.9167,0.0,4.8602,4.7845,0.0,4.8372,4.9148,0.0,0.0,0.0,5.0378,5.0378,0.0,0.0,0.0,0.0,0.0,0.0,0.0,0.0,0.0,0.0,0.0,0.0,0.0,0.0,0.0,0.0,0.0,0.0,0.0,0.0,0.0,0.0,0.0,0.0,0.0,0.0,0.0,0.0,0.0,0.0,0.0,0.0,0.0,0.0,0.0,0.0,0.0,0.0,5.4495,5.4315,5.4315,5.4298,5.4105,5.3701,5.407,5.407,5.3701,5.3682,5.3888,5.4264,5.3541,5.3359,5.3682,5.3357,5.3185,5.3185,5.3185,5.3601,5.4281,5.4281,5.4281,5.4281,5.4281,5.4281,5.4281,5.4281,5.4281,5.4281,0.0,0.0,0.0,0.0,0.0,0.0,0.0,0.0,0.0,0.0,0.0,0.0,0.0,0.0,5.4258,5.4409,5.4422,5.4196,5.3716,5.369,5.3417,5.2824,5.2805,5.269,5.2461,5.2002,0.0,0.0,0.0,0.0,0.0,0.0,0.0,0.0,5.0913,5.0913,5.0837,4.9614,0.0,0.0,4.9366,4.9748,0.0,0.0,0.0,0.0,0.0,5.2098,0.0,0.0,5.141,5.1551,0.0,0.0,0.0,0.0,0.0,0.0,5.1868,0.0,0.0,0.0,0.0,0.0,5.4218,5.4963,0.0,0.0,0.0,0.0,0.0,0.0,0.0,0.0,0.0,0.0,0.0,0.0,0.0,0.0,0.0,0.0,0.0,0.0,0.0,0.0,5.4495,5.4315,5.4315,5.4034,5.37,5.3357,5.344,5.344,5.3336,5.3336,5.338,5.3501,5.3293,5.3248,5.3336,5.323,5.3185,5.3185,5.3185,5.3314,5.3501,5.3501,5.3501,5.3501,5.3501,5.3501,5.3501,5.3501,5.3501,5.3501,0.0,0.0,0.0,0.0,0.0,0.0,0.0,0.0,0.0,0.0,0.0,0.0,0.0,0.0,0.0,5.5214,5.5227,5.5063,5.4664,5.4639,5.4428,5.3913,5.3874,5.3874,5.3874,5.3168,0.0,0.0,0.0,0.0,0.0,0.0,0.0,0.0,5.1589,5.141,0.0,0.0,0.0,0.0,5.0111,0.0,0.0,5.0856,5.1066,0.0,0.0,0.0,5.1697,5.1219,5.1066,0.0,0.0,0.0,0.0,0.0,0.0,0.0,0.0,0.0,0.0,0.0,0.0,0.0,5.3894,5.4772,5.5403,0.0,0.0,0.0,0.0,0.0,0.0,0.0,0.0,0.0,0.0,0.0,0.0,0.0,0.0,0.0,0.0,5.481,5.4509,5.4343,5.4034,5.3851,5.3851,5.3622,5.34,5.3206,5.3185,5.3185,5.3185,5.3185,5.3185,5.3185,5.3185,5.3185,5.3185,5.3185,5.3185,5.3185,5.3185,5.3185,5.3185,5.3185,5.3185,5.3185,5.3185,5.3185,5.3185,5.3185,5.3185,5.3185,0.0,0.0,5.4409,5.4409,5.4409,0.0,0.0,0.0,0.0,0.0,0.0,0.0,0.0,0.0,0.0,0.0,5.5116,5.5116,5.5116,5.5116,5.5116,5.5116,5.5116,5.5116,5.5116,5.3588,0.0,0.0,0.0,0.0,0.0,0.0,0.0,0.0,5.1493,5.1028,0.0,0.0,0.0,5.0302,5.0302,5.0302,0.0,0.0,5.0302,0.0,5.0302,5.0302,5.0302,5.0302,5.0302,0.0,0.0,0.0,0.0,0.0,5.2021,0.0,0.0,0.0,0.0,0.0,0.0,0.0,5.3779,5.4696,5.5403,0.0,0.0,0.0,0.0,0.0,0.0,0.0,0.0,0.0,0.0,0.0,0.0,0.0,0.0,0.0,5.484,5.4495,5.4141,5.3739,5.338,5.3185,5.3185,5.3185,5.3185,5.3185,5.3185,5.3185,5.3185,5.3185,5.3185,5.3185,5.3185,5.3185,5.3185,5.3185,5.3185,5.3185,5.3185,5.3185,5.3185,5.3185,5.3185,5.3185,5.3185,5.3185,5.3185,5.3185,5.3185,5.3185,5.4409,5.4409,5.4409,5.4409,0.0,0.0,0.0,0.0,0.0,0.0,0.0,0.0,0.0,0.0,0.0,0.0,5.3301,5.3301,5.3301,5.3301,5.3301,5.3301,5.3301,5.3301,5.3301,5.2957,5.2881,0.0,0.0,0.0,0.0,0.0,0.0,0.0,5.0875,5.0455,0.0,0.0,0.0,5.0302,5.0302,0.0,5.0302,5.0302,5.0302,5.0302,5.0302,5.0302,5.0302,0.0,5.0302,5.0359,0.0,0.0,0.0,0.0,0.0,0.0,0.0,0.0,0.0,0.0,0.0,0.0,5.3015,5.4276,5.5403,0.0,0.0,0.0,0.0,0.0,0.0,0.0,0.0,0.0,0.0,0.0,0.0,0.0,0.0,0.0,5.484,5.4495,5.4141,5.3739,5.338,5.3185,5.3185,5.3185,5.3185,5.3185,5.3185,5.3185,5.3185,5.3185,5.3185,5.3185,5.3185,5.3185,5.3185,5.3185,5.3185,5.3185,5.3185,5.3185,5.3185,5.3185,5.3185,5.3185,5.3185,5.3185,5.3185,5.3185,5.3185,5.3185,5.4409,5.4439,5.4505,5.4505,0.0,0.0,0.0,0.0,0.0,0.0,0.0,0.0,0.0,0.0,0.0,0.0,0.0,0.0,0.0,0.0,5.2805,5.2805,5.2805,5.2805,5.2805,5.2805,5.2594,5.2193,0.0,0.0,0.0,0.0,0.0,0.0,0.0,0.0,0.0,0.0,5.0302,5.0302,5.0302,0.0,5.0302,5.0302,5.0302,5.0359,5.0799,5.1219,5.1486,5.1085,5.0951,0.0,0.0,5.0302,5.0302,0.0,5.0302,5.0302,0.0,0.0,0.0,5.0837,0.0,0.0,0.0,5.4467,5.5403,0.0,0.0,0.0,0.0,0.0,0.0,0.0,0.0,0.0,0.0,0.0,0.0,0.0,0.0,0.0,5.4591,5.4228,5.3833,5.3482,5.3274,5.3185,5.3185,5.3185,5.3185,5.3185,5.3185,5.3185,5.3185,5.3185,5.3185,5.3185,5.3185,5.3185,5.3185,5.3185,5.3185,5.3185,5.3185,5.3185,5.3185,5.3185,5.3185,5.3185,5.3185,5.3185,5.3185,5.3185,5.3185,5.3185,5.4246,5.4437,5.4528,5.439,0.0,0.0,0.0,0.0,0.0,0.0,0.0,0.0,0.0,0.0,0.0,0.0,0.0,0.0,0.0,0.0,0.0,5.2805,5.2805,5.2728,5.2575,5.2575,5.2174,5.1353,0.0,0.0,0.0,0.0,0.0,0.0,0.0,0.0,0.0,0.0,0.0,5.0569,0.0,5.0684,5.055,5.055,5.0646,5.0875,5.1582,5.2251,5.269,5.2059,0.0,5.1716,5.1009,5.0779,0.0,0.0,0.0,0.0,0.0,0.0,0.0,0.0,0.0,5.3225,0.0,0.0,0.0,0.0,0.0,0.0,0.0,0.0,0.0,0.0,0.0,0.0,0.0,0.0,0.0,0.0,0.0,0.0,0.0,5.3833,5.3484,5.3227,5.3185,5.3185,5.3185,5.3185,5.3185,5.3185,5.3185,5.3185,5.3185,5.3185,5.3185,5.3185,5.3185,5.3185,5.3185,5.3185,5.3185,5.3185,5.3185,5.3185,5.3185,5.3185,5.3185,5.3185,5.3185,5.3185,5.3185,5.3185,5.3185,5.3185,5.3719,5.4216,5.4249,5.3644,0.0,0.0,0.0,0.0,0.0,0.0,0.0,0.0,0.0,0.0,0.0,0.0,0.0,0.0,5.2805,0.0,0.0,0.0,5.2805,5.2461,5.1742,5.1754,5.1314,5.0455,5.0455,0.0,0.0,0.0,0.0,0.0,5.0302,0.0,0.0,0.0,5.1436,0.0,5.2231,5.2098,0.0,5.1436,5.1907,5.2518,5.2633,5.2709,5.2785,0.0,5.2652,5.2652,0.0,5.2518,0.0,0.0,0.0,0.0,0.0,0.0,0.0,0.0,5.3301,0.0,0.0,0.0,5.5403,0.0,0.0,0.0,0.0,0.0,0.0,0.0,0.0,0.0,0.0,0.0,0.0,0.0,0.0,0.0,0.0,5.3462,5.323,5.3206,5.3185,5.3185,5.3185,5.3185,5.3185,5.3185,5.3185,5.3185,5.3185,5.3185,5.3185,5.3185,5.3185,5.3185,5.3185,5.3185,5.3185,5.3185,5.3185,5.3185,5.3185,5.3185,5.3185,5.3185,5.3185,5.3185,5.3185,5.3185,5.3185,5.3185,5.2977,5.3213,5.327,5.2968,0.0,0.0,0.0,0.0,0.0,0.0,0.0,0.0,0.0,0.0,0.0,0.0,0.0,5.2805,0.0,0.0,0.0,0.0,0.0,0.0,0.0,5.2308,5.2117,5.1754,5.1276,0.0,0.0,0.0,0.0,0.0,5.1047,0.0,5.1773,0.0,0.0,0.0,0.0,0.0,0.0,5.2499,5.2824,5.355,5.355,5.3874,5.4237,0.0,5.355,0.0,0.0,0.0,0.0,0.0,0.0,0.0,0.0,0.0,0.0,0.0,0.0,0.0,0.0,0.0,5.5403,0.0,0.0,0.0,0.0,0.0,0.0,0.0,0.0,0.0,0.0,0.0,0.0,0.0,0.0,0.0,0.0,0.0,0.0,0.0,5.3185,5.3185,5.3185,5.3185,5.3185,5.3185,5.3185,5.3185,5.3185,5.3185,5.3185,5.3185,5.3185,5.3185,5.3185,5.3185,5.3185,5.3185,5.3185,5.3185,5.3185,5.3185,5.3185,5.3185,5.3185,5.3185,5.3185,5.3185,5.3185,5.3185,5.2272,0.0,0.0,0.0,0.0,0.0,0.0,0.0,0.0,0.0,0.0,0.0,5.3511,5.341,0.0,0.0,0.0,5.3511,0.0,0.0,5.3455,0.0,0.0,0.0,0.0,0.0,5.2902,5.2654,5.2176,0.0,0.0,0.0,0.0,0.0,0.0,5.2251,5.2824,0.0,0.0,5.3168,5.3416,5.3894,5.439,5.3741,5.3913,5.4467,5.4467,5.4868,5.5307,5.4677,5.4467,0.0,5.3702,0.0,0.0,0.0,0.0,0.0,5.3511,0.0,0.0,0.0,0.0,0.0,0.0,0.0,0.0,0.0,0.0,0.0,0.0,0.0,0.0,0.0,0.0,0.0,0.0,0.0,0.0,0.0,0.0,0.0,0.0,0.0,0.0,0.0,0.0,5.3185,5.3185,5.3185,5.3185,5.3185,5.3185,5.3185,5.3185,5.3185,5.3185,5.3185,5.3185,5.3185,5.3185,5.3185,5.3185,5.3185,5.3185,5.3185,5.3185,5.3185,5.3185,5.3185,5.3185,5.3185,5.3185,5.3185,5.3185,5.3185,5.1663,5.3076,0.0,0.0,0.0,0.0,0.0,0.0,0.0,0.0,0.0,0.0,0.0,0.0,0.0,0.0,0.0,5.5326,5.5326,0.0,5.5138,0.0,0.0,5.4371,0.0,0.0,0.0,0.0,0.0,0.0,0.0,0.0,0.0,0.0,0.0,5.2785,5.2862,5.3702,5.4065,5.4123,5.4982,5.5326,5.5365,0.0,5.5326,5.5365,5.5365,0.0,0.0,5.5365,5.5365,0.0,0.0,0.0,0.0,0.0,0.0,0.0,0.0,0.0,0.0,5.5345,0.0,0.0,0.0,0.0,5.5403,0.0,0.0,0.0,0.0,0.0,0.0,0.0,0.0,0.0,0.0,0.0,0.0,0.0,0.0,0.0,0.0,0.0,0.0,0.0,0.0,0.0,5.3185,5.3185,5.3185,5.3185,5.3185,5.3185,5.3185,5.3185,5.3185,5.3185,5.3185,5.3185,5.3185,5.3185,5.3185,5.3185,5.3185,5.3185,5.3185,5.3185,5.3185,5.3185,5.3185,5.3185,5.3185,5.3185,5.3185,5.3185,0.0,0.0,0.0,0.0,0.0,0.0,0.0,5.3301,0.0,0.0,0.0,0.0,0.0,0.0,5.4511,0.0,0.0,5.4657,5.4657,5.4874,0.0,0.0,0.0,5.4952,0.0,0.0,0.0,0.0,0.0,0.0,0.0,0.0,0.0,0.0,0.0,5.397,0.0,0.0,0.0,0.0,0.0,5.5403,5.5403,0.0,0.0,5.5403,5.5403,5.5403,0.0,5.5403,5.5403,5.5403,5.5403,5.5403,5.5403,5.5403,5.5403,0.0,0.0,0.0,5.5403,5.5403,0.0,0.0,0.0,0.0,0.0,0.0,0.0,0.0,0.0,0.0,0.0,0.0,0.0,0.0,0.0,0.0,0.0,0.0,0.0,0.0,0.0,0.0,0.0,0.0,0.0,0.0,0.0,5.3185,5.3185,5.3185,5.3185,5.3185,5.3185,5.3185,5.3185,5.3185,5.3185,5.3185,5.3185,5.3185,5.3185,5.3185,5.3185,5.3185,5.3185,5.3185,5.3185,5.3185,5.3185,5.3185,5.3185,5.3185,5.3185,5.3185,5.3464,0.0,0.0,0.0,0.0,0.0,0.0,0.0,0.0,0.0,5.4294,0.0,5.4591,0.0,5.4141,0.0,5.4315,5.4347,5.4463,5.4576,0.0,5.4315,5.4626,0.0,0.0,0.0,0.0,0.0,0.0,5.4492,0.0,0.0,0.0,0.0,0.0,0.0,5.5403,0.0,5.5403,0.0,0.0,5.5403,0.0,0.0,5.5403,5.5403,0.0,5.5403,5.5403,5.5403,5.5403,5.5403,5.5403,5.5403,5.5403,5.5403,5.5403,5.5403,5.5403,5.5403,0.0,5.5403,5.5403,0.0,5.5403,0.0,0.0,0.0,0.0,0.0,0.0,0.0,0.0,0.0,0.0,0.0,0.0,5.3888,0.0,0.0,0.0,0.0,0.0,0.0,0.0,0.0,0.0,0.0,0.0,0.0,5.3185,5.3185,5.3185,5.3185,5.3185,5.3185,5.3185,5.3185,5.3185,5.3185,5.3185,5.3185,5.3185,5.3185,5.3185,5.3185,5.3185,5.3185,5.3185,5.3185,5.3185,5.3185,5.3185,5.3185,5.3185,5.3185,5.3185,0.0,0.0,0.0,5.4246,0.0,0.0,0.0,5.4264,0.0,5.3925,5.3833,5.4228,5.3925,5.3833,5.421,5.4246,0.0,5.47,5.4446,0.0,0.0,5.3944,5.3739,5.3701,0.0,0.0,0.0,0.0,0.0,0.0,0.0,0.0,0.0,5.5403,0.0,5.5403,5.5403,5.5403,5.5403,5.5403,5.5403,5.5403,5.5403,5.5403,5.5403,5.5403,5.5403,5.5403,5.5403,5.5403,5.5403,5.5403,5.5403,5.5403,5.5403,5.5403,5.5403,5.5403,5.5403,5.5403,5.5403,0.0,0.0,0.0,0.0,5.5377,0.0,0.0,0.0,0.0,0.0,0.0,0.0,0.0,0.0,0.0,0.0,0.0,0.0,0.0,0.0,0.0,0.0,0.0,0.0,0.0,0.0,0.0,0.0,5.3185,5.3185,5.3185,5.3185,5.3185,5.3185,5.3185,5.3185,5.3185,5.3185,5.3185,5.3185,5.3185,5.3185,5.3185,5.3185,5.3185,5.3185,5.3185,5.3185,5.3185,5.3185,5.3185,5.3185,5.3185,5.3185,5.3185,5.3185,5.3269,0.0,5.3481,5.3481,0.0,0.0,0.0,0.0,5.3543,5.3462,5.3814,5.3524,5.3378,5.3461,5.3481,0.0,0.0,0.0,0.0,5.3501,5.4139,5.4259,5.372,5.4642,0.0,5.467,0.0,0.0,5.526,0.0,0.0,0.0,0.0,0.0,5.5403,5.5403,5.5403,5.5403,5.5403,5.5403,0.0,0.0,5.5403,5.5403,5.5403,5.5403,5.5403,5.5403,5.5403,5.5403,5.5403,5.5403,5.5403,5.5403,5.5403,5.5403,5.5403,5.5403,5.5403,5.5403,5.5403,5.5403,0.0,0.0,0.0,0.0,0.0,0.0,0.0,0.0,0.0,0.0,0.0,0.0,0.0,0.0,0.0,0.0,0.0,0.0,0.0,0.0,0.0,0.0,0.0,0.0,0.0,0.0,0.0,5.3185,5.3185,5.3185,5.3185,5.3185,5.3185,5.3185,5.3185,5.3185,5.3185,5.3185,5.3185,5.3185,5.3185,5.3185,5.3185,5.3185,5.3185,5.3185,5.3185,5.3185,5.3185,5.3185,5.3185,5.3185,5.3185,0.0,0.0,5.3185,0.0,0.0,5.3185,0.0,0.0,5.3462,5.3316,0.0,5.3462,5.3316,5.3185,5.3185,5.3185,0.0,0.0,0.0,0.0,5.3402,5.3851,5.3907,5.3502,5.4243,0.0,5.4576,0.0,0.0,5.5403,0.0,0.0,0.0,0.0,5.5403,0.0,5.5403,5.5403,5.5403,5.5403,0.0,0.0,5.5403,5.5403,5.5403,5.5403,5.5403,5.5403,5.5403,5.5403,5.5403,5.5403,5.5403,5.5403,5.5403,5.5403,5.5403,5.5403,5.5403,5.5403,5.5403,5.5403,5.5403,5.5403,5.5214,5.5052,0.0,0.0,0.0,0.0,0.0,0.0,0.0,0.0,0.0,0.0,0.0,0.0,0.0,0.0,0.0,0.0,0.0,0.0,0.0,0.0,0.0,0.0,0.0,0.0,5.3185,5.3185,5.3185,5.3185,5.3185,5.3185,5.3185,5.3185,5.3185,5.3185,5.3185,5.3185,5.3185,5.3185,5.3185,5.3185,5.3185,5.3185,5.3185,5.3185,5.3185,5.3185,5.3185,5.3185,5.3185,0.0,0.0,0.0,0.0,0.0,0.0,0.0,5.3185,0.0,5.3185,0.0,5.3185,5.3185,5.3185,5.3185,5.3185,0.0,5.3316,5.3623,5.3359,5.3336,5.3623,5.34,5.323,5.3185,5.3583,0.0,0.0,0.0,0.0,0.0,0.0,0.0,0.0,0.0,0.0,0.0,5.5403,5.5403,5.5403,5.5403,5.5403,5.5403,5.5403,5.5403,5.5403,5.5403,5.5403,5.5403,5.5403,5.5403,5.5403,5.5403,5.5403,5.5403,5.5403,5.5403,5.5403,5.5403,5.5403,5.5403,5.5403,5.5403,5.5403,5.5403,5.5364,5.5319,5.5319,5.5292,5.5071,0.0,0.0,0.0,0.0,0.0,0.0,0.0,0.0,0.0,0.0,0.0,0.0,0.0,0.0,0.0,0.0,0.0,0.0,0.0,0.0,0.0,5.3185,5.3185,5.3185,5.3185,0.0,5.3185,5.3185,5.3185,5.3185,5.3185,5.3185,5.3185,5.3185,5.3185,5.3185,5.3185,5.3185,5.3185,5.3185,5.3185,5.3185,5.3185,5.3185,5.3185,5.3185,0.0,0.0,0.0,0.0,0.0,5.3185,5.3185,5.3185,5.3185,5.3185,5.3185,5.3185,5.3185,5.3185,5.3185,5.3185,5.3185,0.0,0.0,0.0,0.0,5.3293,5.3502,5.3464,5.3206,5.3851,5.407,0.0,0.0,0.0,0.0,0.0,0.0,0.0,0.0,0.0,5.5403,5.5403,0.0,5.5403,5.5403,5.5403,5.5403,5.5403,5.5403,5.5403,5.5403,5.5403,5.5403,5.5403,5.5403,5.5403,5.5403,5.5403,5.5403,5.5403,5.5403,5.5403,5.5403,5.5403,5.5403,5.5403,5.5403,5.5403,5.5403,5.514,5.4918,5.4918,5.4689,5.4546,5.4685,0.0,0.0,0.0,0.0,0.0,0.0,0.0,0.0,0.0,0.0,0.0,0.0,0.0,0.0,0.0,0.0,0.0,0.0,0.0,0.0,0.0,5.3185,0.0,0.0,0.0,5.3185,5.3185,5.3185,5.3185,5.3185,5.3185,5.3185,5.3185,5.3185,5.3185,5.3185,5.3185,5.3185,5.3185,5.3185,5.3185,5.3185,5.3185,5.3185,5.3185,0.0,0.0,0.0,0.0,0.0,0.0,0.0,5.3185,0.0,5.3185,5.3185,5.3185,5.3185,5.3185,5.3185,5.3185,5.3185,5.3185,5.3185,5.3185,5.3185,5.3185,5.3339,0.0,5.3206,5.3561,5.3814,5.4016,0.0,0.0,0.0,0.0,0.0,0.0,0.0,5.5099,0.0,0.0,0.0,5.5113,5.5319,5.5403,5.5403,5.5403,5.567,5.6014,5.6014,5.6301,5.6568,5.5689,5.5403,5.5403,5.5403,5.5403,5.5403,5.5403,5.5403,5.5403,5.5403,5.5403,5.5403,5.5403,5.5403,5.5403,5.5403,5.526,5.5113,5.5113,5.4981,5.4922,5.5085,5.4795,0.0,0.0,0.0,0.0,0.0,0.0,0.0,0.0,0.0,0.0,0.0,0.0,0.0,0.0,0.0,0.0,0.0,0.0,0.0,0.0,0.0,0.0,0.0,0.0,0.0,5.3185,5.3185,5.3185,5.3185,5.3185,5.3185,5.3185,5.3185,5.3185,5.3185,5.3185,5.3185,5.3185,5.3185,5.3185,5.3185,5.3185,5.3185,5.3185,0.0,5.3185,0.0,0.0,5.3185,0.0,5.3185,5.3185,5.3185,5.3185,5.3185,5.3185,5.3185,5.3353,5.3463,5.3463,5.3463,5.3463,5.3463,5.3277,5.3185,5.3185,5.3185,5.3185,5.3185,5.3185,5.3481,0.0,0.0,0.0,0.0,0.0,0.0,0.0,0.0,0.0,0.0,0.0,5.4933,5.4981,5.5464,5.567,5.5689,5.5861,5.632,5.6874,5.6874,5.7313,5.7695,5.6377,5.5938,5.5938,5.5938,5.5938,5.5938,5.5938,5.5938,5.5938,5.5938,5.5938,5.5938,5.5938,5.5785,5.567,5.567,5.5517,5.5403,5.5403,5.5332,5.5273,5.5273,5.4754,0.0,0.0,0.0,0.0,0.0,0.0,0.0,0.0,0.0,0.0,0.0,0.0,0.0,0.0,0.0,0.0,0.0,0.0,0.0,0.0,0.0,5.3185,5.3185,0.0,5.3185,5.3185,5.3185,5.3185,5.3185,5.3185,5.3185,5.3185,5.3185,5.3185,5.3185,5.3185,5.3185,5.3185,5.3185,5.3185,5.3185,5.3185,5.3185,5.3185,0.0,0.0,0.0,0.0,0.0,0.0,5.3185,5.3185,5.3185,5.3185,5.3185,5.3185,5.3185,5.3849,5.4289,5.4289,5.4289,5.4289,5.4289,5.361,5.3185,5.3185,5.3185,5.3185,5.3185,5.3185,5.3227,0.0,0.0,0.0,0.0,0.0,0.0,0.0,0.0,0.0,0.0,5.5345,5.5345,5.5421,5.6173,5.6492,5.6568,5.7371,5.7714,5.7772,5.7772,5.7829,5.7886,5.7714,5.7676,5.7676,5.7676,5.7676,5.7676,5.7676,5.7676,5.7676,5.7676,5.7676,5.7676,5.7676,5.7065,5.6492,5.6492,5.5919,5.5403,5.5403,5.5113,5.4855,5.4855,5.4544,5.4315,0.0,0.0,0.0,0.0,0.0,0.0,0.0,0.0,0.0,0.0,0.0,0.0,0.0,0.0,0.0,0.0,0.0,0.0,5.3185,0.0,5.3185,5.3185,5.3185,5.3185,5.3185,5.3185,5.3185,5.3185,5.3185,5.3185,5.3185,5.3185,5.3185,5.3185,5.3185,5.3185,5.3185,5.3185,5.3185,5.3185,5.3185,5.3185,5.3185,0.0,0.0,0.0,0.0,0.0,0.0,0.0,5.4326,5.4638,5.4638,5.4216,5.4106,5.4583,5.4932,5.5115,5.5115,5.5115,5.5115,5.5115,5.4821,5.4418,5.394,5.3922,5.3702,5.3203,5.3185,5.3314,0.0,0.0,0.0,0.0,0.0,0.0,0.0,0.0,5.4378,5.4413,5.4642,5.5019,5.5538,5.6281,5.6912,5.7409,5.7772,5.8192,5.8631,5.8631,5.8956,5.9396,5.9396,5.8727,5.7905,5.7905,5.7905,5.7905,5.7905,5.7905,5.7905,5.7905,5.7905,5.7905,5.7905,5.7638,5.7371,5.7371,5.6721,5.611,5.611,5.5616,5.5154,5.5154,5.5057,5.4874,0.0,0.0,0.0,0.0,0.0,0.0,0.0,0.0,0.0,0.0,0.0,0.0,0.0,0.0,0.0,0.0,0.0,0.0,5.3185,0.0,5.3185,5.3185,5.3185,5.3185,5.3185,5.3185,5.3185,5.3185,5.3185,5.3185,5.3185,5.3185,5.3185,5.3185,5.3185,5.3185,5.3185,5.3185,5.3185,5.3185,5.3185,5.3185,5.3185,5.3518,0.0,5.3628,0.0,5.4381,5.4748,5.4748,5.5225,5.5666,5.5904,5.5464,5.5225,5.5556,5.5794,5.5941,5.5941,5.5941,5.5941,5.5941,5.5721,5.5335,5.4785,5.4748,0.0,5.3573,5.3555,5.3555,5.3545,5.3402,0.0,0.0,0.0,0.0,0.0,5.4016,5.4019,5.4261,5.4532,5.5191,5.6095,5.6848,5.7595,5.8288,5.8536,5.8994,5.9491,5.9491,5.9873,6.0403,6.0403,5.9606,5.8631,5.8631,5.8631,5.8631,5.8631,5.8631,5.8631,5.8631,5.8631,5.8631,5.8631,5.844,5.8249,5.8249,5.7581,5.688,5.6532,5.5902,5.5309,5.4975,5.5014,5.4981,5.47,0.0,0.0,0.0,0.0,0.0,0.0,0.0,5.3601,5.3378,0.0,0.0,0.0,0.0,0.0,0.0,0.0,0.0,0.0,0.0,0.0,0.0,5.3185,5.3185,5.3185,5.3185,5.3185,5.3185,5.3185,5.3185,5.3185,5.3185,5.3185,5.3185,5.3185,5.3185,5.3185,5.3185,5.3185,5.3185,5.3185,5.3185,5.3185,5.4234,5.4399,5.4638,5.5449,5.5596,5.5574,5.5574,5.5574,5.5886,5.6693,5.6785,5.6473,5.5684,5.6308,5.6804,5.6804,5.6804,5.6804,5.6804,5.6033,5.5614,0.0,0.0,5.5207,5.4399,5.4399,5.3995,5.3206,0.0,0.0,5.372,0.0,5.4298,5.4315,5.4279,5.473,5.5482,5.548,5.6174,5.7352,5.8161,5.8722,5.9185,6.0026,6.037,6.037,6.037,6.0403,6.0403,6.0403,6.0403,6.0384,6.0384,6.0384,6.0384,6.0384,6.0384,6.0384,6.0384,6.0384,6.0384,6.0384,5.972,5.9076,5.9076,5.8459,5.7537,5.6356,5.5783,5.5146,5.3944,5.4052,5.4315,5.4315,0.0,0.0,0.0,0.0,0.0,0.0,5.4576,5.4474,5.3758,0.0,0.0,0.0,0.0,0.0,0.0,0.0,0.0,5.3185,5.3185,0.0,5.3185,5.3185,5.3185,5.3185,5.3185,5.3185,5.3185,5.3185,5.3185,5.3185,5.3185,5.3185,5.3185,5.3185,5.3185,5.3185,5.3185,5.3185,5.3185,5.3185,5.3185,5.3185,5.517,5.5207,5.5299,5.5556,5.6051,5.6418,5.6418,5.6877,5.7317,5.7574,5.7611,5.7519,5.7262,5.7464,5.7611,0.0,5.7611,5.7611,0.0,5.7373,5.6987,5.6436,5.6418,5.6033,5.5225,5.5207,5.5078,5.484,0.0,0.0,0.0,5.5127,5.5188,5.5188,5.5188,5.5336,5.5579,5.5803,5.6462,5.7398,5.7916,5.8507,5.9213,5.9477,5.9758,5.9988,5.9988,6.0178,6.0403,6.0403,6.0403,6.0403,6.0403,6.0403,6.0403,6.0403,6.0403,6.0403,6.0403,6.0403,6.0403,6.0403,6.0179,5.9988,5.9988,5.9338,5.8451,5.7529,5.6745,5.613,5.5742,5.5327,5.5042,5.5042,5.5146,0.0,0.0,0.0,0.0,0.0,5.4139,5.3961,0.0,5.3602,0.0,0.0,0.0,0.0,0.0,0.0,0.0,0.0,5.3185,0.0,5.3185,5.3185,5.3185,5.3185,5.3185,5.3185,5.3185,5.3185,5.3185,5.3185,5.3185,5.3185,5.3185,5.3185,5.3185,5.3185,5.3185,5.3185,5.3185,5.3185,5.3185,5.3185,5.5978,5.6051,5.6143,5.6436,5.6914,5.7262,5.7262,5.7685,5.7997,5.7997,5.7997,5.7997,5.7997,5.7997,0.0,5.7997,5.7997,5.7997,5.7997,5.7997,5.7776,5.7281,5.7262,5.6877,5.6069,5.6051,0.0,5.5614,5.5614,5.5614,5.5614,5.5614,5.5614,5.5614,5.5614,5.5757,5.6055,5.6282,5.6936,5.7866,5.8068,5.8578,5.9215,5.9215,5.9361,5.9571,5.9571,5.9823,6.0159,6.0159,6.0285,6.0403,6.0403,6.0403,6.0403,6.0403,6.0403,6.0403,6.0403,6.0403,6.0403,6.0403,6.0403,6.0403,6.0403,5.9969,5.933,5.8359,5.7468,5.6721,5.6263,5.5631,5.5168,5.5168,5.5286,5.5319,5.5052,0.0,0.0,0.0,0.0,0.0,0.0,5.3814,5.3542,0.0,0.0,0.0,0.0,0.0,0.0,5.3185,5.3185,0.0,5.3185,5.3185,5.3185,5.3185,5.3185,5.3185,5.3185,5.3185,5.3185,5.3185,5.3185,5.3185,5.3185,5.3185,5.3185,5.3185,5.3185,5.3185,5.3185,5.3185,5.339,5.3665,5.6748,5.6895,5.7134,0.0,5.7997,0.0,5.7997,5.7997,5.7997,5.7997,5.7997,5.7997,5.7997,5.7997,5.7997,5.7997,0.0,0.0,0.0,5.7997,5.7997,5.7997,5.7997,5.7648,5.6914,5.6895,5.6528,5.578,5.578,5.578,5.578,5.578,5.578,5.578,5.578,5.618,5.6895,5.6895,5.753,5.8563,5.8563,5.8791,5.9122,5.9122,5.9122,5.9159,5.9159,5.9415,5.9758,5.9758,6.0019,6.0361,6.0361,6.0375,6.0403,6.0403,6.0403,6.0403,6.0403,6.0403,6.0403,6.0403,6.0403,6.0403,6.0403,6.0403,6.007,5.8969,5.8034,5.7068,5.5875,5.5262,5.4912,5.4855,5.5173,5.5403,5.5403,0.0,0.0,0.0,0.0,0.0,0.0,5.4495,5.4141,0.0,0.0,0.0,0.0,0.0,5.3185,5.3185,5.3185,5.3185,5.3185,5.3185,5.3185,5.3185,5.3185,5.3185,5.3185,5.3185,5.3185,5.3185,5.3185,5.3185,5.3185,5.3185,5.3185,5.3185,5.3185,5.3185,5.3203,5.3259,5.3775,5.4418,0.0,0.0,5.7776,5.796,5.7997,5.7997,5.7997,5.7997,5.7997,5.7997,5.7997,5.7997,5.7997,5.7997,5.7997,5.7997,5.7997,5.7997,5.7997,5.7997,5.7997,5.7997,5.7997,5.7905,5.7721,5.7721,5.7611,5.7428,5.7428,5.7428,5.7428,5.7428,5.7428,5.7428,5.7428,5.7538,5.7721,5.7721,5.7882,5.8142,5.8142,5.8209,5.8279,5.8279,5.8458,5.875,5.875,5.9008,5.9324,5.9324,5.9605,5.9937,5.9937,6.0144,6.0403,6.0403,6.0403,6.0403,6.0403,6.0403,6.0403,6.0403,6.0403,6.0403,6.0403,6.0403,6.0318,6.0018,5.9278,5.8392,5.7501,5.67,5.5979,5.5355,5.5332,5.5403,5.5403,5.5319,0.0,0.0,5.5052,5.4791,5.4791,5.4495,5.4141,0.0,0.0,0.0,0.0,5.3185,5.3185,5.3185,5.3185,5.3185,5.3185,5.3185,5.3185,5.3185,5.3185,5.3185,5.3185,5.3185,5.3185,5.3185,5.3185,5.3185,5.3185,5.3185,5.3185,5.3185,5.3185,5.3185,5.328,5.3904,5.4234,5.4491,5.7997,5.7997,5.7997,5.7997,5.7997,5.7997,5.7997,5.7997,5.7997,5.7997,5.7997,5.7997,5.7997,5.7997,5.7997,5.7997,5.7997,5.7997,5.7997,5.7997,5.7997,5.7997,5.7997,5.7997,5.7997,5.7997,5.7997,5.7997,5.7997,5.7997,5.7997,5.7997,5.7997,5.7997,5.7997,5.7997,5.7997,5.7997,5.7997,5.7997,5.7997,5.7997,5.7997,5.7997,5.8138,5.8344,5.8344,5.8566,5.893,5.893,5.9196,5.952,5.952,5.9675,5.989,6.0064,6.027,6.0403,6.0403,6.0403,6.0403,6.0403,6.0403,6.0403,6.0403,6.0403,6.0403,6.0403,5.9701,5.8861,5.8058,5.7179,5.6339,5.5536,5.5403,5.5403,5.5403,5.5403,0.0,5.5403,5.52,5.5066,5.5066,5.475,5.4428,5.4207,5.4069,0.0,5.3699,5.3699,5.3561,5.3206,5.3185,5.3185,5.3185,5.3573,5.3757,5.3757,5.4124,5.4106,5.3757,5.3757,5.3555,5.3185,5.3185,5.3185,5.3185,5.3185,5.3185,5.3185,5.3185,5.3534,5.409,5.4515,5.5247,5.6115,5.7997,5.7997,5.7997,5.7997,5.7997,5.7997,5.7997,5.7997,5.7997,5.7997,5.7997,5.7997,5.7997,5.7997,5.7997,5.7997,5.7997,5.7997,5.7997,5.7997,5.7997,5.7997,5.7997,5.7997,5.7997,5.7997,5.7997,5.7997,5.7997,5.7997,5.7997,5.7997,5.7997,5.7997,5.7997,5.7997,5.7997,5.7997,5.7997,5.7997,5.7997,5.7997,5.7997,5.7997,5.7997,5.7997,5.7997,5.8213,5.8521,5.8521,5.8791,5.9103,5.9103,5.914,5.927,5.9605,5.9937,6.0256,6.0375,6.0403,6.0403,6.0403,6.0403,6.0403,6.0403,6.0403,6.0403,6.0403,5.9816,5.9052,5.823,5.7371,5.653,5.5708,5.5479,5.5403,5.5403,0.0,5.5403,5.5403,5.5403,5.5403,5.5403,5.5099,5.487,5.4806,5.4544,5.4347,5.4296,5.4315,5.4073,5.3564,5.3431,5.341,5.3456,5.4312,5.4696,5.4583,5.5349,5.5312,5.4583,5.4583,5.4216,5.3573,5.349,5.3456,5.3437,5.3392,5.3375,5.3375,5.3486,5.4174,5.5118,5.5509,5.6706,5.8219,5.7997,5.7997,5.7997,5.7997,5.7997,5.7997,5.7997,5.7997,5.7997,5.7997,5.7997,5.7997,5.7997,5.7997,5.7997,5.7997,5.7997,5.7997,5.7997,5.7997,5.7997,5.7997,5.7997,5.7997,5.7997,5.7997,5.7997,5.7997,5.7997,5.7997,5.7997,5.7997,5.7997,5.7997,5.7997,5.7997,5.7997,5.7997,5.7997,5.7997,5.7997,5.7997,5.7997,5.7997,5.7997,5.7997,5.7997,5.8024,5.8092,5.8092,5.8348,5.8689,5.8689,5.893,5.9196,5.927,5.9343,5.9537,6.0222,6.0403,6.0403,6.0403,6.0403,6.0403,6.0403,6.0403,6.0403,6.0403,6.0288,5.9931,5.9071,5.8249,5.7409,5.6549,5.5842,5.5403,5.5403,0.0,5.5403,5.5403,5.5403,5.5403,5.5403,5.5345,5.5173,5.484,5.4746,5.4607,5.4332,5.4315,5.4564,5.5132,5.4479,5.4298,5.4624,5.5828,5.6104,5.5431,5.587,5.5849,5.5409,5.5409,5.5335,5.521,5.4816,5.4642,5.4608,5.4279,5.4142,5.4198,5.4871,5.5261,5.567,5.7789,5.8746,5.9214,5.7997,5.7997,5.7997,5.7997,5.7997,5.7997,5.7997,5.7997,5.7997,5.7997,5.7997,5.7997,5.7997,5.7997,5.7997,5.7997,5.7997,5.7997,5.7997,5.7997,5.7997,5.7997,5.7997,5.7997,5.7997,5.7997,5.7997,5.7997,5.7997,5.7997,5.7997,5.7997,5.7997,5.7997,5.7997,5.7997,5.7997,5.7997,5.7997,5.7997,5.7997,5.7997,5.7997,5.7997,5.7997,5.7997,5.7997,5.7997,5.7997,5.7997,5.8119,5.8279,5.8279,5.8412,5.8605,5.8792,5.9178,5.9588,5.9988,6.0237,6.0403,6.0403,6.0403,6.0403,6.0403,6.0403,6.0403,6.0403,6.0403,6.0122,5.9262,5.8803,5.8061,5.6568,5.617,0.0,0.0,5.526,5.5403,5.5403,5.5403,5.5403,5.5403,5.5403,5.5332,5.514,5.5127,5.5242,5.5515,5.5534,5.5913,5.6782,5.6038,5.5745,5.5921,5.6946,5.7248,5.6902,5.7507,5.7488,5.6883,5.6883,5.666,5.6233,5.6015,5.5902,5.594,5.6177,5.6303,5.6378,5.7222,5.7945,5.8646,5.9798,6.0636,6.1297,5.7997,5.7997,5.7997,5.7997,5.7997,5.7997,5.7997,5.7997,5.7997,5.7997,5.7997,5.7997,5.7997,5.7997,5.7997,5.7997,5.7997,5.7997,5.7997,5.7997,5.7997,5.7997,5.7997,5.7997,5.7997,5.7997,5.7997,5.7997,5.7997,5.7997,5.7997,5.7997,5.7997,5.7997,5.7997,5.7997,5.7997,5.7997,5.7997,5.7997,5.7997,5.7997,5.7997,5.7997,5.7997,5.7997,5.7997,5.7997,5.7997,5.7997,5.7997,5.7997,5.7997,5.7997,5.8047,5.8369,5.8969,5.9537,5.9641,5.9937,6.0251,6.0251,6.0328,6.0403,6.0403,6.0403,6.0403,6.0403,6.0403,6.0198,5.9529,5.9243,5.8601,5.7057,0.0,0.0,0.0,5.5467,5.5613,5.5422,5.5403,5.5403,5.5403,5.5575,5.5689,5.5689,5.588,5.6243,5.6855,5.6893,5.7294,5.8154,5.7627,5.7297,5.7212,5.8091,5.8471,5.8276,5.9175,5.925,5.8594,5.8764,5.8519,5.7936,5.7818,5.7777,5.7815,5.8352,5.8555,5.865,5.9498,6.0404,6.128,6.166,6.2407,6.3236,5.7997,5.7997,5.7997,5.7997,5.7997,5.7997,5.7997,5.7997,5.7997,5.7997,5.7997,5.7997,5.7997,5.7997,5.7997,5.7997,5.7997,5.7997,5.7997,5.7997,5.7997,5.7997,5.7997,5.7997,5.7997,5.7997,5.7997,5.7997,5.7997,5.7997,5.7997,5.7997,5.7997,5.7997,5.7997,5.7997,5.7997,5.7997,5.7997,5.7997,5.7997,5.7997,5.7997,5.7997,5.7997,5.7997,5.7997,5.7997,5.7997,5.7997,5.7997,5.7997,5.7997,5.7997,5.7997,5.8042,5.8348,5.877,5.914,5.9537,5.9842,5.9842,6.0129,6.0403,6.0403,6.0403,6.0403,6.0403,6.0403,6.037,6.0313,5.9644,5.9057,5.8896,0.0,0.0,5.658,5.6479,5.6243,5.5498,5.5403,5.5403,5.5403,5.6071,5.6511,5.6511,5.7256,5.7734,5.7791,5.7791,5.8173,5.8994,5.8972,5.8758,5.8375,5.9596,5.9861,5.9121,6.0289,6.0667,6.0342,6.1074,6.1413,6.1319,6.0872,6.0686,6.0681,6.0349,6.0218,6.0294,6.1115,6.1492,6.1755,6.3378,6.4023,6.4225,5.7997,5.7997,5.7997,5.7997,5.7997,5.7997,5.7997,5.7997,5.7997,5.7997,5.7997,5.7997,5.7997,5.7997,5.7997,5.7997,5.7997,5.7997,5.7997,5.7997,5.7997,5.7997,5.7997,5.7997,5.7997,5.7997,5.7997,5.7997,5.7997,5.7997,5.7997,5.7997,5.7997,5.7997,5.7997,5.7997,5.7997,5.7997,5.7997,5.7997,5.7997,5.7997,5.7997,5.7997,5.7997,5.7997,5.7997,5.7997,5.7997,5.7997,5.7997,5.7997,5.7997,5.7997,5.7997,5.7997,5.8115,5.8257,5.8412,5.893,5.9485,5.9741,5.9906,6.0099,6.0328,6.0403,6.0403,6.0403,6.0403,6.0403,6.0403,6.0122,5.9664,5.8904,0.0,5.8257,5.7192,5.7243,5.7294,5.6988,5.695,5.695,5.695,5.7237,5.7409,5.7409,5.7714,5.8116,5.8631,5.9166,5.9587,5.9892,5.9911,5.9817,5.9682,6.0161,6.0256,5.9956,6.0917,6.1317,6.121,6.2045,6.2425,6.2423,6.2249,6.2178,6.2212,6.2599,6.2772,6.2849,6.3637,6.3962,6.4038,6.4707,6.4936,6.4993,5.7997,5.7997,5.7997,5.7997,5.7997,5.7997,5.7997,5.7997,5.7997,5.7997,5.7997,5.7997,5.7997,5.7997,5.7997,5.7997,5.7997,5.7997,5.7997,5.7997,5.7997,5.7997,5.7997,5.7997,5.7997,5.7997,5.7997,5.7997,5.7997,5.7997,5.7997,5.7997,5.7997,5.7997,5.7997,5.7997,5.7997,5.7997,5.7997,5.7997,5.7997,5.7997,5.7997,5.7997,5.7997,5.7997,5.7997,5.7997,5.7997,5.7997,5.7997,5.7997,5.7997,5.7997,5.7997,5.7997,5.7997,5.7997,5.7997,5.8391,5.8929,5.9324,5.9605,5.9874,6.0144,6.0313,6.0403,6.0403,6.0403,6.0403,6.0403,6.0403,6.0122,5.9307,5.9364,5.9116,5.8018,5.8106,5.8173,5.7925,5.7905,5.7905,5.7905,5.8135,5.8288,5.8288,5.8536,5.8937,5.9491,6.0083,6.0403,6.0403,6.0403,6.0403,6.0403,6.0403,6.0403,6.0422,6.1211,6.1593,6.1631,6.251,6.2911,6.2911,6.2911,6.3064,6.335,6.3942,6.4359,6.463,6.5184,6.5394,6.5394,6.5394,6.5394,6.5394,5.7997,5.7997,5.7997,5.7997,5.7997,5.7997,5.7997,5.7997,5.7997,5.7997,5.7997,5.7997,5.7997,5.7997,5.7997,5.7997,5.7997,5.7997,5.7997,5.7997,5.7997,5.7997,5.7997,5.7997,5.7997,5.7997,5.7997,5.7997,5.7997,5.7997,5.7997,5.7997,5.7997,5.7997,5.7997,5.7997,5.7997,5.7997,5.7997,5.7997,5.7997,5.7997,5.7997,5.7997,5.7997,5.7997,5.7997,5.7997,5.7997,5.7997,5.7997,5.7997,5.7997,5.7997,5.7997,5.7997,5.7997,5.7997,5.7997,5.7997,5.8092,5.85,5.9215,5.9791,5.9791,6.0114,6.0403,6.0403,6.0403,6.0403,6.0403,6.0403,6.0403,6.0403,6.0403,6.0102,5.9243,5.9095,5.8822,5.8001,5.7925,5.7925,5.7925,5.8651,5.9095,5.9095,5.9911,6.0403,6.0403,6.0403,6.0403,6.0403,6.0403,6.0403,6.0403,6.0403,6.0403,6.0422,6.1211,6.1593,6.1631,6.251,6.2911,6.2911,6.2911,6.3388,6.4187,6.4187,6.4649,6.5375,6.5375,6.5375,6.5375,6.5375,6.5375,6.5375,5.7997,5.7997,5.7997,5.7997,5.7997,5.7997,5.7997,5.7997,5.7997,5.7997,5.7997,5.7997,5.7997,5.7997,5.7997,5.7997,5.7997,5.7997,5.7997,5.7997,5.7997,5.7997,5.7997,5.7997,5.7997,5.7997,5.7997,5.7997,5.7997,5.7997,5.7997,5.7997,5.7997,5.7997,5.7997,5.7997,5.7997,5.7997,5.7997,5.7997,5.7997,5.7997,5.7997,5.7997,5.7997,5.7997,5.7997,5.7997,5.7997,5.7997,5.7997,5.7997,5.7997,5.7997,5.7997,5.7997,5.7997,5.7997,5.7997,5.7997,5.8092,5.85,5.8988,5.945,5.9741,6.0114,6.0403,6.0403,6.0403,6.0403,6.0403,6.0403,6.0403,6.0403,6.0403,6.0313,6.0045,6.0007,5.9911,5.9682,5.9644,5.9644,5.9644,5.9873,6.0007,6.0007,6.0236,6.0403,6.0403,6.0403,6.0403,6.0403,6.0403,6.0403,6.0403,6.0403,6.0403,6.0422,6.1211,6.1593,6.1631,6.251,6.2911,6.2911,6.2911,6.3045,6.3293,6.3293,6.3427,6.3656,6.3656,6.3656,6.3656,6.3656,6.3656,6.3656,5.7997,5.7997,5.7997,5.7997,5.7997,5.7997,5.7997,5.7997,5.7997,5.7997,5.7997,5.7997,5.7997,5.7997,5.7997,5.7997,5.7997,5.7997,5.7997,5.7997,5.7997,5.7997,5.7997,5.7997,5.7997,5.7997,5.7997,5.7997,5.7997,5.7997,5.7997,5.7997,5.7997,5.7997,5.7997,5.7997,5.7997,5.7997,5.7997,5.7997,5.7997,5.7997,5.7997,5.7997,5.7997,5.7997,5.7997,5.7997,5.7997,5.7997,5.7997,5.7997,5.7997,5.7997,5.7997,5.7997,5.7997,5.7997,5.7997,5.7997,5.8047,5.8282,5.8669,5.9065,5.9467,5.9874,6.0207,6.0375,6.0403,6.0403,6.0403,6.0403,6.0403,6.0403,6.0403,6.0403,6.0403,6.0403,6.0403,6.0403,6.0403,6.0403,6.0403,6.0403,6.0403,6.0403,6.0403,6.0403,6.0403,6.0403,6.0403,6.0403,6.0403,6.0403,6.0403,6.0403,6.0403,6.0422,6.0886,6.1134,6.1134,6.1669,6.1917,6.1917,6.1917,6.2089,6.2395,6.2395,6.2586,6.2911,6.2911,6.2911,6.2911,6.2911,6.2911,6.2911,5.7997,5.7997,5.7997,5.7997,5.7997,5.7997,5.7997,5.7997,5.7997,5.7997,5.7997,5.7997,5.7997,5.7997,5.7997,5.7997,5.7997,5.7997,5.7997,5.7997,5.7997,5.7997,5.7997,5.7997,5.7997,5.7997,5.7997,5.7997,5.7997,5.7997,5.7997,5.7997,5.7997,5.7997,5.7997,5.7997,5.7997,5.7997,5.7997,5.7997,5.7997,5.7997,5.7997,5.7997,5.7997,5.7997,5.7997,5.7997,5.7997,5.7997,5.7997,5.7997,5.7997,5.7997,5.7997,5.7997,5.7997,5.7997,5.7997,5.7997,5.7997,5.7997,5.8279,5.8648,5.9046,5.9485,5.9906,6.0285,6.0375,6.0403,6.0403,6.0403,6.0403,6.0403,6.0403,6.0403,6.0403,6.0403,6.0403,6.0403,6.0403,6.0403,6.0403,6.0403,6.0403,6.0403,6.0403,6.0403,6.0403,6.0403,6.0403,6.0403,6.0403,6.0403,6.0403,6.0403,6.0403,6.0403,6.0403,6.0403,6.0403,6.0403,6.0403,6.0403,6.0403,6.0809,6.1497,6.1497,6.1956,6.2682,6.2682,6.2682,6.2682,6.2682,6.2682,6.2682,5.7997,5.7997,5.7997,5.7997,5.7997,5.7997,5.7997,5.7997,5.7997,5.7997,5.7997,5.7997,5.7997,5.7997,5.7997,5.7997,5.7997,5.7997,5.7997,5.7997,5.7997,5.7997,5.7997,5.7997,5.7997,5.7997,5.7997,5.7997,5.7997,5.7997,5.7997,5.7997,5.7997,5.7997,5.7997,5.7997,5.7997,5.7997,5.7997,5.7997,5.7997,5.7997,5.7997,5.7997,5.7997,5.7997,5.7997,5.7997,5.7997,5.7997,5.7997,5.7997,5.7997,5.7997,5.7997,5.7997,5.7997,5.7997,5.7997,5.7997,5.7997,5.7997,5.807,5.8235,5.8628,5.9288,5.9823,5.9906,6.0193,6.0403,6.0403,6.0403,6.0403,6.0403,6.0403,6.0403,6.0403,6.0403,6.0403,6.0403,6.0403,6.0403,6.0403,6.0403,6.0403,6.0403,6.0403,6.0403,6.0403,6.0403,6.0403,6.0403,6.0403,6.0403,6.0403,6.0403,6.0403,6.0403,6.0403,6.0403,6.0403,6.0403,6.0403,6.0403,6.0403,6.0499,6.0656,6.0656,6.0771,6.0943,6.0943,6.0943,6.0943,6.0943,6.0943,6.0943,5.7997,5.7997,5.7997,5.7997,5.7997,5.7997,5.7997,5.7997,5.7997,5.7997,5.7997,5.7997,5.7997,5.7997,5.7997,5.7997,5.7997,5.8162,5.8547,5.8584,5.8749,5.9134,5.9134,5.9134,5.9134,5.9134,5.8767,5.7997,5.7997,5.7997,5.7997,5.7997,5.7997,5.7997,5.7997,5.7997,5.7997,5.7997,5.7997,5.7997,5.7997,5.7997,5.7997,5.7997,5.7997,5.7997,5.7997,5.8253,5.8639,5.9024,5.9134,5.9134,5.9134,5.9134,5.9061,5.8694,5.8584,5.8492,5.8107,5.7997,5.7997,5.7997,5.7997,5.8115,5.8521,5.9084,5.9571,5.9758,6.0114,6.0403,6.0403,6.0403,6.0403,6.0403,6.0403,6.0403,6.0403,6.0403,6.0403,6.0403,6.0403,6.0403,6.0403,6.0403,6.0403,6.0403,6.0403,6.0403,6.0403,6.0403,6.0403,6.0403,6.0403,6.0403,6.0403,6.0403,6.0403,6.0403,6.0403,6.0403,6.0403,6.0403,6.0403,6.0403,6.0403,6.0403,6.0403,6.0403,6.0403,6.0403,6.0403,6.0403,6.0403,6.0403,6.0403,6.0403,5.7997,5.7997,5.7997,5.7997,5.7997,5.7997,5.7997,5.7997,5.7997,5.7997,5.7997,5.7997,5.7997,5.7997,5.7997,5.7997,5.7997,5.8345,5.9148,5.9184,5.9551,6.0364,6.0401,6.0401,6.0401,6.0401,5.9685,5.8217,5.8217,5.8125,5.7997,5.7997,5.7997,5.7997,5.8143,5.8217,5.8217,5.8345,5.84,5.84,5.84,5.84,5.84,5.84,5.84,5.84,5.84,5.8841,5.9496,6.0181,6.0401,6.0401,6.0401,6.0401,6.0272,5.9588,5.9404,5.9221,5.8419,5.8217,5.8162,5.8033,5.7997,5.8092,5.8415,5.887,5.9288,5.9641,6.0064,6.0403,6.0403,6.0403,6.0403,6.0403,6.0403,6.0403,6.0403,6.0403,6.0403,6.0403,6.0403,6.0403,6.0403,6.0403,6.0403,6.0403,6.0403,6.0403,6.0403,6.0403,6.0403,6.0403,6.0403,6.0403,6.0403,6.0403,6.0403,6.0403,6.0403,6.0403,6.0403,6.0403,6.0403,6.0403,6.0403,6.0403,6.0403,6.0403,6.0403,6.0403,6.0403,6.0403,6.0403,6.0403,6.0403,6.0403,5.7997,5.7997,5.7997,5.7997,5.7997,5.7997,5.7997,5.7997,5.7997,5.7997,5.7997,5.7997,5.7997,5.7997,5.7997,5.7997,5.7997,5.8345,5.9148,5.9184,5.9551,6.0364,6.0401,6.0401,6.0401,6.0401,5.996,5.9038,5.9038,5.8694,5.7997,5.7997,5.7997,5.8033,5.8731,5.9038,5.9074,5.9795,6.0089,6.0089,6.0089,6.0089,6.0089,6.0089,6.0089,6.0089,6.0089,6.0162,6.0254,6.0364,6.0401,6.0401,6.0401,6.0401,6.0382,6.0272,6.0254,6.007,5.9258,5.9038,5.8877,5.8162,5.7997,5.802,5.807,5.8648,5.9215,5.927,5.9874,6.0403,6.0403,6.0403,6.0403,6.0403,6.0403,6.0403,6.0403,6.0403,6.0403,6.0403,6.0403,6.0403,6.0403,6.0403,6.0403,6.0403,6.0403,6.0403,6.0403,6.0403,6.0403,6.0403,6.0403,6.0403,6.0403,6.0403,6.0403,6.0403,6.0403,6.0403,6.0403,6.0403,6.0403,6.0403,6.0403,6.0403,6.0403,6.0403,6.0403,6.0403,6.0403,6.0403,6.0403,6.0403,6.0403,6.0403,5.7997,5.7997,5.7997,5.7997,5.7997,5.7997,5.7997,5.7997,5.7997,5.7997,5.7997,5.7997,5.7997,5.7997,5.7997,5.7997,5.8419,5.9024,5.9832,6.0291,6.0896,6.1722,6.1741,6.1741,6.1741,6.1741,6.1355,6.0548,6.0107,5.9703,5.9336,5.9336,5.9336,5.9355,5.9722,5.9887,5.9905,6.0254,6.0401,6.0401,6.0401,6.0401,6.0401,6.0401,6.0401,6.0456,6.0915,6.1062,6.1135,6.1594,6.1741,6.1741,6.1741,6.1741,6.1667,6.1208,6.1062,6.0896,6.0107,5.9887,5.9795,5.9428,5.9006,5.8676,5.8676,5.896,5.9215,5.9215,5.9675,6.0129,6.0361,6.0403,6.0403,6.0403,6.0403,6.0403,6.0403,6.0403,6.0403,6.0403,6.0403,6.0403,6.0403,6.0403,6.0403,6.0403,6.0403,6.0403,6.0403,6.0403,6.0403,6.0403,6.0403,6.0403,6.0403,6.0403,6.0403,6.0403,6.0403,6.0403,6.0403,6.0403,6.0403,6.0403,6.0403,6.0403,6.0403,6.0403,6.0403,6.0403,6.0403,6.0403,6.0403,6.0403,6.0403,6.0403]}]]